     2              OBSERVATION DATA    GPS                 RINEX VERSION / TYPE
teqc 2000Jul20 Karen Wendt 20030613 20:52:22UTC             PGM / RUN BY / DATE
                                                            COMMENT
L2: 1 -> 1; 150 -> 5; 250 -> 9                              COMMENT
L2: 1 -> 1; 150 -> 5; 250 -> 9                              COMMENT
L2: 1 -> 1; 150 -> 5; 250 -> 9                              COMMENT
L2: 1 -> 1; 150 -> 5; 250 -> 9                              COMMENT
L2: 1 -> 1; 150 -> 5; 250 -> 9                              COMMENT
L2: 1 -> 1; 150 -> 5; 250 -> 9                              COMMENT
L2: 1 -> 1; 150 -> 5; 250 -> 9                              COMMENT
L2: 1 -> 1; 150 -> 5; 250 -> 9                              COMMENT
L2: 1 -> 1; 150 -> 5; 250 -> 9                              COMMENT
L2: 1 -> 1; 150 -> 5; 250 -> 9                              COMMENT
L2: 1 -> 1; 150 -> 5; 250 -> 9                              COMMENT
L2: 1 -> 1; 150 -> 5; 250 -> 9                              COMMENT
L2: 1 -> 1; 150 -> 5; 250 -> 9                              COMMENT
L2: 1 -> 1; 150 -> 5; 250 -> 9                              COMMENT
Original Marker Name: goo5 Go05_unstamped_DMA               COMMENT
Campaign Name: USGS Death Valley 2003                       COMMENT
4-Character Station Name: GOO5                              COMMENT
6-Character Antenna Code: DMRCHT                            COMMENT
Vertical Measurement Point: BCR                             COMMENT
Vertical Offset to Rinex Ref. Point: 0.0348                 COMMENT
Radial Measurement Point: ECF                               COMMENT
Radial Offset to Rinex Ref. Point: 0.1897                   COMMENT
Antenna Height from Field Measurement: 0.3240 m             COMMENT
Additional Antenna Identification Info.:                    COMMENT
Turborogue and Ashtech Choke Ring                           COMMENT
Original XYZ: -2403176.6312 -4570592.1068 3733140.8762      COMMENT
New XYZ position is based on association with SCEC monument COMMENT
E1F4O0N5+0011. Position of that monument is believed to be  COMMENT
valid to within 1 m horizontally; vertical accuracy         COMMENT
should be no worse than 3-times this value.                 COMMENT
                                                            COMMENT
Revised Rinex header created by UCSD GPS archive for        COMMENT
GSAC on 20-Apr-2005 (2005:110) 16:32:21 GMT                 COMMENT
For assistance contact dagnew@ucsd.edu                      COMMENT
or anderson@python.ucsd.edu                                 COMMENT
                                                            COMMENT
GOO5 GO05_UNSTAMPED_DMA                                     MARKER NAME
JMS US GEOLOGICAL SURVEY                                    OBSERVER / AGENCY
04600 ASHTECH Z-XII3 CD00                                   REC # / TYPE / VERS
CR14244 DORNE-MARGOL. TYPE T                                ANT # / TYPE
 -2403195.0000 -4570564.0000  3733122.0000                  APPROX POSITION XYZ
        0.2279        0.0000        0.0000                  ANTENNA: DELTA H/E/N
     1     1     0                                          WAVELENGTH FACT L1/2
     5    C1    L1    L2    P1    P2                        # / TYPES OF OBSERV
    30                                                      INTERVAL
  2003     6     4     0     1    0.000000                  TIME OF FIRST OBS
  2003     6     4    23    59   30.000000                  TIME OF LAST OBS
                                                            END OF HEADER
 03  6  4  0  1  0.0000000  0  7G14G23G20G30G 1G25G11
  22890626.013    10265939.09349   8014748.48146  22890625.640    22890631.220
  24244636.134    16285401.11449  12794274.48045  24244635.517    24244644.979
  23077244.127   -10757498.57549  -7238411.90646  23077243.577    23077250.218
  24459696.018    -2511132.25949   -763111.73445  24459696.334    24459704.400
  24191402.611   -10055002.28949  -7813253.27245  24191402.201    24191412.101
  20595653.199   -29453594.42049 -22912527.79648  20595653.106    20595658.131
  21420413.611   -21882615.89249 -16612563.14147  21420413.406    21420418.347
 03  6  4  0  1 30.0000000  0  7G14G23G20G30G 1G25G11
  22904840.625    10340637.45049   8072954.95646  22904840.269    22904845.916
  24258838.797    16360035.77049  12852431.24045  24258838.296    24258847.601
  23060612.429   -10844898.78949  -7306515.89746  23060611.801    23060618.417
  24460167.302    -2508655.63049   -761181.88745  24460167.618    24460175.710
  24177257.203   -10129336.53049  -7871175.92145  24177256.843    24177266.598
  20596487.620   -29449209.48449 -22909110.95048  20596487.529    20596492.539
  21422341.796   -21872483.33649 -16604667.64347  21422341.582    21422346.537
 03  6  4  0  2  0.0000000  0  7G14G23G20G30G 1G25G11
  22919064.271    10415382.96149   8131198.17746  22919063.902    22919069.617
  24273078.121    16434863.93949  12910738.77145  24273077.818    24273087.048
  23043994.091   -10932228.44049  -7374564.91446  23043993.456    23044000.045
  24460737.416    -2505659.55149   -758847.28145  24460737.684    24460745.828
  24163138.205   -10203532.19449  -7928990.57845  24163137.838    24163147.499
  20597421.166   -29444303.49149 -22905288.08748  20597421.072    20597426.128
  21424374.738   -21861800.07049 -16596343.03047  21424374.524    21424379.481
 03  6  4  0  2 30.0000000  0  7G14G23G20G30G 1G25G11
  22933296.668    10490174.74549   8189477.44546  22933296.301    22933302.076
  24287354.345    16509885.31749  12969196.86645  24287353.995    24287363.076
  23027389.377   -11019486.15849  -7442557.88746  23027388.781    23027395.421
  24461406.445    -2502143.72549   -756107.66945  24461406.701    24461414.892
  24149045.577   -10277589.33349  -7986697.30145  24149045.004    24149054.664
  20598453.762   -29438877.08549 -22901059.70448  20598453.667    20598458.746
  21426512.338   -21850566.92649 -16587589.93947  21426512.114    21426517.097
 03  6  4  0  3  0.0000000  0  7G14G23G20G30G 1G25G11
  22947537.622    10565012.20549   8247792.29346  22947537.300    22947543.138
  24301667.256    16585099.53449  13027805.24145  24301666.916    24301675.834
  23010798.644   -11106670.45649  -7510493.64846  23010798.056    23010804.747
  24462174.527    -2498107.44349   -752962.51845  24462174.818    24462182.927
  24134979.204   -10351507.86849  -8044296.02245  24134978.662    24134988.338
  20599585.194   -29432931.20649 -22896426.54048  20599585.104    20599590.209
  21428754.450   -21838784.29449 -16578408.67447  21428754.242    21428759.241
 03  6  4  0  3 30.0000000  0  7G14G23G20G30G 1G25G11
  22961787.335    10639894.37549   8306141.99646  22961786.986    22961792.817
  24316016.767    16660506.54049  13086563.79545  24316016.472    24316025.551
  22994222.268   -11193779.67849  -7578370.90846  22994221.692    22994228.330
  24463041.789    -2493550.09949   -749411.34545  24463042.138    24463050.191
  24120939.221   -10425287.75249  -8101786.70445  24120938.781    24120948.224
  20600815.350   -29426466.55249 -22891389.13648  20600815.272    20600820.369
  21431101.049   -21826452.91749 -16568799.81247  21431100.858    21431105.858
 03  6  4  0  4  0.0000000  0  7G14G23G20G30G 1G25G11
  22976045.341    10714819.92749   8364525.50246  22976044.945    22976050.775
  24330402.880    16736105.32349  13145471.79845  24330402.553    24330411.625
  22977660.439   -11280812.87849  -7646188.92746  22977659.787    22977666.378
  24464008.229    -2488471.59649   -745454.05745  24464008.510    24464016.551
  24106925.513   -10498929.68649  -8159169.90445  24106925.043    24106934.469
  20602144.016   -29419484.35149 -22885948.44648  20602143.933    20602149.028
  21433551.844   -21813574.06249 -16558764.34547  21433551.611    21433556.621
 03  6  4  0  4 30.0000000  0  7G14G23G20G30G 1G25G11
  22990311.594    10789789.14549   8422943.02946  22990311.159    22990317.005
  24344825.662    16811896.73249  13204529.97745  24344825.328    24344834.374
  22961113.580   -11367767.29949  -7713945.55246  22961112.922    22961119.460
  24465074.098    -2482870.49149   -741089.56545  24465074.371    24465082.428
  24092938.326   -10572432.45649  -8216444.65545  24092937.767    24092947.204
  20603571.227   -29411984.35149 -22880104.27648  20603571.145    20603576.197
  21436106.887   -21800147.24349 -16548301.89947  21436106.662    21436111.656
 03  6  4  0  5  0.0000000  0  7G14G23G20G30G 1G25G11
  23004585.947    10864801.31749   8481394.02746  23004585.567    23004591.335
  24359284.886    16887880.42949  13263737.87545  24359284.508    24359293.790
  22944581.914   -11454641.51649  -7781639.69946  22944581.277    22944587.801
  24466239.529    -2476746.07849   -736317.29745  24466239.825    24466247.844
  24078977.550   -10645795.95949  -8273610.90245  24078977.041    24078986.538
  20605096.734   -29403967.62449 -22873857.46648  20605096.668    20605101.703
  21438766.009   -21786173.43649 -16537413.23047  21438765.801    21438770.764
 03  6  4  0  5 30.0000000  0  7G14G23G20G30G 1G25G11
  23018868.338    10939855.57549   8539877.83546  23018867.969    23018873.694
  24373780.765    16964055.76349  13323095.18245  24373780.333    24373789.641
  22928065.743   -11541433.95549  -7849270.09846  22928065.121    22928071.702
  24467504.580    -2470098.16049   -731137.10145  24467504.859    24467512.990
  24065043.253   -10719020.41949  -8330668.78945  24065042.848    24065052.254
  20606720.569   -29395434.34849 -22867208.14448  20606720.494    20606725.519
  21441529.119   -21771653.38549 -16526098.91447  21441528.898    21441533.842
 03  6  4  0  6  0.0000000  0  7G14G23G20G30G 1G25G11
  23033158.647    11014951.10549   8598393.80046  23033158.237    23033163.957
  24388313.002    17040422.48549  13382601.61145  24388312.552    24388321.914
  22911565.390   -11628143.29449  -7916835.76646  22911564.774    22911571.382
  24468869.290    -2462926.37749   -725548.71145  24468869.574    24468877.757
  24051135.415   -10792105.99549  -8387618.43945  24051135.126    24051144.417
  20608442.329   -29386386.31649 -22860157.71648  20608442.252    20608447.283
  21444395.917   -21756588.04249 -16514359.69547  21444395.734    21444400.644
 03  6  4  0  6 30.0000000  0  7G14G23G20G30G 1G25G11
  23047456.578    11090087.10349   8656941.28946  23047456.188    23047461.941
  24402881.583    17116980.23449  13442256.90145  24402881.117    24402890.520
  22895081.204   -11714767.59749  -7984335.15046  22895080.626    22895087.302
  24470333.824    -2455230.28349   -719551.74845  24470334.101    24470342.356
  24037254.003   -10865052.41549  -8444459.66445  24037253.676    24037263.133
  20610261.882   -29376824.50349 -22852706.93948  20610261.813    20610266.832
  21447366.436   -21740978.11849 -16502196.13547  21447366.227    21447371.098
 03  6  4  0  7  0.0000000  0  7G14G23G20G30G 1G25G11
  23061762.064    11165262.62249   8715519.57746  23061761.684    23061767.422
  24417486.408    17193728.36249  13502060.48545  24417485.916    24417495.375
  22878613.471   -11801305.69349  -8051767.37146  22878612.866    22878619.601
  24471898.143    -2447009.58549   -713146.03245  24471898.428    24471906.708
  24023399.105   -10937860.00349  -8501192.71645  24023398.717    24023408.139
  20612179.115   -29366749.36349 -22844856.16848  20612179.055    20612184.055
  21450440.376   -21724824.59649 -16489608.98847  21450440.149    21450445.015
 03  6  4  0  7 30.0000000  0  7G14G23G20G30G 1G25G11
  23076074.843    11240476.95149   8774128.10146  23076074.505    23076080.207
  24432127.406    17270666.53549  13562012.17946  24432126.910    24432136.413
  22862162.495   -11887755.71849  -8119130.96346  22862161.855    22862168.694
  24473562.442    -2438263.78849   -706331.12846  24473562.745    24473570.957
  24009570.597   -11010528.80449  -8557817.62545  24009570.191    24009579.580
  20614193.821   -29356162.14349 -22836606.36848  20614193.731    20614198.746
  21453617.532   -21708128.44849 -16476599.00947  21453617.330    21453622.212
 03  6  4  0  8  0.0000000  0  7G14G23G20G30G 1G25G11
  23090394.927    11315729.45849   8832766.37246  23090394.613    23090400.353
  24446804.469    17347794.66249  13622111.86145  24446803.980    24446813.507
  22845728.542   -11974116.20249  -8186424.78946  22845727.941    22845734.764
  24475326.711    -2428992.54849   -699106.77446  24475327.074    24475335.216
  23995768.533   -11083058.68049  -8614334.26045  23995768.146    23995777.501
  20616305.737   -29345063.68949 -22827958.20948  20616305.659    20616310.683
  21456897.809   -21690890.33849 -16463166.72947  21456897.619    21456902.512
 03  6  4  0  8 30.0000000  0  7G14G23G20G30G 1G25G11
  23104722.174    11391019.39749   8891433.81846  23104721.864    23104727.597
  24461517.613    17425112.18549  13682359.19945  24461517.124    24461526.592
  22829312.072   -12060385.32149  -8253647.40846  22829311.466    22829318.215
  24477190.998    -2419195.54049   -691472.75846  24477191.393    24477199.489
  23981992.881   -11155449.74749  -8670742.73045  23981992.462    23982001.740
  20618514.823   -29333454.68549 -22818912.21448  20618514.759    20618519.784
  21460281.056   -21673111.15049 -16449312.82847  21460280.867    21460285.810
 03  6  4  0  9  0.0000000  0  7G14G23G20G30G 1G25G11
  23119056.391    11466345.99549   8950129.82946  23119056.060    23119061.786
  24476266.677    17502618.65749  13742753.73145  24476266.213    24476275.722
  22812913.360   -12146561.54849  -8320797.65546  22812912.679    22812919.318
  24479155.350    -2408872.73949   -683429.02346  24479155.753    24479163.846
  23968243.610   -11227702.40349  -8727043.36545  23968243.221    23968252.315
  20620820.808   -29321336.60149 -22809469.54048  20620820.723    20620825.807
  21463767.015   -21654792.05149 -16435038.21747  21463766.834    21463771.829
 03  6  4  0  9 30.0000000  0  7G14G23G20G30G 1G25G11
  23133397.394    11541708.49849   9008853.80746  23133397.082    23133402.837
  24491051.679    17580313.72549  13803295.19845  24491051.188    24491060.761
  22796532.545   -12232643.26649  -8387874.25946  22796531.929    22796538.396
  24481219.823    -2398023.77349   -674975.28645  24481220.164    24481228.358
  23954520.758   -11299816.37549  -8783235.93145  23954520.291    23954529.278
  20623223.492   -29308710.06549 -22799630.67048  20623223.420    20623228.526
  21467355.592   -21635933.97349 -16420343.62347  21467355.409    21467360.446
 03  6  4  0 10  0.0000000  0  7G14G23G20G30G 1G25G11
  23147745.210    11617106.49049   9067605.44446  23147744.860    23147750.676
  24505872.466    17658197.38049  13863983.66745  24505871.968    24505881.569
  22780170.082   -12318628.65349  -8454875.79346  22780169.467    22780175.893
  24483384.549    -2386647.80949   -666110.90645  24483384.876    24483393.090
  23940824.296   -11371791.41149  -8839320.22545  23940823.803    23940832.708
  20625722.860   -29295575.77649 -22789396.14348  20625722.779    20625727.908
  21471046.604   -21616537.45449 -16405229.46547  21471046.414    21471051.505
 03  6  4  0 10 30.0000000  0  6G14G23G20G 1G25G11
  23162099.602    11692538.91849   9126383.92446  23162099.213    23162105.056
  24520729.016    17736268.77649  13924818.43045  24520728.603    24520738.162
  22763826.209   -12404516.13949  -8521801.04746  22763825.591    22763831.958
  23927154.136   -11443628.01149  -8895296.66345  23927153.657    23927162.619
  20628318.533   -29281935.26149 -22778767.16048  20628318.462    20628323.571
  21474839.819   -21596603.96049 -16389696.88447  21474839.628    21474844.751
 03  6  4  0 11  0.0000000  0  6G14G23G20G 1G25G11
  23176460.424    11768005.58049   9185189.07146  23176460.021    23176465.885
  24535621.314    17814527.86949  13985799.41645  24535620.873    24535630.554
  22747501.320   -12490303.89749  -8588648.58646  22747500.693    22747507.084
  23913510.319   -11515325.80949  -8951164.94445  23913509.823    23913518.835
  20631010.481   -29267789.13649 -22767744.19148  20631010.399    20631015.469
  21478735.142   -21576134.02549 -16373746.29847  21478734.951    21478740.050
 03  6  4  0 11 30.0000000  0  6G14G23G20G 1G25G11
  23190827.705    11843506.08649   9244020.60046  23190827.294    23190833.176
  24550549.339    17892974.43349  14046926.47145  24550548.869    24550558.612
  22731195.798   -12575989.65349  -8655416.64646  22731195.171    22731201.549
  23899893.010   -11586884.51549  -9006924.83545  23899892.539    23899901.559
  20633798.423   -29253138.31349 -22756327.95748  20633798.319    20633803.403
  21482732.299   -21555128.76249 -16357378.57347  21482732.124    21482737.208
 03  6  4  0 12  0.0000000  0  6G14G23G20G 1G25G11
  23205201.235    11919039.34149   9302877.63246  23205200.864    23205206.749
  24565512.762    17971607.49149  14108198.86845  24565512.280    24565522.093
  22714909.907   -12661572.34449  -8722104.38946  22714909.266    22714915.672
  23886302.081   -11658304.62149  -9062576.73845  23886301.598    23886310.686
  20636682.117   -29237984.16249 -22744519.51548  20636682.042    20636687.130
  21486831.163   -21533589.17149 -16340594.48547  21486830.976    21486836.021
 03  6  4  0 12 30.0000000  0  6G14G23G20G 1G25G11
  23219580.833    11994604.52749   9361759.56646  23219580.469    23219586.400
  24580511.689    18050426.77749  14169616.41845  24580511.176    24580520.994
  22698643.930   -12747050.35949  -8788710.57146  22698643.296    22698649.684
  23872737.415   -11729586.29449  -9118120.77145  23872737.048    23872746.142
  20639661.438   -29222327.81649 -22732319.75348  20639661.370    20639666.441
  21491031.517   -21511516.41849 -16323394.95047  21491031.329    21491036.333
 03  6  4  0 13  0.0000000  0  6G14G23G20G 1G25G11
  23233966.477    12070201.33749   9420666.15146  23233966.120    23233971.963
  24595545.975    18129432.03649  14231178.85845  24595545.438    24595555.284
  22682398.250   -12832421.59449  -8855233.55246  22682397.633    22682403.996
  23859199.242   -11800729.26649  -9173556.71745  23859198.891    23859207.847
  20642736.152   -29206169.91749 -22719729.17248  20642736.091    20642741.151
  21495333.076   -21488911.69649 -16305780.89347  21495332.880    21495337.840
 03  6  4  0 13 30.0000000  0  5G14G20G 1G25G11
  23248357.830    12145828.33549   9479596.24646  23248357.427    23248363.356
  22666173.047   -12917685.20649  -8921672.66346  22666172.446    22666178.794
  23845687.246   -11871734.49249  -9228885.33245  23845686.935    23845695.793
  20645905.914   -29189512.75249 -22706749.54748  20645905.857    20645910.896
  21499735.570   -21465776.66049 -16287753.60547  21499735.363    21499740.304
 03  6  4  0 14  0.0000000  0  5G14G20G 1G25G11
  23262754.885    12221485.76949   9538550.04746  23262754.570    23262760.534
  22649968.821   -13002838.48549  -8988025.79546  22649968.194    22649974.600
                 -11942600.90649  -9284105.79745                  23832210.256
  20649170.617   -29172356.67249 -22693381.16348  20649170.547    20649175.607
  21504238.873   -21442111.70949 -16269313.39447  21504238.695    21504243.616
 03  6  4  0 14 30.0000000  0  5G14G20G 1G25G11
  23277157.773    12297173.22149   9597527.24646  23277157.420    23277163.432
  22633785.957   -13087879.43049  -9054291.39346  22633785.367    22633791.810
  23818742.666   -12013328.50949  -9339218.08445  23818742.287    23818751.153
  20652530.151   -29154702.10749 -22679624.35448  20652530.081    20652535.138
  21508842.822   -21417917.75249 -16250460.97347  21508842.648    21508847.604
 03  6  4  0 15  0.0000000  0  5G14G20G 1G25G11
  23291566.162    12372889.60149   9656526.97046  23291565.795    23291571.769
  22617624.776   -13172806.82749  -9120468.52446  22617624.165    22617630.592
  23805309.937   -12083917.80749  -9394222.60545  23805309.487    23805318.358
  20655984.203   -29136550.95049 -22665480.58348  20655984.130    20655989.161
  21513547.171   -21393196.42049 -16231197.60547  21513546.961    21513551.910
 03  6  4  0 15 30.0000000  0  5G14G20G 1G25G11
  23305980.031    12448634.83949   9715549.21646  23305979.656    23305985.552
  22601485.721   -13257618.49749  -9186555.46446  22601485.068    22601491.451
  23791903.585   -12154368.31249  -9449118.97645  23791903.089    23791911.990
  20659532.594   -29117904.08649 -22650950.55448  20659532.503    20659537.570
  21518351.698   -21367948.34549 -16211523.79247  21518351.495    21518356.471
 03  6  4  0 16  0.0000000  0  5G14G20G 1G25G11
  23320399.234    12524407.93249   9774593.16946  23320398.883    23320404.678
  22585368.881   -13342312.85949  -9252551.00446  22585368.285    22585374.638
  23778523.502   -12224680.50449  -9503907.58545  23778522.971    23778531.913
  20663174.962   -29098763.18649 -22636035.55648  20663174.872    20663179.952
  21523256.216   -21342175.01749 -16191440.69247  21523256.020    21523261.019
 03  6  4  0 16 30.0000000  0  5G14G20G 1G25G11
  23334823.600    12600208.11349   9833658.19846  23334823.168    23334829.013
  22569274.689   -13426888.29449  -9318453.86846  22569274.077    22569280.419
  23765169.684   -12294854.74049  -9558588.69445  23765169.156    23765178.012
  20666911.083   -29079129.49049 -22620736.56548  20666911.005    20666916.104
  21528260.319   -21315878.27249 -16170949.73247  21528260.126    21528265.135
 03  6  4  0 17  0.0000000  0  5G14G20G 1G25G11
  23349252.845    12676034.07349   9892743.31346  23349252.448    23349258.348
  22553203.242   -13511343.88449  -9384263.36846  22553202.623    22553208.951
  23751841.939   -12364891.81049  -9613162.91745  23751841.383    23751850.325
  20670740.619   -29059005.14649 -22605055.24848  20670740.544    20670745.630
  21533363.732   -21289059.86449 -16150052.28447  21533363.523    21533368.560
 03  6  4  0 17 30.0000000  0  5G14G20G 1G25G11
  23363687.048    12751886.06449   9951848.71546  23363686.606    23363692.551
  22537155.102   -13595676.83949  -9449977.29846  22537154.523    22537160.854
  23738540.476   -12434791.03149  -9667629.72245  23738539.902    23738548.769
  20674663.515   -29038390.15549 -22588991.61048  20674663.438    20674668.498
  21538566.327   -21261720.09849 -16128748.58147  21538566.101    21538571.147
 03  6  4  0 18  0.0000000  0  5G14G20G 1G25G11
  23378126.120    12827763.61049  10010974.02146  23378125.700    23378131.677
  22521130.831   -13679885.10949  -9515594.07746  22521130.226    22521136.492
  23725265.262   -12504552.21349  -9721988.97345  23725264.671    23725273.531
  20678679.588   -29017285.57049 -22572546.46848  20678679.508    20678684.561
  21543867.958   -21233860.10549 -16107039.50547  21543867.731    21543872.765
 03  6  4  0 18 30.0000000  0  5G14G20G 1G25G11
  23392570.008    12903666.60549  10070119.17546  23392569.651    23392575.479
  22505130.539   -13763966.86449  -9581112.27146  22505129.943    22505136.150
  23712016.333   -12574175.20049  -9776240.52845  23712015.833    23712024.599
  20682788.533   -28995692.81449 -22555720.93448  20682788.444    20682793.501
  21549268.295   -21205481.34149 -16084926.19347  21549268.072    21549273.087
 03  6  4  0 19  0.0000000  0  5G14G20G 1G25G11
  23407018.529    12979594.05349  10129283.37546  23407018.188    23407024.021
  22489154.635   -13847920.59149  -9646530.69646  22489154.033    22489160.240
  23698793.600   -12643660.64449  -9830384.92245  23698793.127    23698801.808
  20686990.121   -28973613.28249 -22538516.09648  20686990.035    20686995.097
  21554767.033   -21176585.40149 -16062409.88847  21554766.795    21554771.808
 03  6  4  0 19 30.0000000  0  6G14G20G16G 1G25G11
  23421471.539    13055544.85249  10188465.77346  23421471.153    23421477.063
  22473203.318   -13931744.83949  -9711848.24746  22473202.696    22473208.901
  24670685.809    -5245952.06149  -4054652.23145  24670685.511    24670696.422
  23685597.002   -12713008.88349  -9884422.39445  23685596.473    23685605.179
  20691283.959   -28951049.09849 -22520933.60648  20691283.862    20691288.916
  21560363.835   -21147173.92449 -16039491.86747  21560363.621    21560368.636
 03  6  4  0 20  0.0000000  0  6G14G20G16G 1G25G11
  23435928.691    13131517.78049  10247665.40146  23435928.264    23435934.315
  22457276.885   -14015438.59549  -9777064.09946  22457276.241    22457282.446
  24653631.864    -5335569.60349  -4124483.75845  24653631.517    24653642.464
  23672426.315   -12782220.89849  -9938353.72545  23672425.801    23672434.541
  20695669.598   -28928002.23149 -22502974.99848  20695669.516    20695674.583
  21566058.351   -21117249.28349 -16016173.97947  21566058.099    21566063.106
 03  6  4  0 20 30.0000000  0  6G14G20G16G 1G25G11
  23450390.391    13207514.51149  10306883.57246  23450390.002    23450396.075
  22441375.961   -14098997.80449  -9842175.11446  22441375.349    22441381.627
  24636565.769    -5425251.29449  -4194365.37945  24636565.371    24636576.253
  23659282.005   -12851294.54149  -9992177.22945  23659281.450    23659290.120
  20700147.275   -28904471.81749 -22484639.60148  20700147.186    20700152.286
  21571850.612   -21086810.56849 -15992455.51347  21571850.369    21571855.383
 03  6  4  0 21  0.0000000  0  6G14G20G16G 1G25G11
  23464856.513    13283534.27249  10366119.70046  23464856.168    23464862.238
  22425500.994   -14182420.99449  -9907180.14246  22425500.379    22425506.681
  24619487.869    -5514994.88149  -4264295.10045  24619487.604    24619498.412
  23646163.806   -12920230.33949 -10045893.31845  23646163.382    23646171.967
  20704716.679   -28880459.40149 -22465928.62448  20704716.603    20704721.672
  21577740.369   -21055859.75849 -15968338.01547  21577740.141    21577745.151
 03  6  4  0 21 30.0000000  0  6G14G20G16G 1G25G11
  23479326.784    13359575.96649  10425372.93445  23479326.480    23479332.481
  22409652.302   -14265706.51849  -9972077.89946  22409651.661    22409657.917
  24602398.708    -5604797.68549  -4334271.04045  24602398.425    24602409.241
  23633071.742   -12989028.66449 -10099502.29445  23633071.315    23633079.988
  20709377.448   -28855966.91749 -22446843.56848  20709377.366    20709382.411
  21583727.256   -21024398.46249 -15943822.74047  21583727.037    21583732.048
 03  6  4  0 22  0.0000000  0  6G14G20G16G 1G25G11
  23493801.192    13435639.21849  10484642.97745  23493800.871    23493806.866
  22393830.144   -14348852.44149 -10036866.87946  22393829.505    22393835.706
  24585298.680    -5694657.17649  -4404291.08945  24585298.343    24585309.346
  23620005.802   -13057689.79549 -10153004.38245  23620005.401    23620014.030
  20714129.370   -28830995.46749 -22427385.28548  20714129.297    20714134.318
  21589810.971   -20992428.30649 -15918910.95147  21589810.785    21589815.794
 03  6  4  0 22 30.0000000  0  6G14G20G16G 1G25G11
  23508279.610    13511723.31849  10543929.26445  23508279.217    23508285.277
  22378034.874   -14431857.16449 -10101545.83246  22378034.249    22378040.361
  24568188.435    -5784570.50449  -4474353.18845  24568188.118    24568199.074
  23606966.007   -13126213.83749 -10206399.62245  23606965.658    23606974.288
  20718972.099   -28805546.80149 -22407555.14848  20718972.004    20718977.017
  21595991.255   -20959950.64649 -15893603.69447  21595991.086    21595996.119
 03  6  4  0 23  0.0000000  0  6G14G20G16G 1G25G11
  23522761.816    13587827.59549  10603231.24745  23522761.391    23522767.532
  22362266.766   -14514719.02149 -10166113.45546  22362266.086    22362272.194
  24551068.569    -5874535.25749  -4544455.32745  24551068.311    24551079.039
  23593952.190   -13194601.19249 -10259688.35745  23593951.837    23593960.444
  20723905.290   -28779622.65949 -22387354.51248  20723905.189    20723910.182
  21602267.664   -20926967.75849 -15867902.75547  21602267.521    21602272.587
 03  6  4  0 23 30.0000000  0  6G14G20G16G 1G25G11
  23537247.817    13663951.90349  10662548.82045  23537247.402    23537253.547
  22346526.256   -14597435.73549 -10230567.99146  22346525.602    22346531.646
  24533939.251    -5964548.48949  -4614595.22445  24533938.858    24533949.748
  23580964.487   -13262851.52349 -10312870.31945  23580964.159    23580972.686
  20728928.738   -28753224.21249 -22366784.29148  20728928.661    20728933.634
  21608640.081   -20893480.50749 -15841808.81547  21608639.920    21608645.025
 03  6  4  0 24  0.0000000  0  6G14G20G16G 1G25G11
  23551737.447    13740095.40449  10721881.35445  23551737.041    23551743.203
  22330813.689   -14680005.76649 -10294908.22246  22330813.030    22330819.050
  24516801.367    -6054607.72349  -4684770.93145  24516800.922    24516811.760
  23568002.826   -13330965.61049 -10365946.10145  23568002.451    23568010.985
  20734042.121   -28726353.25849 -22345845.88148  20734042.031    20734047.008
  21615108.101   -20859490.86349 -15815323.39947  21615107.912    21615113.047
 03  6  4  0 24 30.0000000  0  6G14G20G16G 1G25G11
  23566230.653    13816257.48149  10781228.38645  23566230.248    23566236.362
  22315129.325   -14762427.31349 -10359132.74946  22315128.708    22315134.686
  24499655.250    -6144710.26449  -4754980.43745  24499654.903    24499665.543
  23555067.033   -13398943.51849 -10418915.80345  23555066.637    23555075.050
  20739245.089   -28699011.27549 -22324540.42948  20739245.009    20739249.969
  21621671.386   -20825000.38149 -15788447.71447  21621671.218    21621676.385
 03  6  4  0 25  0.0000000  0  6G14G20G16G 1G25G11
  23580727.308    13892437.93049  10840589.71445  23580726.913    23580732.998
  22299473.715   -14844698.10249 -10423239.81146  22299473.046    22299479.003
  24482501.547    -6234853.02749  -4825221.30545  24482501.318    24482511.606
  23542157.061   -13466785.17849 -10471779.33245  23542156.764    23542165.083
  20744537.522   -28671199.38749 -22302868.82648  20744537.426    20744542.398
  21628329.761   -20790010.57649 -15761182.94847  21628329.589    21628334.763
 03  6  4  0 25 30.0000000  0  6G14G20G16G 1G25G11
  23595227.410    13968636.44449  10899965.13945  23595227.034    23595233.058
  22283847.076   -14926816.14149 -10487227.84746  22283846.424    22283852.406
  24465340.791    -6325032.82249  -4895490.98445  24465340.588    24465350.633
  23529273.099   -13534490.40349 -10524536.55745  23529272.784    23529281.076
  20749919.149   -28642918.63349 -22280831.87248  20749919.060    20749924.045
  21635082.945   -20754522.61849 -15733530.01347  21635082.754    21635087.909
 03  6  4  0 26  0.0000000  0  6G14G20G16G 1G25G11
  23609730.904    14044852.51149  10959354.24545  23609730.534    23609736.567
  22268249.841   -15008779.73949 -10551095.53946  22268249.222    22268255.195
  24448173.385    -6415247.17149  -4965787.52745  24448173.072    24448183.310
  23516415.011   -13602059.55949 -10577187.74045  23516414.685    23516423.005
  20755389.619   -28614171.08749 -22258431.18348  20755389.533    20755394.531
  21641930.485   -20718538.69449 -15705490.61547  21641930.274    21641935.440
 03  6  4  0 26 30.0000000  0  6G14G20G16G 1G25G11
  23624237.614    14121085.85949  11018756.82045  23624237.271    23624243.276
  22252682.461   -15090586.84149 -10614841.28346  22252681.839    22252687.782
  24430999.894    -6505493.18449  -5036108.83545  24430999.682    24431009.891
  23503582.851   -13669492.63649 -10629732.88945  23503582.538    23503590.900
  20760948.620   -28584958.21349 -22235667.90148  20760948.554    20760953.554
  21648872.132   -20682059.99949 -15677065.67347  21648871.948    21648877.113
 03  6  4  0 27  0.0000000  0  6G14G20G16G 1G25G11
  23638747.506    14197335.98249  11078172.44545  23638747.146    23638753.266
  22237145.317   -15172235.20849 -10678463.34446  22237144.685    22237150.582
  24413820.920    -6595767.73349  -5106452.38345  24413820.584    24413830.781
  23490776.572   -13736789.77149 -10682172.11145  23490776.225    23490784.609
  20766595.913   -28555281.65949 -22212543.31248  20766595.835    20766600.810
  21655907.686   -20645088.15649 -15648256.47247  21655907.467    21655912.626
 03  6  4  0 27 30.0000000  0  6G14G20G16G 1G25G11
  23653260.495    14273602.12949  11137600.56745  23653260.108    23653266.238
  22221638.606   -15253723.36649 -10741960.55946  22221637.960    22221643.850
  24396637.130    -6686068.82949  -5176816.57445  24396636.681    24396646.782
  23477996.060   -13803951.67549 -10734505.95645  23477995.652    23478004.027
  20772331.072   -28525143.08949 -22189058.70648  20772331.005    20772335.984
  21663036.605   -20607625.72149 -15619064.98747  21663036.362    21663041.515
 03  6  4  0 28  0.0000000  0  6G14G20G16G 1G25G11
  23667776.510    14349884.12549  11197041.01845  23667776.130    23667782.279
  22206162.817   -15335048.99349 -10805331.13646  22206162.164    22206168.064
  24379448.904    -6776393.17049  -5247198.85345  24379448.548    24379458.396
  23465241.298   -13870978.19049 -10786734.31946  23465240.862    23465249.177
  20778153.962   -28494543.50549 -22165214.87648  20778153.893    20778158.893
  21670258.620   -20569674.06049 -15589492.28647  21670258.372    21670263.503
 03  6  4  0 28 30.0000000  0  6G14G20G16G 1G25G11
  23682295.429    14426181.50949  11256493.51145  23682295.089    23682301.277
  22190718.241   -15416210.31749 -10868573.67947  22190717.596    22190723.509
  24362256.737    -6866737.57549  -5317596.86545  24362256.432    24362266.288
  23452512.269   -13937869.33549 -10838857.19546  23452511.874    23452520.051
  20784064.212   -28463484.86549 -22141013.33448  20784064.142    20784069.137
  21677573.456   -20531234.36649 -15559539.29847  21677573.228    21677578.361
 03  6  4  0 29  0.0000000  0  6G14G20G16G 1G25G11
  23696817.257    14502494.00849  11315957.76145  23696816.935    23696823.130
  22175305.400   -15497205.16049 -10931686.50647  22175304.766    22175310.657
  24345061.185    -6957099.37249  -5388008.36645  24345060.975    24345070.554
  23439809.015   -14004625.11149 -10890874.59746  23439808.619    23439816.758
  20790061.584   -28431968.55149 -22116455.17148  20790061.510    20790066.523
  21684980.814   -20492308.56949 -15529207.53047  21684980.580    21684985.725
 03  6  4  0 29 30.0000000  0  6G14G20G16G 1G25G11
  23711341.928    14578821.45349  11375433.62745  23711341.570    23711347.835
  22159924.700   -15578031.19749 -10994667.79447  22159924.074    22159929.953
  24327863.060    -7047475.45949  -5458430.99745  24327862.882    24327872.282
  23427131.431   -14071245.43649 -10942786.45046  23427131.055    23427139.280
  20796145.720   -28399996.13849 -22091541.59848  20796145.658    20796150.653
  21692480.374   -20452898.27349 -15498498.23147  21692480.138    21692485.250
 03  6  4  0 30  0.0000000  0  6G14G20G16G 1G25G11
  23725869.429    14655163.60249  11434920.96345  23725869.163    23725875.380
  22144576.451   -15658686.51249 -11057516.05447  22144575.829    22144581.725
  24310662.602    -7137862.98649  -5528862.58545  24310662.409    24310671.926
  23414479.615   -14137730.39649 -10994592.82146  23414479.284    23414487.509
  20802316.464   -28367568.95749 -22066273.66248  20802316.386    20802321.364
  21700071.763   -20413005.17249 -15467412.72047  21700071.543    21700076.689
 03  6  4  0 30 30.0000000  0  6G14G20G16G 1G25G11
  23740399.280    14731517.91749  11494417.78045  23740398.974    23740405.229
  22129260.754   -15739170.96149 -11120231.16547  22129260.152    22129266.039
  24293460.217    -7228260.83549  -5599302.23345  24293460.129    24293469.500
  23401853.200   -14204082.10249 -11046295.35546  23401852.895    23401861.174
  20808573.046   -28334690.49649 -22040654.08348  20808572.965    20808577.915
  21707754.271   -20372633.14949 -15435954.02247  21707754.055    21707759.240
 03  6  4  0 31  0.0000000  0  6G14G20G16G 1G25G11
  23754931.779    14807885.91749  11553925.25946  23754931.433    23754937.620
  22113978.353   -15819480.48649 -11182809.97847  22113977.722    22113983.597
  24276256.772    -7318664.37149  -5669746.28845  24276256.547    24276265.889
  23389252.479   -14270298.93749 -11097892.80846  23389252.158    23389260.476
  20814915.478   -28301360.75549 -22014682.85148  20814915.384    20814920.315
  21715528.030   -20331781.87749 -15404121.89047  21715527.803    21715533.034
 03  6  4  0 31 30.0000000  0  6G14G20G16G 1G25G11
  23769466.801    14884267.30249  11613443.17145  23769466.401    23769472.562
  22098729.554   -15899613.22349 -11245251.03047  22098728.938    22098734.802
  24259052.864    -7409070.75149  -5740192.59345  24259052.677    24259061.863
  23376677.496   -14336381.06549 -11149385.28446  23376677.134    23376685.382
  20821343.439   -28267581.55149 -21988361.39748  20821343.354    20821348.300
  21723392.588   -20290453.44349 -15371917.93547  21723392.368    21723397.593
 03  6  4  0 32  0.0000000  0  6G14G20G16G 1G25G11
  23784004.140    14960661.19949  11672970.84345  23784003.736    23784009.767
  22083514.659   -15979567.77549 -11307553.23647  22083514.041    22083519.887
  24241848.962    -7499477.46549  -5810639.16045  24241848.987    24241857.869
  23364127.936   -14402329.11249 -11200773.27846  23364127.592    23364135.764
  20827856.584   -28233354.65449 -21961691.08748  20827856.505    20827861.438
  21731347.544   -20248650.01049 -15339343.85447  21731347.311    21731352.495
 03  6  4  0 32 30.0000000  0  6G14G20G16G 1G25G11
  23798543.871    15037067.96649  11732508.56345  23798543.500    23798549.540
  22068334.208   -16059341.33849 -11369714.40947  22068333.591    22068339.429
  24224645.422    -7589881.24849  -5881083.43745  24224645.279    24224654.413
  23351603.938   -14468142.83149 -11252056.60646  23351603.551    23351611.718
  20834454.686   -28198681.30049 -21934672.88748  20834454.597    20834459.551
  21739392.608   -20206372.98949 -15306400.74447  21739392.382    21739397.561
 03  6  4  0 33  0.0000000  0  6G14G20G16G 1G25G11
  23813085.933    15113487.19449  11792055.95045  23813085.584    23813091.595
  22053188.561   -16138931.75449 -11431732.86947  22053187.966    22053193.819
  24207443.167    -7680278.76949  -5951522.85145  24207442.836    24207452.141
  23339105.429   -14533822.07949 -11303235.15446  23339105.064    23339113.261
  20841137.513   -28163562.90049 -21907307.89748  20841137.441    20841142.388
  21747527.438   -20163624.20049 -15273090.02647  21747527.240    21747532.392
 03  6  4  0 33 30.0000000  0  6G14G20G16G 1G25G11
  23827630.237    15189918.34249  11851612.64545  23827629.935    23827636.034
  22038078.182   -16218337.32849 -11493607.30247  22038077.587    22038083.392
  24190242.537    -7770667.51149  -6021955.41845  24190242.174    24190251.641
  23326632.492   -14599367.12749 -11354309.13746  23326632.119    23326640.385
  20847904.618   -28128001.45249 -21879597.67948  20847904.526    20847909.513
  21755751.688   -20120405.72049 -15239413.31547  21755751.446    21755756.603
 03  6  4  0 34  0.0000000  0  6G14G20G16G 1G25G11
  23842176.726    15266361.13049  11911178.40845  23842176.454    23842182.660
  22023003.355   -16297555.97549 -11555336.07347  22023002.743    22023008.538
  24173044.005    -7861044.76049  -6092379.04945  24173043.670    24173053.106
  23314185.030   -14664778.26049 -11405278.76746  23314184.666    23314192.957
  20854755.675   -28091998.96249 -21851543.78848  20854755.583    20854760.572
  21764064.893   -20076719.51449 -15205372.14047  21764064.671    21764069.814
 03  6  4  0 34 30.0000000  0  6G14G20G16G 1G25G11
  23856725.477    15342815.21049  11970752.94745  23856725.144    23856731.271
  22007964.463   -16376585.65149 -11616917.59047  22007963.844    22007969.661
  24155848.340    -7951407.36449  -6162791.30645  24155848.065    24155857.475
  23301763.028   -14730055.72649 -11456144.23146  23301762.725    23301771.010
  20861690.375   -28055556.97549 -21823147.43648  20861690.272    20861695.255
  21772466.699   -20032567.60049 -15170968.08047  21772466.495    21772471.665
 03  6  4  0 35  0.0000000  0  6G14G20G16G 1G25G11
  23871276.196    15419279.63949  12030335.56545  23871275.949    23871282.019
  21992961.899   -16455424.88849 -11678350.71147  21992961.240    21992967.035
  24138656.040    -8041752.90649  -6233190.23745  24138655.767    24138665.107
  23289366.424   -14795200.43649 -11506906.24846  23289366.067    23289374.312
  20868708.219   -28018677.87749 -21794410.47348  20868708.124    20868713.093
  21780956.687   -19987952.38649 -15136203.00147  21780956.488    21780961.666
 03  6  4  0 35 30.0000000  0  6G14G20G16G 1G25G11
  23885828.879    15495754.13549  12089926.01945  23885828.564    23885834.727
  21977995.896   -16534071.51149 -11739633.75047  21977995.231    21978001.020
  24121467.637    -8132078.39849  -6303573.54845  24121467.276    24121476.493
  23276994.987   -14860212.40549 -11557564.82846  23276994.602    23277002.884
  20875808.943   -27981363.16049 -21765334.06648  20875808.838    20875813.815
  21789534.466   -19942875.91849 -15101078.50947  21789534.279    21789539.450
 03  6  4  0 36  0.0000000  0  6G14G20G16G 1G25G11
  23900383.510    15572238.71349  12149524.33045  23900383.139    23900389.368
  21963066.915   -16612523.40949 -11800765.05247  21963066.306    21963072.044
  24104283.550    -8222380.83949  -6373938.95545  24104283.102    24104292.231
  23264648.908   -14925091.44649 -11608119.83046  23264648.489    23264656.700
  20882992.289   -27943614.45849 -21735919.49448  20882992.205    20882997.132
  21798199.748   -19897339.73149 -15065595.79747  21798199.561    21798204.727
 03  6  4  0 36 30.0000000  0  6G14G20G16G 1G25G11
  23914939.950    15648733.20449  12209130.36445  23914939.601    23914945.938
  21948175.621   -16690777.82849 -11861742.48047  21948174.965    21948180.687
  24087104.392    -8312656.80249  -6444283.66845  24087104.095    24087113.011
  23252328.036   -14989837.35549 -11658571.09746  23252327.649    23252335.824
  20890257.920   -27905433.45749 -21706168.06948  20890257.835    20890262.754
  21806952.158   -19851345.65049 -15029756.28247  21806951.971    21806957.132
 03  6  4  0 37  0.0000000  0  6G14G20G16G 1G25G11
  23929498.224    15725237.07949  12268743.70245  23929497.803    23929504.186
  21933322.160   -16768833.19149 -11922564.79547  21933321.478    21933327.183
  24069930.881    -8402903.85149  -6514605.85545  24069930.614    24069939.198
  23240032.442   -15054450.66549 -11708919.03146  23240032.131    23240040.150
  20897605.420   -27866821.99649 -21676081.22048  20897605.329    20897610.253
  21815791.225   -19804896.14649 -14993561.90247  21815791.022    21815796.222
 03  6  4  0 37 30.0000000  0  7G14G20G 2G16G 1G25G11
  23944057.995    15801748.91849  12328363.25045  23944057.564    23944063.911
  21918506.722   -16846688.47049 -11983231.19947  21918506.054    21918511.744
  24466467.012    -7245467.76349  -5614160.28045  24466466.389    24466480.012
  24052763.165    -8493120.34649  -6584904.29845  24052762.839    24052771.470
  23227761.900   -15118932.73849 -11759164.71146  23227761.585    23227769.554
  20905034.310   -27827782.88949 -21645661.13648  20905034.236    20905039.159
  21824716.335   -19757994.41749 -14957015.13447  21824716.123    21824721.339
 03  6  4  0 38  0.0000000  0  7G14G20G 2G16G 1G25G11
  23958618.784    15878265.98849  12387986.86745  23958618.273    23958624.641
  21903729.282   -16924344.14849 -12043742.07147  21903728.644    21903734.345
  24450262.971    -7330618.92449  -5680511.44945  24450262.346    24450275.859
  24035601.264    -8583305.45049  -6655178.20345  24035601.040    24035609.536
  23215515.808   -15183286.28049 -11809310.23046  23215515.453    23215523.380
  20912543.791   -27788320.28149 -21614911.05748  20912543.697    20912548.644
  21833726.649   -19710644.95849 -14920119.49047  21833726.456    21833731.667
 03  6  4  0 38 30.0000000  0  7G14G20G 2G16G 1G25G11
  23973181.579    15954794.13749  12447619.13145  23973181.032    23973187.566
  21888991.419   -17001791.77249 -12104090.83247  21888990.797    21888996.502
  24434050.404    -7415814.48149  -5746897.12145  24434049.690    24434063.044
  24018447.123    -8673449.96349  -6725420.50145  24018446.896    24018455.347
  23203295.314   -15247505.14449 -11859350.81246  23203294.904    23203302.822
  20920134.587   -27748430.29849 -21583827.95448  20920134.502    20920139.454
  21842822.984   -19662843.58249 -14882871.69947  21842822.759    21842827.986
 03  6  4  0 39  0.0000000  0  7G14G20G 2G16G 1G25G11
  23987746.304    16031331.89649  12507258.88945  23987745.809    23987752.451
  21874293.401   -17079030.26149 -12164276.62747  21874292.782    21874298.477
  24417829.798    -7501053.03749  -5813316.39645  24417829.049    24417842.275
  24001301.209    -8763552.01949  -6795629.71445  24001300.865    24001309.281
  23191100.149   -15311590.79449 -11909287.57646  23191099.726    23191107.610
  20927806.229   -27708115.56249 -21552413.87748  20927806.131    20927811.073
  21852004.711   -19614593.45649 -14845274.23347  21852004.492    21852009.716
 03  6  4  0 39 30.0000000  0  7G14G20G 2G16G 1G25G11
  24002312.710    16107878.36249  12566905.44845  24002312.226    24002318.833
  21859635.450   -17156058.51149 -12224298.60347  21859634.770    21859640.431
  24401601.173    -7586332.96449  -5879767.82645  24401600.455    24401613.502
  23984163.714    -8853609.57449  -6865804.24345  23984163.289    23984171.791
  23178930.154   -15375544.17549 -11959121.30346  23178929.741    23178937.583
  20935558.190   -27667378.77649 -21520670.92848  20935558.085    20935563.001
  21861271.246   -19565897.44849 -14807329.32647  21861271.067    21861276.299
 03  6  4  0 40  0.0000000  0  7G14G20G 2G16G 1G25G11
  24016880.693    16184433.26949  12626558.56645  24016880.250    24016886.897
  21845017.810   -17232874.41749 -12284155.10747  21845017.169    21845022.823
  24385365.199    -7671651.84649  -5946249.65845  24385364.325    24385377.455
  23967035.237    -8943619.50449  -6935941.64945  23967034.967    23967043.453
  23166785.180   -15439365.64349 -12008852.23046  23166784.858    23166792.684
  20943390.101   -27626221.86249 -21488600.60448  20943390.013    20943394.928
  21870622.260   -19516757.78549 -14769038.71347  21870622.074    21870627.317
 03  6  4  0 40 30.0000000  0  7G14G20G 2G16G 1G25G11
  24031450.142    16260995.95449  12686217.75645  24031449.593    24031456.347
  21830440.997   -17309475.95549 -12343844.57547  21830440.381    21830445.996
  24369122.272    -7757007.56649  -6012760.25945  24369121.279    24369134.336
  23949916.326    -9033579.31649  -7006040.06045  23949916.028    23949924.315
  23154665.331   -15503055.67149 -12058480.73646  23154664.959    23154672.769
  20951301.583   -27584646.76849 -21456204.43148  20951301.506    20951306.412
  21880057.207   -19467177.12949 -14730404.47047  21880057.002    21880062.259
 03  6  4  0 41  0.0000000  0  7G14G20G 2G16G 1G25G11
  24046021.003    16337565.90049  12745882.61445  24046020.457    24046027.274
  21815905.325   -17385861.46249 -12403365.71047  21815904.704    21815910.289
  24352872.730    -7842397.92549  -6079297.73945  24352871.899    24352884.506
  23932807.467    -9123486.29349  -7076097.22645  23932807.123    23932815.585
  23142570.435   -15566614.55749 -12108007.05246  23142570.062    23142577.812
  20959292.241   -27542655.48749 -21423483.95648  20959292.174    20959297.114
  21889575.613   -19417157.78249 -14691428.38547  21889575.392    21889580.669
 03  6  4  0 41 30.0000000  0  7G14G20G 2G16G 1G25G11
  24060593.238    16414143.28549  12805553.25745  24060592.638    24060599.648
  21801411.226   -17462028.27049 -12462716.42847  21801410.627    21801416.162
  24336617.134    -7927820.07449  -6145860.06345  24336616.331    24336628.908
  23915709.301    -9213336.90449  -7146110.56245  23915708.938    23915717.149
  23130500.521   -15630042.13149 -12157431.05746  23130500.118    23130507.844
  20967361.795   -27500249.86549 -21390440.61448  20967361.717    20967366.649
  21899177.130   -19366701.59449 -14652111.90347  21899176.915    21899182.203
 03  6  4  0 42  0.0000000  0  7G14G20G 2G16G 1G25G11
  24075166.738    16490727.48949  12865229.20745  24075166.407    24075173.238
  21786959.084   -17537974.69949 -12521895.42347  21786958.443    21786963.999
  24320355.986    -8013271.61349  -6212445.30045  24320355.040    24320367.473
  23898622.430    -9303128.71949  -7216078.00245  23898621.989    23898630.262
  23118455.523   -15693339.05949 -12206753.25646  23118455.127    23118462.776
  20975509.747   -27457432.13749 -21357076.15748  20975509.657    20975514.613
  21908861.317   -19315810.80149 -14612456.77147  21908861.101    21908866.419
 03  6  4  0 42 30.0000000  0  7G14G20G 2G16G 1G25G11
  24089741.422    16567318.21249  12924910.20445  24089741.080    24089747.897
  21772549.293   -17613698.34349 -12580900.81747  21772548.638    21772554.216
  24304089.388    -8098750.06849  -6279051.45544  24304088.610    24304100.935
  23881547.262    -9392858.49149  -7285997.15245  23881546.919    23881555.106
  23106435.378   -15756505.36249 -12255973.68546  23106434.928    23106442.547
  20983735.809   -27414203.88049 -21323391.80648  20983735.732    20983740.676
  21918627.760   -19264487.92749 -14572464.96147  21918627.550    21918632.862
 03  6  4  0 43  0.0000000  0  7G14G20G 2G16G 1G25G11
  24104317.498    16643915.89249  12984596.61045  24104317.218    24104324.077
  21758182.350   -17689196.61249 -12639730.60247  21758181.724    21758187.319
  24287818.384    -8184252.64549  -6345676.45745  24287817.614    24287829.934
  23864484.381    -9482522.94549  -7355865.35945  23864483.992    23864492.374
  23094440.071   -15819540.71849 -12305092.07046  23094439.683    23094447.263
  20992039.672   -27370566.83749 -21289388.91648  20992039.583    20992044.504
  21928476.210   -19212734.32449 -14532137.50847  21928475.982    21928481.257
 03  6  4  0 43 30.0000000  0  7G14G20G 2G16G 1G25G11
  24118894.726    16720519.73349  13044287.80745  24118893.437    24118900.569
  21743858.610   -17764468.19149 -12698383.73647  21743857.980    21743863.579
  24271543.351    -8269777.33149  -6412318.68345  24271542.601    24271554.772
  23847434.737    -9572119.30249  -7425680.56345  23847434.385    23847442.441
  23082469.588   -15882445.81949 -12354108.96046  23082469.189    23082476.793
  21000420.895   -27326523.19849 -21255069.19848  21000420.801    21000425.692
  21938406.062   -19160552.82149 -14491476.63147  21938405.827    21938411.097
 03  6  4  0 44  0.0000000  0  7G14G20G 2G16G 1G25G11
  24133472.806    16797128.33349  13103982.70945  24133471.974    24133479.297
  21729578.332   -17839511.46849 -12756858.97447  21729577.697    21729583.308
  24255264.499    -8355322.45149  -6478976.84445  24255263.621    24255275.602
  23830398.218    -9661645.77549  -7495441.27545  23830397.869    23830405.910
  23070523.584   -15945221.84449 -12403025.25346  23070523.160    23070530.864
  21008878.976   -27282075.63849 -21220434.73848  21008878.906    21008883.789
  21948416.726   -19107946.75249 -14450484.91347  21948416.488    21948421.736
 03  6  4  0 44 30.0000000  0  7G14G20G 2G16G 1G25G11
  24148052.160    16873743.33749  13163682.63445  24148051.562    24148058.834
  21715342.211   -17914322.62149 -12815153.34147  21715341.612    21715347.217
  24238982.461    -8440883.71049  -6545647.59545  24238981.594    24238993.845
  23813375.918    -9751097.55549  -7565143.73745  23813375.553    23813383.893
  23058602.411   -16007867.35149 -12451839.85446  23058602.042    23058609.758
  21017413.848   -27237224.59449 -21185485.87447  21017413.767    21017418.675
  21958508.005   -19054916.62749 -14409162.76747  21958507.782    21958513.048
 03  6  4  0 45  0.0000000  0  7G14G20G 2G16G 1G25G11
  24162632.712    16950364.46649  13223387.31745  24162632.177    24162639.559
  21701150.603   -17988900.01749 -12873265.55847  21701149.986    21701155.546
  24222697.528    -8526459.12449  -6612329.33144  24222696.687    24222708.875
  23796368.370    -9840471.75849  -7634785.83145  23796368.028    23796376.209
  23046706.085   -16070382.81749 -12500553.12146  23046705.687    23046713.367
  21026025.066   -27191972.30249 -21150224.34647  21026024.976    21026029.907
  21968679.475   -19001465.13649 -14367512.29347  21968679.290    21968684.568
 03  6  4  0 45 30.0000000  0  7G14G20G 2G16G 1G25G11
  24177214.322    17026990.54049  13283095.88545  24177213.743    24177221.044
  21687003.808   -18063241.94849 -12931194.29447  21687003.170    21687008.706
  24206410.638    -8612046.75249  -6679020.62045  24206409.792    24206421.732
  23779375.939    -9929766.22949  -7704365.77145  23779375.631    23779383.681
  23034834.397   -16132769.15349 -12549165.76946  23034833.966    23034841.602
  21034712.190   -27146321.25549 -21114652.10047  21034712.092    21034717.042
  21978930.569   -18947595.31549 -14325535.84847  21978930.383    21978935.724
 03  6  4  0 46  0.0000000  0  7G14G20G 2G16G 1G25G11
  24191796.724    17103621.51749  13342808.28145  24191796.248    24191803.568
  21672902.251   -18137346.14549 -12988937.78947  21672901.583    21672907.115
  24190121.637    -8697644.05549  -6745719.47445  24190120.899    24190132.689
  23762399.447   -10018977.92449  -7773881.19145  23762399.074    23762407.034
  23022987.229   -16195026.44349 -12597677.86746  23022986.778    23022994.315
  21043474.737   -27100273.50049 -21078770.73347  21043474.656    21043479.590
  21989260.919   -18893309.12149 -14283234.95347  21989260.731    21989266.089
 03  6  4  0 46 30.0000000  0  7G14G20G 2G16G 1G25G11
  24206380.191    17180257.68749  13402524.73145  24206379.811    24206386.922
  21658846.338   -18211210.05449 -13046494.04247  21658845.693    21658851.190
  24173831.459    -8783248.10249  -6812423.52745  24173830.836    24173842.394
  23745439.407   -10108103.28749  -7843329.34745  23745439.044    23745447.000
  23011164.519   -16257154.50449 -12646089.26746  23011164.074    23011171.604
  21052312.579   -27053830.53149 -21042581.40247  21052312.497    21052317.424
  21999670.070   -18838608.59449 -14240611.19447  21999669.886    21999675.242
 03  6  4  0 47  0.0000000  0  7G14G20G 2G16G 1G25G11
  24220964.621    17256898.77649  13462245.03545  24220964.225    24220971.302
  21644836.533   -18284831.65949 -13103861.49147  21644835.882    21644841.385
  24157540.428    -8868856.32049  -6879130.88645  24157539.774    24157551.255
  23728496.325   -10197139.29749  -7912707.89845  23728495.994    23728503.776
  22999366.410   -16319153.62349 -12694400.19446  22999365.990    22999373.450
  21061225.199   -27006994.26449 -21006085.61547  21061225.107    21061230.048
  22010157.575   -18783496.22449 -14197666.52747  22010157.425    22010162.776
 03  6  4  0 47 30.0000000  0  7G14G20G 2G16G 1G25G11
  24235549.968    17333544.47049  13521968.89045  24235549.488    24235556.454
  21630873.309   -18358208.63649 -13161038.32047  21630872.659    21630878.157
  24141249.136    -8954466.25149  -6945839.55145  24141248.402    24141259.907
  23711570.679   -10286083.10449  -7982014.55745  23711570.351    23711578.332
  22987592.812   -16381024.03449 -12742610.81146  22987592.381    22987599.823
  21070212.320   -26959766.60949 -20969284.84847  21070212.226    21070217.166
  22020723.090   -18727974.26649 -14154402.69647  22020722.951    22020728.308
 03  6  4  0 48  0.0000000  0  7G14G20G 2G16G 1G25G11
  24250136.001    17410194.57849  13581696.20045  24250135.680    24250142.591
  21616957.099   -18431338.71849 -13218022.76347  21616956.442    21616961.927
  24124958.065    -9040075.33749  -7012547.57945  24124957.200    24124968.652
  23694663.318   -10374931.36249  -8051246.83145  23694663.017    23694670.845
  22975843.724   -16442765.71949 -12790721.13746  22975843.255    22975850.690
  21079273.576   -26912149.53349 -20932180.63347  21079273.473    21079278.438
  22031366.096   -18672045.10949 -14110821.56547  22031365.923    22031371.300
 03  6  4  0 48 30.0000000  0  7G14G20G 2G16G 1G25G11
  24264722.928    17486849.30549  13641427.07145  24264722.653    24264729.707
  21603088.267   -18504219.88449 -13274813.24947  21603087.604    21603093.071
  24108667.588    -9125681.30049  -7079253.18345  24108666.798    24108677.823
  23677774.590   -10463681.26749  -8120402.42045  23677774.278    23677782.260
  22964119.110   -16504379.01449 -12838731.42446  22964118.631    22964126.001
  21088408.496   -26864145.26149 -20894774.70647  21088408.409    21088413.342
  22042086.162   -18615710.87249 -14066924.78847  22042085.981    22042091.414
 03  6  4  0 49  0.0000000  0  7G14G20G 2G16G 1G25G11
  24279310.645    17563508.18149  13701161.17545  24279310.443    24279317.437
  21589267.263   -18576849.75049 -13331407.91447  21589266.592    21589272.043
  24092378.042    -9211281.47049  -7145954.26945  24092377.465    24092388.452
  23660905.317   -10552329.92749  -8189479.16945  23660904.996    23660912.843
  22952418.738   -16565864.21949 -12886641.89346  22952418.312    22952425.655
  21097616.726   -26815755.69749 -20857068.55047  21097616.634    21097621.598
  22052882.817   -18558974.09149 -14022714.34347  22052882.657    22052888.086
 03  6  4  0 49 30.0000000  0  7G14G20G 2G16G 1G25G11
  24293899.215    17640171.16649  13760898.47545  24293899.034    24293906.172
  21575494.518   -18649225.93249 -13387804.91147  21575493.876    21575499.295
  24076090.082    -9296872.91649  -7212648.56545  24076089.710    24076100.782
  23644055.929   -10640873.59949  -8258474.07645  23644055.561    23644063.478
  22940742.824   -16627221.17849 -12934452.44346  22940742.424    22940749.706
  21106897.940   -26766982.49849 -20819063.46647  21106897.829    21106902.843
  22063755.721   -18501837.11949 -13978192.06747  22063755.510    22063760.937
 03  6  4  0 50  0.0000000  0  7G14G20G 2G16G 1G25G11
  24308488.470    17716837.84949  13820638.66645  24308488.154    24308495.112
  21561770.409   -18721346.57249 -13444002.77847  21561769.768    21561775.179
  24059804.417    -9382453.60849  -7279334.51545  24059804.005    24059815.047
  23627226.917   -10729309.82549  -8327385.29145  23627226.533    23627234.422
  22929091.153   -16688450.39949 -12982163.44646  22929090.781    22929098.095
  21116251.760   -26717827.76149 -20780761.07547  21116251.673    21116256.670
  22074704.207   -18444302.62449 -13933360.02747  22074703.990    22074709.414
 03  6  4  0 50 30.0000000  0  7G14G20G 2G16G 1G25G11
  24323078.455    17793508.54449  13880381.97745  24323078.123    24323085.040
  21548095.393   -18793209.10249 -13499999.52947  21548094.744    21548100.158
  24043521.289    -9468020.57149  -7346009.76045  24043520.778    24043531.720
  23610419.058   -10817635.31249  -8396210.19945  23610418.677    23610426.525
  22917463.885   -16749551.78949 -13029774.83846  22917463.500    22917470.777
  21125677.803   -26668293.44749 -20742162.91347  21125677.708    21125682.729
  22085727.989   -18386372.58349 -13888219.77847  22085727.769    22085733.200
 03  6  4  0 51  0.0000000  0  7G14G20G 2G16G 1G25G11
  24337669.167    17870182.68349  13940127.97645  24337668.842    24337675.695
  21534469.854   -18864811.46649 -13555793.55147  21534469.217    21534474.696
  24027241.221    -9553571.51249  -7412672.57745  24027240.728    24027251.462
  23593632.650   -10905847.11849  -8464946.53845  23593632.338    23593640.022
  22905860.855   -16810526.12649 -13077287.23246  22905860.453    22905867.674
  21135175.650   -26618381.86249 -20703270.77147  21135175.572    21135180.559
  22096826.495   -18328049.61549 -13842773.34447  22096826.305    22096831.708
 03  6  4  0 51 30.0000000  0  7G14G20G 2G16G 1G25G11
  24352260.464    17946860.18549  13999876.59145  24352260.141    24352266.965
  21520894.198   -18936151.72249 -13611383.33447  21520893.556    21520899.062
  24010964.853    -9639103.77149  -7479320.80045  24010964.206    24010974.945
  23576868.669   -10993942.22349  -8533591.91445  23576868.254    23576875.929
  22894281.936   -16871373.43749 -13124700.65546  22894281.549    22894288.763
  21144744.939   -26568095.07149 -20664086.26247  21144744.848    21144749.847
  22107999.209   -18269336.73349 -13797023.08447  22107999.020    22108004.413
 03  6  4  0 52  0.0000000  0  7G14G20G 2G16G 1G25G11
  24366852.382    18023541.17149  14059627.91745  24366852.069    24366858.826
  21507368.964   -19007227.09149 -13666766.71547  21507368.329    21507373.849
  23994692.349    -9724614.54049  -7545952.30245  23994691.792    23994702.499
  23560127.539   -11081917.30149  -8602143.81245  23560127.173    23560134.604
  22882727.201   -16932093.64149 -13172015.01446  22882726.798    22882734.079
  21154385.231   -26517434.83849 -20624610.75547  21154385.164    21154390.145
  22119245.820   -18210235.75349 -13750970.40847  22119245.605    22119250.976
 03  6  4  0 52 30.0000000  0  7G14G20G 2G16G 1G25G11
  24381444.907    18100225.21349  14119381.63345  24381444.637    24381451.369
  21493894.449   -19078036.00149 -13721942.45947  21493893.847    21493899.370
  23978424.508    -9810101.62449  -7612565.36245  23978423.983    23978434.598
  23543409.672   -11169769.54449  -8670599.97545  23543409.396    23543416.810
  22871196.530   -16992687.20649 -13219230.70646  22871196.140    22871203.473
  21164096.215   -26466403.55649 -20584846.12147  21164096.121    21164101.108
  22130565.766   -18150749.27749 -13704617.35047  22130565.518    22130570.878
 03  6  4  0 53  0.0000000  0  7G14G20G 2G16G 1G25G11
  24396038.128    18176912.41149  14179137.80545  24396037.834    24396044.648
  21480471.152   -19148575.80049 -13776908.50447  21480470.530    21480476.044
  23962161.686    -9895562.31649  -7679157.82445  23962161.102    23962171.918
  23526715.790   -11257495.98149  -8738958.09345  23526715.434    23526722.822
  22859689.968   -17053154.23149 -13266347.78546  22859689.586    22859696.914
  21173877.443   -26415002.78349 -20544793.57647  21173877.360    21173882.318
  22141958.529   -18090879.85649 -13657965.89947  22141958.311    22141963.693
 03  6  4  0 53 30.0000000  0  7G14G20G 2G16G 1G25G11
  24410631.823    18253602.44049  14238896.18145  24410631.511    24410638.396
  21467099.522   -19218844.32249 -13831663.17147  21467098.887    21467104.380
  23945904.314    -9980994.09949  -7745727.79645  23945903.795    23945914.353
  23510046.436   -11345093.60149  -8807215.86745  23510046.104    23510053.294
  22848207.488   -17113494.97249 -13313366.47946  22848207.105    22848214.381
  21183728.557   -26363234.87249 -20504454.95047  21183728.470    21183733.427
  22153423.699   -18030630.08549 -13611018.06247  22153423.494    22153428.866
 03  6  4  0 54  0.0000000  0  7G14G20G 2G16G 1G25G11
  24425226.054    18330295.26549  14298656.73545  24425225.748    24425232.686
  21453779.941   -19288839.16749 -13886204.58247  21453779.288    21453784.739
  23929652.985   -10066394.24749  -7812273.08545  23929652.398    23929663.023
  23493402.374   -11432558.83549  -8875370.47845  23493402.005    23493409.134
  22836748.982   -17173709.40249 -13360286.73846  22836748.548    22836755.905
  21193649.234   -26311101.36249 -20463831.44047  21193649.132    21193654.125
  22164960.882   -17970002.15549 -13563775.56047  22164960.637    22164965.961
 03  6  4  0 54 30.0000000  0  7G14G20G 2G16G 1G25G11
  24439820.889    18406990.90449  14358419.48745  24439820.544    24439827.396
  21440512.870   -19358558.17049 -13940531.05847  21440512.212    21440517.629
  23913408.153   -10151760.38349  -7878791.93745  23913407.603    23913418.124
  23476784.006   -11519888.82249  -8943419.71445  23476783.601    23476790.660
  22825314.452   -17233797.79049 -13407108.79346  22825314.034    22825321.363
  21203638.979   -26258604.68149 -20422924.94447  21203638.916    21203643.878
  22176569.531   -17908998.58449 -13516240.35447  22176569.281    22176574.629
 03  6  4  0 55  0.0000000  0  7G14G20G 2G16G 1G25G11
  24454416.181    18483689.26149  14418184.35745  24454415.850    24454422.679
  21427298.634   -19427999.08349 -13994640.83047  21427297.990    21427303.407
  23897170.361   -10237089.87849  -7945282.21545  23897169.725    23897180.122
  23460191.708   -11607080.59549  -9011361.23545  23460191.417    23460198.510
  22813903.876   -17293760.33249 -13453832.78846  22813903.473    22813910.787
  21213697.507   -26205746.89349 -20381737.06047  21213697.423    21213702.409
  22188249.105   -17847621.99149 -13468414.48047  22188248.875    22188254.211
 03  6  4  0 55 30.0000000  0  7G14G20G 2G16G 1G25G11
  24469011.966    18560390.30549  14477951.32645  24469011.546    24469018.475
  21414137.797   -19497159.49849 -14048532.03247  21414137.181    21414142.594
  23880940.022   -10322379.71349  -8011741.61645  23880939.460    23880949.753
  23443626.609   -11694130.61949  -9079192.34545  23443626.187    23443633.329
  22802517.298   -17353596.88449 -13500458.59746  22802516.926    22802524.229
  21223824.409   -26152529.67649 -20340269.10247  21223824.322    21223829.293
  22199999.290   -17785874.49549 -13420299.58946  22199999.030    22200004.416
 03  6  4  0 56  0.0000000  0  7G14G20G 2G16G 1G25G11
  24483608.263    18637093.88649  14537720.26845  24483607.881    24483614.800
  21401030.789   -19566037.13349 -14102202.88947  21401030.185    21401035.596
  23864717.720   -10407627.64049  -8078168.31945  23864717.140    23864727.371
  23427088.616   -11781036.03449  -9146910.73345  23427088.363    23427095.807
  22791154.647   -17413308.04249 -13546986.70046  22791154.192    22791161.466
  21234019.279   -26098955.37049 -20298522.89847  21234019.184    21234024.180
  22211819.445   -17723759.09549 -13371898.03046  22211819.228    22211824.644
 03  6  4  0 56 30.0000000  0  7G14G20G 2G16G 1G25G11
  24498205.014    18713799.75849  14597490.99545  24498204.646    24498211.523
  21387977.968   -19634630.02249 -14155651.86447  21387977.361    21387982.782
  23848503.824   -10492831.21749  -8144560.49045  23848503.235    23848513.350
  23410579.031   -11867794.05849  -9214514.29645  23410578.764    23410586.115
  22779815.758   -17472894.21649 -13593417.42046  22779815.302    22779822.526
  21244281.648   -26045026.16449 -20256500.14747  21244281.560    21244286.568
  22223709.131   -17661278.34049 -13323211.77146  22223708.916    22223714.387
 03  6  4  0 57  0.0000000  0  7G14G20G 2G16G 1G25G11
  24512802.129    18790508.04649  14657263.60545  24512801.731    24512808.713
  21374979.819   -19702935.59349 -14208876.95147  21374979.220    21374984.615
  23832298.972   -10577987.50349  -8210915.82045  23832298.383    23832308.416
  23394098.129   -11954401.32449  -9282000.37945  23394097.824    23394105.165
  22768500.650   -17532355.17949 -13639750.57346  22768500.196    22768507.417
  21254611.263   -25990743.96149 -20214202.33247  21254611.159    21254616.126
  22235667.921   -17598434.64349 -13274242.70046  22235667.697    22235673.191
 03  6  4  0 57 30.0000000  0  7G14G20G 2G16G 1G25G11
  24527399.560    18867217.83249  14717037.37445  24527399.145    24527406.242
  21362036.644   -19770952.50449 -14261877.11147  21362036.030    21362041.413
  23816103.497   -10663094.89349  -8277233.07645  23816102.816    23816112.820
  23377646.476   -12040855.52449  -9349367.20445  23377646.162    23377653.417
  22757209.092   -17591692.10649 -13685987.07346  22757208.642    22757215.934
  21265007.402   -25936111.56749 -20171631.64347  21265007.322    21265012.312
  22247695.061   -17535231.63949 -13224993.65546  22247694.881    22247700.353
 03  6  4  0 58  0.0000000  0  7G14G20G 2G16G 1G25G11
  24541997.450    18943929.93049  14776812.95645  24541997.019    24542004.222
  21349148.999   -19838677.47549 -14314649.77947  21349148.352    21349153.740
  23799917.828   -10748149.68849  -8343509.34045  23799917.181    23799927.214
  23361224.694   -12127152.75149  -9416611.72746  23361224.371    23361231.407
  22745941.329   -17650903.99249 -13732126.14246  22745940.913    22745948.251
  21275470.024   -25881129.92949 -20128788.82047  21275469.939    21275474.977
  22259790.356   -17471670.56549 -13175465.58646  22259790.158    22259795.648
 03  6  4  0 58 30.0000000  0  7G14G20G 2G16G 1G25G11
  24556595.757    19020644.54149  14836590.48745  24556595.332    24556602.575
  21336317.299   -19906108.08149 -14367193.07847  21336316.675    21336322.078
  23783742.825   -10833148.98749  -8409742.36245  23783742.199    23783752.255
  23344833.385   -12213289.40949  -9483731.09346  23344833.118    23344840.076
  22734697.441   -17709990.96149 -13778167.87246  22734697.057    22734704.298
  21285998.715   -25825801.38249 -20085675.67247  21285998.640    21286003.674
  22271953.372   -17407753.57049 -13125660.17746  22271953.188    22271958.708
 03  6  4  0 59  0.0000000  0  7G14G20G 2G16G 1G25G11
  24571194.506    19097361.35549  14896369.73945  24571194.146    24571201.363
  21323542.119   -19973242.05749 -14419505.23347  21323541.510    21323546.898
  23767578.800   -10918090.43549  -8475930.32845  23767578.189    23767588.230
  23328473.195   -12299262.94549  -9550723.39245  23328472.875    23328479.665
  22723477.212   -17768953.39949 -13824112.56646  22723476.845    22723484.020
  21296593.058   -25770127.83149 -20042293.69647  21296592.966    21296598.005
  22284183.538   -17343483.95549 -13075580.00346  22284183.351    22284188.887
 03  6  4  0 59 30.0000000  0  7G14G20G 2G16G 1G25G11
  24585793.636    19174080.38549  14956150.73145  24585793.279    24585800.628
  21310823.779   -20040077.31049 -14471584.61847  21310823.154    21310828.525
  23751426.313   -11002971.48849  -8542071.23245  23751425.662    23751435.693
  23312144.536   -12385069.96849  -9617585.91846  23312144.239    23312151.153
  22712280.567   -17827791.46949 -13869960.34946  22712280.226    22712287.395
  21307252.626   -25714111.35149 -19998644.49847  21307252.546    21307257.571
  22296480.291   -17278864.41449 -13025227.15646  22296480.088    22296485.589
 03  6  4  1  0  0.0000000  0  7G14G20G 2G16G 1G25G11
  24600393.168    19250801.39949  15015933.25345  24600392.783    24600400.228
  21298162.711   -20106611.65449 -14523429.52447  21298162.109    21298167.460
  23735285.776   -11087789.51349  -8608162.99945  23735285.144    23735295.064
  23295848.115   -12470707.79649  -9684316.60246  23295847.820    23295854.738
  22701107.632   -17886505.53349 -13915711.50046  22701107.251    22701114.444
  21317977.124   -25657754.04649 -19954729.72247  21317977.041    21317982.049
  22308843.195   -17213897.30049 -12974603.47346  22308842.959    22308848.453
 03  6  4  1  0 30.0000000  0  7G14G20G 2G16G 1G25G11
  24614993.117    19327524.46649  15075717.39345  24614992.865    24615000.264
  21285559.382   -20172842.55849 -14575037.98547  21285558.744    21285564.105
  23719157.735   -11172541.93849  -8674203.66345  23719157.070    23719166.888
  23279584.548   -12556173.05749  -9750912.82446  23279584.219    23279591.121
  22689958.267   -17945095.57749 -13961366.01946  22689957.899    22689965.065
  21328766.018   -25601058.17549 -19910551.13247  21328765.903    21328770.926
  22321271.654   -17148585.25249 -12923711.00846  22321271.455    22321276.967
 03  6  4  1  1  0.0000000  0  7G14G20G 2G16G 1G25G11
  24629593.416    19404249.12149  15135502.75945  24629593.267    24629600.556
  21273014.088   -20238768.53149 -14626408.84047  21273013.439    21273018.774
  23703042.683   -11257226.71049  -8740191.58745  23703041.995    23703051.784
  23263354.387   -12641463.18049  -9817372.55246  23263354.035    23263361.022
  22678832.380   -18003562.31449 -14006924.45646  22678832.002    22678839.163
  21339618.774   -25544026.27049 -19866110.70147  21339618.670    21339623.723
  22333765.172   -17082931.48949 -12872552.27846  22333764.966    22333770.501
 03  6  4  1  1 30.0000000  0  7G14G20G 2G16G 1G25G11
  24644194.060    19480975.40949  15195289.37645  24644193.889    24644201.177
  21260527.281   -20304386.98249 -14677540.06947  21260526.644    21260531.963
  23686941.137   -11341840.87949  -8806124.55345  23686940.453    23686949.921
  23247158.124   -12726574.80549  -9883693.18946  23247157.728    23247164.819
  22667729.947   -18061905.71149 -14052386.78846  22667729.538    22667736.656
  21350535.250   -25486659.89349 -19821409.63747  21350535.142    21350540.177
  22346323.327   -17016938.43349 -12821129.15346  22346323.112    22346328.626
 03  6  4  1  2  0.0000000  0  7G14G20G 2G16G 1G25G11
  24658794.991    19557703.30649  15255077.29045  24658794.801    24658802.092
  21248099.448   -20369695.51449 -14728429.80747  21248098.817    21248104.095
  23670853.533   -11426381.86149  -8872000.47245  23670852.761    23670862.069
  23230996.220   -12811504.96649  -9949872.44146  23230995.937    23231002.994
  22656650.959   -18120125.89149 -14097753.10346  22656650.548    22656657.654
  21361514.846   -25428961.52749 -19776449.88447  21361514.771    21361519.797
  22358945.499   -16950608.73749 -12769443.72046  22358945.264    22358950.792
 03  6  4  1  2 30.0000000  0  7G14G20G 2G16G 1G25G11
  24673396.246    19634433.09449  15314866.62645  24673396.024    24673403.302
  21235731.017   -20434691.90249 -14779076.31947  21235730.370    21235735.634
  23654780.245   -11510846.95449  -8937817.24545  23654779.458    23654788.803
  23214869.748   -12896250.18149 -10015907.57846  23214869.410    23214876.470
  22645595.408   -18178222.91749 -14143023.46446  22645595.021    22645602.090
  21372557.279   -25370933.11349 -19731232.95047  21372557.206    21372562.227
  22371631.326   -16883944.65249 -12717497.72646  22371631.072    22371636.553
 03  6  4  1  3  0.0000000  0  7G14G20G 2G16G 1G25G11
  24687997.803    19711164.34249  15374657.14745  24687997.626    24688004.917
  21223422.403   -20499373.76049 -14829477.73447  21223421.771    21223427.039
  23638721.790   -11595233.53249  -9003572.86945  23638721.064    23638730.412
  23198778.899   -12980807.66249 -10081796.41346  23198778.560    23198785.579
  22634563.278   -18236197.09549 -14188198.10046  22634562.888    22634569.952
  21383662.137   -25312576.93749 -19685760.62147  21383662.049    21383667.091
  22384380.156   -16816949.14349 -12665293.47346  22384379.926    22384385.380
 03  6  4  1  3 30.0000000  0  7G14G20G 2G16G 1G25G11
  24702599.643    19787897.24149  15434448.93145  24702599.296    24702606.840
  21211174.017   -20563738.97549 -14879632.42747  21211173.430    21211178.690
  23622678.831   -11679538.92649  -9069265.20645  23622678.110    23622687.520
  23182724.409   -13065174.24949 -10147536.51346  23182724.065    23182731.013
  22623554.482   -18294048.49649 -14233277.05946  22623554.099    22623561.123
  21394828.999   -25253894.77449 -19640034.26947  21394828.908    21394833.920
  22397191.565   -16749624.99949 -12612833.15046  22397191.337    22397196.789
 03  6  4  1  4  0.0000000  0  7G14G20G 2G16G 1G25G11
  24717201.831    19864631.77549  15494241.97145  24717201.556    24717208.862
  21198986.426   -20627784.97849 -14929538.37647  21198985.847    21198991.115
  23606651.810   -11763760.58949  -9134892.33145  23606651.145    23606660.514
  23166706.838   -13149346.68349 -10213125.34346  23166706.493    23166713.472
  22612569.056   -18351777.26349 -14278260.45546  22612568.705    22612575.633
  21406057.455   -25194888.85049 -19594055.63347  21406057.375    21406062.364
  22410065.043   -16681974.78949 -12560118.75146  22410064.815    22410070.250
 03  6  4  1  4 30.0000000  0  7G14G20G 2G16G 1G25G11
  24731804.281    19941367.88549  15554036.24645  24731803.908    24731811.384
  21186860.060   -20691509.62249 -14979193.91647  21186859.423    21186864.689
  23590641.356   -11847895.85849  -9200452.11445  23590640.569    23590649.929
  23150726.753   -13233321.99449 -10278560.56246  23150726.416    23150733.408
  22601606.944   -18409383.57049 -14323148.42646  22601606.583    22601613.443
  21417347.156   -25135561.14649 -19547826.26047  21417347.049    21417352.058
  22423000.019   -16614001.05649 -12507152.25946  22422999.810    22423005.241
 03  6  4  1  5  0.0000000  0  7G14G20G 2G16G 1G25G11
  24746407.138    20018105.74049  15613831.87544  24746406.776    24746414.345
  21174795.246   -20754910.67849 -15028597.31147  21174794.625    21174799.878
  23574647.718   -11931942.05149  -9265942.48345  23574646.902    23574656.354
  23134784.795   -13317097.14649 -10343839.80846  23134784.472    23134791.505
  22590668.081   -18466867.59749 -14367941.12746  22590667.706    22590674.539
  21428697.709   -25075913.64949 -19501347.70247  21428697.621    21428702.610
  22435996.022   -16545706.52149 -12453935.78846  22435995.833    22436001.270
 03  6  4  1  5 30.0000000  0  6G20G 2G16G 1G25G11
  21162792.681   -20817984.56349 -15077745.76647  21162792.064    21162797.304
  23558671.774   -12015895.29149  -9331360.43845  23558671.072    23558680.510
  23118881.852   -13400667.73749 -10408959.62446  23118881.471    23118888.533
  22579752.583   -18524228.47049 -14412637.85646  22579752.193    22579759.059
  21440108.900   -25015947.55149 -19454620.87747  21440108.811    21440113.761
  22449052.821   -16477092.71149 -12400470.52346  22449052.614    22449058.055
 03  6  4  1  6  0.0000000  0  6G20G 2G16G 1G25G11
  21150852.687   -20880729.91749 -15126638.22847  21150852.040    21150857.253
  23542714.005   -12099753.69349  -9396704.47745  23542713.359    23542722.534
  23103018.243   -13484031.55449 -10473918.33446  23103017.854    23103024.848
  22568860.403   -18581467.12349 -14457239.35346  22568860.043    22568866.909
  21451580.196   -24955665.58949 -19407647.93347  21451580.100    21451585.090
  22462169.684   -16408163.25249 -12346759.31446  22462169.464    22462174.963
 03  6  4  1  6 30.0000000  0  6G20G 2G16G 1G25G11
  21138975.421   -20943145.36649 -15175273.62247  21138974.792    21138979.971
  23526774.542   -12183515.62049  -9461973.35245  23526773.903    23526782.982
  23087194.359   -13567186.41849 -10538714.23346  23087193.989    23087200.796
  22557991.264   -18638584.67449 -14501746.48446  22557990.918    22557997.750
  21463110.970   -24895070.91349 -19360431.31347  21463110.867    21463115.898
  22475345.892   -16338921.55049 -12292804.79046  22475345.702    22475351.236
 03  6  4  1  7  0.0000000  0  6G20G 2G16G 1G25G11
  21127161.491   -21005227.92749 -15223649.61947  21127160.861    21127166.028
  23510854.015   -12267177.86749  -9527164.55245  23510853.384    23510862.433
  23071410.873   -13650128.55749 -10603344.38146  23071410.564    23071417.255
  22547145.293   -18695580.55749 -14546158.79746  22547144.916    22547151.758
  21474701.014   -24834165.15449 -19312972.28047  21474700.914    21474705.874
  22488581.112   -16269370.06349 -12238608.87746  22488580.950    22488586.530
 03  6  4  1  7 30.0000000  0  6G20G 2G16G 1G25G11
  21115411.337   -21066975.33949 -15271764.46247  21115410.686    21115415.882
  23494952.927   -12350737.83049  -9592276.04645  23494952.324    23494961.366
  23055668.534   -13732855.14749 -10667806.56546  23055668.133    23055674.784
  22536322.410   -18752454.86549 -14590476.39146  22536322.029    22536328.850
  21486349.745   -24772950.51549 -19265272.57547  21486349.640    21486354.634
  22501874.740   -16199511.56649 -12184173.72946  22501874.586    22501880.204
 03  6  4  1  8  0.0000000  0  6G20G 2G16G 1G25G11
  21103725.444   -21128384.93049 -15319616.06647  21103724.785    21103730.028
  23479071.893   -12434192.54649  -9657305.56245  23479071.197    23479080.234
  23039967.780   -13815362.60949 -10732097.99346  23039967.383    23039974.096
  22525522.643   -18809207.62249 -14634699.25646  22525522.295    22525529.108
  21498056.913   -24711428.75049 -19217333.54447  21498056.825    21498061.862
  22515226.419   -16129348.23149 -12129501.05746  22515226.273    22515231.894
 03  6  4  1  8 30.0000000  0  6G20G 2G16G 1G25G11
  21092104.154   -21189454.78649 -15367202.94647  21092103.511    21092108.787
  23463211.309   -12517539.49349  -9722251.06645  23463210.637    23463219.747
  23024309.253   -13897648.02849 -10796216.39846  23024308.883    23024315.544
  22514746.031   -18865838.82649 -14678827.41446  22514745.696    22514752.534
  21509822.173   -24649601.87149 -19169156.76247  21509822.080    21509827.132
  22528635.579   -16058882.92049 -12074593.07146  22528635.440    22528641.078
 03  6  4  1  9  0.0000000  0  6G20G 2G16G 1G25G11
  21080547.831   -21250183.48249 -15414523.98647  21080547.191    21080552.468
  23447371.675   -12600777.12049  -9787111.39845  23447370.933    23447379.996
  23008693.511   -13979709.11849 -10860159.99946  23008693.073    23008699.748
  22503992.365   -18922349.74149 -14722861.83646  22503992.020    22503998.825
  21521644.907   -24587472.87449 -19120744.56347  21521644.845    21521649.886
  22542101.418   -15988119.50149 -12019452.79246  22542101.268    22542106.939
 03  6  4  1  9 30.0000000  0  6G20G 2G16G 1G25G11
  21069056.916   -21310568.51449 -15461577.23947  21069056.266    21069061.524
  23431553.451   -12683902.29749  -9851884.13145  23431552.734    23431561.692
  22993121.076   -14061542.43049 -10923926.13046  22993120.704    22993127.254
  22493261.576   -18978740.29149 -14766802.47746  22493261.219    22493267.973
  21533524.823   -24525043.68449 -19072098.45347  21533524.741    21533529.777
  22555623.602   -15917060.20749 -11964081.96646  22555623.427    22555629.129
 03  6  4  1 10  0.0000000  0  6G20G 2G16G 1G25G11
  21057632.035   -21370606.65949 -15508360.18947  21057631.395    21057636.587
  23415757.109   -12766911.91149  -9916566.78945  23415756.419    23415765.321
  22977592.542   -14143144.46549 -10987512.03046  22977592.214    22977598.775
  22482553.827   -19035009.92149 -14810648.88746  22482553.422    22482560.134
  21545461.538   -24462316.07349 -19023219.80847  21545461.467    21545466.472
  22569201.690   -15845707.11849 -11908482.20546  22569201.507    22569207.245
 03  6  4  1 10 30.0000000  0  6G20G 2G16G 1G25G11
  21046273.713   -21430295.33249 -15554870.82547  21046273.058    21046278.210
  23399983.324   -12849802.55649  -9981156.73545  23399982.649    23399991.745
  22962108.855   -14224511.53049 -11050914.83246  22962108.543    22962115.077
  22471869.127   -19091158.12649 -14854400.67246  22471868.699    22471875.413
  21557454.813   -24399291.23849 -18974109.55447  21557454.715    21557459.670
  22582835.284   -15774062.65349 -11852655.39846  22582835.068    22582840.781
 03  6  4  1 11  0.0000000  0  6G20G 2G16G 1G25G11
  21034982.021   -21489633.52649 -15601108.36147  21034981.365    21034986.501
  23384232.523   -12932572.92549 -10045652.99745  23384231.873    23384240.929
  22946670.211   -14305641.87849 -11114133.20646  22946669.881    22946676.312
  22461207.179   -19147186.47149 -14898059.07746  22461206.800    22461213.520
  21569503.972   -24335972.48049 -18924770.28347  21569503.863    21569508.832
  22596523.574   -15702130.71349 -11796604.59146  22596523.322    22596529.011
 03  6  4  1 11 30.0000000  0  6G20G 2G16G 1G25G11
  21023757.603   -21548618.09849 -15647070.34747  21023756.946    21023762.053
  23368505.312   -13015219.53649 -10110052.81145  23368504.552    23368513.536
  22931277.342   -14386531.44449 -11177163.92746  22931277.048    22931283.409
  22450568.272   -19203094.11949 -14941623.41946  22450567.875    22450574.609
  21581608.775   -24272361.35149 -18875203.18447  21581608.673    21581613.647
  22610266.086   -15629913.34349 -11740331.36146  22610265.878    22610271.586
 03  6  4  1 12  0.0000000  0  6G20G 2G16G 1G25G11
  21012600.811   -21607247.24449 -15692755.37747  21012600.160    21012605.279
  23352801.934   -13097740.39449 -10174354.64545  23352801.312    23352810.273
  22915930.780   -14467177.87349 -11240005.22646  22915930.462    22915936.729
  22439952.212   -19258881.94349 -14985094.39846  22439951.805    22439958.521
  21593768.635   -24208460.77749 -18825410.53847  21593768.525    21593773.505
  22624062.262   -15557414.03249 -11683838.45146  22624062.077    22624067.767
 03  6  4  1 12 30.0000000  0  6G20G 2G16G 1G25G11
  21001512.117   -21665518.39249 -15738161.44947  21001511.486    21001516.652
  23337123.221   -13180132.46949 -10238556.13945  23337122.587    23337131.392
  22900631.063   -14547577.72249 -11302654.35546  22900630.723    22900637.069
  22429358.900   -19314549.58349 -15028471.71946  22429358.518    22429365.252
  21605983.286   -24144272.26949 -18775393.53547  21605983.179    21605988.163
  22637911.672   -15484635.17949 -11627127.71446  22637911.500    22637917.153
 03  6  4  1 13  0.0000000  0  6G20G 2G16G 1G25G11
  20990492.002   -21723429.42649 -15783286.90947  20990491.375    20990496.546
  23321469.440   -13262393.09449 -10302655.17745  23321468.854    23321477.457
  22885378.926   -14627727.81249 -11365108.87546  22885378.532    22885384.863
  22418788.496   -19370096.97449 -15071755.34746  22418788.166    22418794.881
  21618252.361   -24079797.85949 -18725153.75047  21618252.275    21618257.266
  22651813.825   -15411579.36149 -11570201.15446  22651813.576    22651819.316
 03  6  4  1 13 30.0000000  0  6G20G 2G16G 1G25G11
  20979540.752   -21780978.38949 -15828130.23947  20979540.117    20979545.297
  23305840.968   -13344520.18349 -10366650.19146  23305840.443    23305849.095
  22870174.815   -14707625.47649 -11427366.71446  22870174.468    22870180.760
  22408240.904   -19425524.97749 -15114945.94246  22408240.518    22408247.230
  21630575.386   -24015039.97849 -18674693.08147  21630575.284    21630580.297
  22665768.026   -15338249.85549 -11513061.33346  22665767.766    22665773.512
 03  6  4  1 14  0.0000000  0  6G20G 2G16G 1G25G11
  20968658.721   -21838163.62649 -15872690.14747  20968658.110    20968663.272
  23290238.415   -13426511.61549 -10430539.51946  23290237.864    23290246.505
  22855019.083   -14787268.59849 -11489426.20446  22855018.819    22855025.120
  22397715.933   -19480834.16149 -15158043.95246  22397715.494    22397722.178
  21642951.779   -23950001.63849 -18624013.87247  21642951.706    21642956.698
  22679773.603   -15264650.04149 -11455710.87546  22679773.380    22679779.102
 03  6  4  1 14 30.0000000  0  6G20G 2G16G 1G25G11
  20957846.551   -21894982.15049 -15916964.30447  20957845.935    20957851.046
  23274662.407   -13508363.96249 -10494320.42046  23274661.818    23274670.459
  22839912.716   -14866652.97649 -11551284.06846  22839912.437    22839918.642
  22387213.676   -19536023.94249 -15201048.92746  22387213.205    22387219.834
  21655381.319   -23884684.10749 -18573117.11547  21655381.241    21655386.240
  22693830.166   -15190782.39149 -11398151.72046  22693829.929    22693835.691
 03  6  4  1 15  0.0000000  0  6G20G 2G16G 1G25G11
  20947104.585   -21951431.46749 -15960950.77147  20947103.982    20947109.042
  23259113.410   -13590074.31749 -10557990.72346  23259112.742    23259121.386
  22824856.247   -14945775.52949 -11612937.92046  22824855.871    22824862.069
  22376734.078   -19591094.24649 -15243960.79546  22376733.620    22376740.226
  21667863.629   -23819089.18849 -18522004.20847  21667863.550    21667868.570
  22707937.384   -15116648.87349 -11340385.39046  22707937.132    22707942.862
 03  6  4  1 15 30.0000000  0  6G20G 2G16G 1G25G11
  20936433.404   -22007509.03249 -16004647.56047  20936432.769    20936437.822
  23243591.837   -13671639.87949 -10621548.16446  23243591.197    23243599.794
  22809850.037   -15024632.85749 -11674385.11146  22809849.759    22809856.023
  22366277.201   -19646044.93849 -15286779.47146  22366276.789    22366283.401
  21680398.407   -23753218.55849 -18470676.46647  21680398.303    21680403.350
  22722094.593   -15042252.21349 -11282414.01946  22722094.331    22722100.116
 03  6  4  1 16  0.0000000  0  6G20G 2G16G 1G25G11
  20925833.344   -22063212.72949 -16048053.02147  20925832.698    20925837.728
  23228098.421   -13753058.18349 -10684990.88546  23228097.763    23228106.265
  22794894.909   -15103222.12449 -11735623.41946  22794894.703    22794900.926
  22355843.106   -19700876.32049 -15329505.16846  22355842.682    22355849.324
  21692985.080   -23687074.85549 -18419135.94447  21692985.009    21692990.125
  22736301.310   -14967595.56449 -11224240.05846  22736301.076    22736306.855
 03  6  4  1 16 30.0000000  0  6G20G 2G16G 1G25G11
  20915304.831   -22118540.40349 -16091165.47647  20915304.186    20915309.229
  23212633.352   -13834326.72749 -10748316.88546  23212632.700    23212641.346
  22779991.336   -15181540.26049 -11796650.45546  22779991.131    22779997.355
  22345431.670   -19755588.58649 -15372138.05546  22345431.220    22345437.903
  21705623.424   -23620660.25349 -18367384.32547  21705623.360    21705628.457
  22750556.986   -14892681.63649 -11165865.61846  22750556.727    22750562.541
 03  6  4  1 17  0.0000000  0  6G20G 2G16G 1G25G11
  20904848.270   -22173489.92149 -16133983.26547  20904847.625    20904852.657
  23197197.332   -13915443.09349 -10811524.34146  23197196.745    23197205.137
  22765139.925   -15259584.37349 -11857463.97446  22765139.752    22765145.908
  22335042.849   -19810181.92549 -15414678.27146  22335042.412    22335049.092
  21718312.934   -23553976.56949 -18315423.03347  21718312.845    21718317.929
  22764861.016   -14817513.57149 -11107293.15646  22764860.814    22764866.599
 03  6  4  1 17 30.0000000  0  6G20G 2G16G 1G25G11
  20894464.015   -22228059.33849 -16176504.86747  20894463.384    20894468.441
  23181790.745   -13996404.83849 -10874611.30146  23181790.171    23181798.631
  22750341.275   -15337351.95749 -11918062.02046  22750341.047    22750347.106
  22324676.597   -19864656.47749 -15457125.92346  22324676.228    22324682.843
  21731053.160   -23487026.36649 -18263254.06047  21731053.075    21731058.179
  22779212.727   -14742094.97649 -11048525.46646  22779212.559    22779218.366
 03  6  4  1 18  0.0000000  0  6G20G 2G16G 1G25G11
  20884152.453   -22282246.70349 -16218728.76947  20884151.833    20884156.931
  23166414.037   -14077209.48349 -10937575.85446  23166413.485    23166421.885
  22735595.787   -15414839.83449 -11978442.11446  22735595.524    22735601.564
  22314332.911   -19919012.82349 -15499481.47346  22314332.539    22314339.147
  21743843.669   -23419812.14749 -18210879.35847  21743843.580    21743848.646
  22793611.721   -14666427.83249 -10989564.11046  22793611.541    22793617.402
 03  6  4  1 18 30.0000000  0  6G20G 2G16G 1G25G11
  20873913.946   -22336050.16149 -16260653.52147  20873913.341    20873918.469
  23151067.697   -14157854.71449 -11000416.18646  23151067.150    23151075.535
  22720904.036   -15492045.58349 -12038602.34846  22720903.716    22720909.769
  22304011.642   -19973251.43349 -15541745.27746  22304011.244    22304017.827
  21756683.865   -23352336.27249 -18158300.77047  21756683.771    21756688.831
  22808057.403   -14590515.68749 -10930411.84246  22808057.230    22808063.079
 03  6  4  1 19  0.0000000  0  6G20G 2G16G 1G25G11
  20863749.164   -22389466.22449 -16302276.41047  20863748.557    20863753.704
  23135752.327   -14238336.83649 -11063129.40246  23135751.772    23135760.114
  22706266.703   -15568964.89049 -12098539.40346  22706266.419    22706272.437
  22293712.917   -20027371.23949 -15583916.50346  22293712.554    22293719.136
  21769573.690   -23284599.75249 -18105519.08147  21769573.618    21769578.698
  22822549.342   -14514360.50649 -10871070.19246  22822549.158    22822555.021
 03  6  4  1 19 30.0000000  0  6G20G 2G16G 1G25G11
  20853658.607   -22442492.54849 -16343595.59947  20853657.983    20853663.136
  23120468.572   -14318652.92849 -11125713.24946  23120468.053    23120476.406
  22691684.497   -15645594.76749 -12158250.92146  22691684.184    22691690.188
  22283436.805   -20081372.16049 -15625995.09747  22283436.458    22283443.094
  21782512.850   -23216604.21549 -18052535.56047  21782512.730    21782517.821
  22837087.000   -14437964.86249 -10811541.17246  22837086.813    22837092.676
 03  6  4  1 20  0.0000000  0  6G20G 2G16G 1G25G11
  20843642.494   -22495127.42749 -16384609.77147  20843641.887    20843647.006
  23105216.780   -14398800.98049 -11188166.17346  23105216.322    23105224.570
  22677157.868   -15721932.64149 -12217734.90946  22677157.531    22677163.452
  22273183.254   -20135254.75249 -15667981.48647  22273182.926    22273189.552
  21795500.675   -23148352.55649 -17999352.46247  21795500.579    21795505.665
  22851669.800   -14361331.90549 -10751827.23746  22851669.648    22851675.484
 03  6  4  1 20 30.0000000  0  6G20G 2G16G 1G25G11
  20833701.263   -22547368.87549 -16425317.36847  20833700.649    20833705.773
  23089997.407   -14478778.61249 -11250486.29846  23089996.978    23090005.227
  22662687.274   -15797975.69749 -12276989.16846  22662686.929    22662692.854
  22262952.155   -20189019.31049 -15709875.90347  22262951.799    22262958.426
  21808536.860   -23079847.32049 -17945971.77647  21808536.734    21808541.834
  22866297.168   -14284464.94049 -10691930.94546  22866296.972    22866302.851
 03  6  4  1 21  0.0000000  0  6G20G 2G16G 1G25G11
  20823835.337   -22599214.56249 -16465716.58147  20823834.709    20823839.837
  23074811.053   -14558582.99749 -11312671.42846  23074810.591    23074818.877
  22648273.338   -15873720.71249 -12336011.18346  22648273.107    22648279.032
  22252743.568   -20242665.63349 -15751678.18947  22252743.216    22252749.811
  21821620.920   -23011090.34449 -17892394.92647  21821620.786    21821625.863
  22880968.538   -14207366.75849 -10631854.49746  22880968.345    22880974.225
 03  6  4  1 21 30.0000000  0  6G20G 2G16G 1G25G11
  20814045.136   -22650662.51649 -16505805.86647  20814044.507    20814049.613
  23059658.211   -14638211.77049 -11374719.73346  23059657.722    23059665.955
  22633916.841   -15949164.71149 -12394798.65446  22633916.586    22633922.468
  22242557.413   -20296194.22549 -15793388.74147  22242557.058    22242563.637
  21834752.409   -22942083.75449 -17838623.56947  21834752.325    21834757.368
  22895683.341   -14130040.23449 -10571600.11546  22895683.118    22895688.988
 03  6  4  1 22  0.0000000  0  6G20G 2G16G 1G25G11
  20804330.985   -22701710.54449 -16545583.52547  20804330.352    20804335.446
  23044539.234   -14717662.44849 -11436629.25346  23044538.688    23044546.859
  22619618.005   -16024305.18549 -12453349.60746  22619617.734    22619623.670
  22232393.675   -20349605.15749 -15835007.60347  22232393.294    22232399.814
  21847930.981   -22872829.87949 -17784659.52947  21847930.882    21847935.955
  22910440.940   -14052488.44149 -10511170.19546  22910440.722    22910446.622
 03  6  4  1 22 30.0000000  0  6G20G 2G16G 1G25G11
  20794693.402   -22752356.30649 -16585047.72647  20794692.774    20794697.859
  23029454.692   -14796932.20649 -11498397.80546  23029454.130    23029462.197
  22605377.524   -16099138.88749 -12511661.51246  22605377.223    22605383.233
  22222252.343   -20402898.20749 -15876534.62047  22222251.925    22222258.444
  21861156.263   -22803330.51849 -17730504.19947  21861156.187    21861161.293
  22925240.948   -13974714.03649 -10450566.81946  22925240.726    22925246.628
 03  6  4  1 23  0.0000000  0  6G20G 2G16G 1G25G11
  20785132.775   -22802597.67349 -16624196.81747  20785132.143    20785137.229
  23014405.115   -14876018.51449 -11560023.42746  23014404.489    23014412.507
  22591196.094   -16173662.71949 -12569731.96146  22591195.761    22591201.730
  22212133.384   -20456073.53949 -15917969.90847  22212132.950    22212139.445
  21874427.846   -22733587.70349 -17676159.17147  21874427.799    21874432.916
  22940082.788   -13896719.57349 -10389791.97346  22940082.601    22940088.509
 03  6  4  1 23 30.0000000  0  6G20G 2G16G 1G25G11
  20775649.594   -22852431.99849 -16663028.73447  20775648.988    20775654.056
  22999390.914   -14954918.36549 -11621503.73546  22999390.293    22999398.253
  22577074.241   -16247873.40249 -12627558.40946  22577073.897    22577079.847
  22202036.855   -20509130.89349 -15959313.25547  22202036.450    22202042.940
  21887745.435   -22663603.27149 -17621625.86247  21887745.379    21887750.532
  22954966.009   -13818507.94449 -10328847.90846  22954965.818    22954971.785
 03  6  4  1 24  0.0000000  0  6G20G 2G16G 1G25G11
  20766244.228   -22901857.48549 -16701542.07747  20766243.619    20766248.667
  22984412.519   -15033629.39949 -11682836.92446  22984411.993    22984419.957
  22563012.413   -16321768.04549 -12685138.58946  22563012.122    22563018.030
  22191962.701   -20562070.66449 -16000564.98747  22191962.324    22191968.729
  21901108.581   -22593379.49449 -17566906.05147  21901108.538    21901113.675
  22969890.070   -13740081.67849 -10267736.58646  22969889.846    22969895.863
 03  6  4  1 24 30.0000000  0  6G20G 2G16G 1G25G11
  20756917.078   -22950872.03749 -16739735.20947  20756916.446    20756921.473
  22969470.656   -15112149.15549 -11744021.04146  22969470.067    22969478.040
  22549011.301   -16395343.97149 -12742470.42346  22549010.995    22549016.880
  22181910.963   -20614892.88049 -16041725.11047  22181910.553    22181916.954
  21914516.913   -22522918.57249 -17512001.45947  21914516.826    21914521.999
  22984854.266   -13661444.51149 -10206460.92046  22984854.057    22984860.114
 03  6  4  1 25  0.0000000  0  6G20G 2G16G 1G25G11
  20747668.405   -22999473.98449 -16777606.84048  20747667.769    20747672.796
  22954565.549   -15190475.60549 -11805054.55346  22954564.916    22954572.861
  22535071.277   -16468599.03449 -12799552.23846  22535071.035    22535076.814
  22171881.467   -20667598.11649 -16082794.08147  22171881.036    22171887.472
  21927969.753   -22452223.59149 -17456914.47747  21927969.662    21927974.779
  22999857.936   -13582599.79449 -10145023.53746  22999857.720    22999863.863
 03  6  4  1 25 30.0000000  0  6G20G 2G16G 1G25G11
  20738498.788   -23047660.40149 -16815154.67647  20738498.167    20738503.214
  22939697.758   -15268605.16749 -11865934.62546  22939697.168    22939705.240
  22521193.119   -16541529.31049 -12856380.95246  22521192.833    22521198.575
  22161874.313   -20720185.71649 -16123771.38447  22161873.904    22161880.355
  21941467.012   -22381295.18549 -17401645.60547  21941466.899    21941472.033
  23014900.736   -13503549.79449 -10083426.18846  23014900.496    23014906.651
 03  6  4  1 26  0.0000000  0  6G20G 2G16G 1G25G11
  20729408.601   -23095429.35349 -16852377.22247  20729407.990    20729413.053
  22924868.057   -15346535.60549 -11926659.55346  22924867.424    22924875.455
  22507377.243   -16614132.15949 -12912954.54546  22507376.917    22507382.645
  22151889.501   -20772656.01049 -16164657.28047  22151889.106    22151895.535
  21955008.234   -22310135.62749 -17346196.61547  21955008.114    21955013.247
  23029982.167   -13424296.85649 -10021670.72146  23029981.935    23029988.022
 03  6  4  1 26 30.0000000  0  6G20G 2G16G 1G25G11
  20720398.313   -23142778.56149 -16889272.69347  20720397.697    20720402.759
  22910076.603   -15424264.17249 -11987227.17446  22910076.045    22910084.047
  22493624.241   -16686404.32849 -12969270.45046  22493623.918    22493629.651
  22141927.074   -20825008.77449 -16205451.59947  22141926.673    22141933.051
  21968592.974   -22238747.06149 -17290569.17947  21968592.870    21968598.074
  23045101.636   -13344843.81349  -9959759.30246  23045101.388    23045107.461
 03  6  4  1 27  0.0000000  0  6G20G 2G16G 1G25G11
  20711468.321   -23189706.08049 -16925839.57547  20711467.689    20711472.740
  22895324.222   -15501788.16249 -12047635.39146  22895323.688    22895331.623
  22479934.766   -16758342.94249 -13025326.45546  22479934.445    22479940.096
  22131986.992   -20877244.02449 -16246154.34647  22131986.624    22131992.970
  21982220.925   -22167131.80149 -17234765.09747  21982220.825    21982226.014
  23060258.483   -13265193.98349  -9897694.55346  23060258.225    23060264.330
 03  6  4  1 27 30.0000000  0  6G20G 2G16G 1G25G11
  20702618.997   -23236209.41649 -16962075.92448  20702618.366    20702623.428
  22880611.185   -15579105.03449 -12107882.22846  22880610.722    22880618.583
  22466309.347   -16829945.01649 -13081120.19446  22466308.958    22466314.584
  22122069.319   -20929361.66649 -16286765.45247  22122068.950    22122075.299
  21995891.645   -22095291.56249 -17178785.71447  21995891.571    21995896.798
  23075452.341   -13185349.76549  -9835478.34146  23075452.147    23075458.222
 03  6  4  1 28  0.0000000  0  6G20G 2G16G 1G25G11
  20693850.670   -23282287.17349 -16997980.65648  20693850.046    20693855.102
  22865938.103   -15656212.98249 -12167966.25246  22865937.551    22865945.390
  22452748.350   -16901208.00749 -13136649.72446  22452748.026    22452753.648
  22112173.872   -20981362.39649 -16327285.46247  22112173.481    22112179.850
  22009604.664   -22023229.27149 -17122633.29847  22009604.598    22009609.790
  23090682.592   -13105314.75949  -9773113.46246  23090682.403    23090688.393
 03  6  4  1 28 30.0000000  0  6G20G 2G16G 1G25G11
  20685163.842   -23327936.61049 -17033551.63248  20685163.229    20685168.276
  22851305.242   -15733108.92449 -12227885.06746  22851304.652    22851312.488
  22439252.541   -16972128.86849 -13191912.65946  22439252.209    22439257.818
  22102300.729   -21033245.76949 -16367714.02747  22102300.366    22102306.718
  22023359.727   -21950946.00649 -17066308.69647  22023359.645    22023364.854
  23105948.609   -13025091.32049  -9710601.75246  23105948.434    23105954.444
 03  6  4  1 29  0.0000000  0  6G20G 2G16G 1G25G11
  20676558.872   -23373155.92849 -17068787.44148  20676558.267    20676563.327
  22836713.143   -15809790.31849 -12287636.71146  22836712.602    22836720.403
  22425822.328   -17042704.83249 -13246906.84246  22425821.977    22425827.558
  22092449.930   -21085012.00149 -16408051.30347  22092449.575    22092455.900
  22037156.408   -21878444.14549 -17009813.76047  22037156.314    22037161.519
  23121249.795   -12944682.69849  -9647945.74446  23121249.641    23121255.756
 03  6  4  1 29 30.0000000  0  6G20G 2G16G 1G25G11
  20668036.113   -23417943.29149 -17103686.66748  20668035.507    20668040.555
  22822162.400   -15886254.76749 -12347219.30646  22822161.896    22822169.656
  22412458.328   -17112933.01849 -13301630.04446  22412457.958    22412463.470
  22082621.367   -21136661.22649 -16448297.40647  22082620.980    22082627.322
  22050994.206   -21805726.02149 -16953150.30947  22050994.114    22050999.322
  23136585.757   -12864091.61149  -9585147.55946  23136585.685    23136591.818
 03  6  4  1 30  0.0000000  0  6G20G 2G16G 1G25G11
  20659596.113   -23462295.92549 -17138247.14148  20659595.500    20659600.513
  22807653.487   -15962499.13649 -12406630.40246  22807653.010    22807660.721
  22399161.052   -17182810.56049 -13356079.99146  22399160.704    22399166.220
  22072815.195   -21188192.89449 -16488451.90547  22072814.808    22072821.161
  22064872.906   -21732793.07649 -16896319.45947  22064872.836    22064878.014
  23151955.969   -12783321.16649  -9522209.62046  23151955.835    23151962.065
 03  6  4  1 30 30.0000000  0  6G20G 2G16G 1G25G11
  20651239.059   -23506212.42549 -17172467.77348  20651238.455    20651243.447
  22793186.879   -16038521.55149 -12465868.55146  22793186.276    22793193.997
  22385930.910   -17252334.84149 -13410254.69446  22385930.573    22385936.139
  22063031.269   -21239607.67949 -16528515.33647  22063030.862    22063037.217
  22078791.966   -21659648.10049 -16839323.39247  22078791.890    22078797.063
  23167359.751   -12702374.31649  -9459134.22246  23167359.521    23167365.737
 03  6  4  1 31  0.0000000  0  6G20G 2G16G 1G25G11
  20642965.378   -23549691.03949 -17206347.18648  20642964.763    20642969.757
  22778762.900   -16114319.67349 -12524931.92046  22778762.292    22778770.031
  22372768.602   -17321503.04249 -13464151.91446  22372768.295    22372773.820
  22053269.571   -21290905.82149 -16568487.86747  22053269.150    22053275.471
  22092751.008   -21586293.11249 -16782163.68047  22092750.887    22092756.050
  23182796.517   -12621253.99749  -9395923.66146  23182796.284    23182802.507
 03  6  4  1 31 30.0000000  0  7G13G20G 2G16G 1G25G11
  24647261.369    -4685673.42849  -2976172.77845  24647261.507    24647268.707
  20634775.029   -23592731.47849 -17239885.16648  20634774.403    20634779.400
  22764381.703   -16189892.95549 -12583820.10646  22764381.117    22764388.863
  22359674.146   -17390314.49449 -13517771.14246  22359673.820    22359679.354
  22043529.603   -21342089.30049 -16608371.05247  22043529.222    22043535.522
  22106749.101   -21512732.43049 -16724843.68247  22106749.026    22106754.171
  23198265.224   -12539965.38149  -9332581.94546  23198265.025    23198271.313
 03  6  4  1 32  0.0000000  0  7G13G20G 2G16G 1G25G11
  24632674.416    -4762327.84249  -3035903.37645  24632674.505    24632681.785
  20626668.470   -23635331.52949 -17273079.98848  20626667.865    20626672.870
  22750043.862   -16265238.52949 -12642530.84546  22750043.274    22750050.966
  22346648.194   -17458765.90049 -13571109.83546  22346647.898    22346653.391
  22033811.605   -21393157.59549 -16648164.48247  22033811.200    22033817.505
  22120786.083   -21438967.67549 -16667364.67147  22120785.989    22120791.176
  23213765.536   -12458510.99449  -9269111.06146  23213765.345    23213771.623
 03  6  4  1 32 30.0000000  0  7G13G20G 2G16G 1G25G11
  24618093.909    -4838948.58149  -3095607.72745  24618093.959    24618101.169
  20618646.969   -23677484.86649 -17305926.72348  20618646.368    20618651.360
  22735750.613   -16340349.65949 -12701058.90246  22735750.038    22735757.729
  22333692.074   -17526850.34849 -13624162.57046  22333691.787    22333697.294
  22024116.278   -21444106.54449 -16687864.91947  22024115.902    22024122.201
  22134862.339   -21364996.47449 -16609724.79147  22134862.283    22134867.466
  23229297.765   -12376889.26049  -9205509.76246  23229297.512    23229303.810
 03  6  4  1 33  0.0000000  0  7G13G20G 2G16G 1G25G11
  24603519.585    -4915536.29549  -3155286.33745  24603519.709    24603526.764
  20610710.708   -23719190.16549 -17338424.34148  20610710.112    20610715.066
  22721502.254   -16415224.60649 -12759402.91646  22721501.702    22721509.437
  22320806.249   -17594565.52049 -13676927.56946  22320805.948    22320811.459
  22014443.566   -21494936.90749 -16727472.94847  22014443.178    22014449.503
  22148977.354   -21290821.77849 -16551926.34447  22148977.282    22148982.454
  23244861.005   -12295103.88249  -9141780.96246  23244860.798    23244867.132
 03  6  4  1 33 30.0000000  0  7G13G20G 2G16G 1G25G11
  24588951.387    -4992091.92949  -3214939.93845  24588951.644    24588958.882
  20602859.964   -23760446.25249 -17370571.92048  20602859.347    20602864.272
  22707299.291   -16489861.55249 -12817561.48346  22707298.704    22707306.413
  22307990.986   -17661909.81849 -13729403.57846  22307990.679    22307996.188
  22004793.207   -21545649.61749 -16766989.30147  22004792.799    22004799.145
  22163130.600   -21216446.22649 -16493971.38147  22163130.514    22163135.668
  23260454.724   -12213158.39249  -9077927.38346  23260454.602    23260460.937
 03  6  4  1 34  0.0000000  0  7G13G20G 2G16G 1G25G11
  24574389.194    -5068615.89549  -3274568.86245  24574389.514    24574396.831
  20595095.028   -23801251.32849 -17402368.06248  20595094.393    20595099.320
  22693142.027   -16564258.11649 -12875532.73346  22693141.455    22693149.067
  22295246.865   -17728880.46849 -13781588.42946  22295246.542    22295251.997
  21995165.228   -21596244.75249 -16806414.03447  21995164.864    21995171.155
  22177321.634   -21141871.95149 -16435861.58247  22177321.530    22177326.753
  23276078.331   -12131056.13249  -9013951.64446  23276078.196    23276084.443
 03  6  4  1 34 30.0000000  0  7G13G20G 2G16G 1G25G11
  24559833.199    -5145108.43149  -3334173.30645  24559833.271    24559840.322
  20587416.162   -23841603.93049 -17433811.63248  20587415.529    20587420.448
  22679030.846   -16638412.54649 -12933315.30646  22679030.264    22679037.798
  22282574.266   -17795475.31349 -13833480.44346  22282573.946    22282579.363
  21985559.508   -21646722.88949 -16845747.59747  21985559.124    21985565.383
  22191549.930   -21067101.68749 -16377599.06147  22191549.850    22191555.065
  23291731.100   -12048800.71449  -8949856.54746  23291730.940    23291737.215
 03  6  4  1 35  0.0000000  0  7G13G20G 2G16G 1G25G11
  24545282.915    -5221569.89949  -3393753.53645  24545282.994    24545290.269
  20579823.752   -23881502.20249 -17464901.17548  20579823.115    20579828.033
  22664966.181   -16712322.38549 -12990907.30146  22664965.602    22664973.080
  22269973.742   -17861691.41049 -13885077.33046  22269973.419    22269978.811
  21975976.084   -21697084.02049 -16884989.99547  21975975.689    21975981.893
  22205815.133   -20992137.68549 -16319185.57747  22205815.054    22205820.286
  23307412.486   -11966394.99449  -8885644.35146  23307412.284    23307418.541
 03  6  4  1 35 30.0000000  0  7G13G20G 2G16G 1G25G11
  24530738.661    -5297999.95149  -3453309.30245  24530738.683    24530746.091
  20572318.255   -23920943.66249 -17495634.76248  20572317.611    20572322.556
  22650948.702   -16785984.72149 -13048306.43146  22650948.095    22650955.470
  22257445.832   -17927525.54349 -13936376.58946  22257445.521    22257450.844
  21966414.962   -21747327.77649 -16924140.93147  21966414.588    21966420.811
  22220116.896   -20916981.38549 -16260622.24947  22220116.843    22220122.063
  23323122.001   -11883841.14249  -8821316.72645  23323121.769    23323128.088
 03  6  4  1 36  0.0000000  0  7G13G20G 2G16G 1G25G11
  24516200.282    -5374398.81649  -3512840.75745  24516200.497    24516207.618
  20564899.973   -23959926.88149 -17526011.27948  20564899.316    20564904.258
  22636978.702   -16859397.35649 -13105510.98846  22636978.097    22636985.423
  22244991.116   -17992975.52049 -13987376.50946  22244990.793    22244996.039
  21956876.147   -21797454.31649 -16963200.53147  21956875.771    21956882.009
  22234454.845   -20841634.85949 -16201910.69147  22234454.817    22234460.029
  23338858.977   -11801142.63449  -8756876.38745  23338858.744    23338865.066
 03  6  4  1 36 30.0000000  0  7G13G20G 2G16G 1G25G11
  24501668.025    -5450766.38449  -3572347.82745  24501668.158    24501675.321
  20557569.340   -23998449.61149 -17556028.97348  20557568.701    20557573.621
  22623056.651   -16932557.67549 -13162518.93946  22623056.014    22623063.384
  22232609.947   -18058038.73349 -14038075.04646  22232609.585    22232614.866
  21947359.651   -21847463.71649 -17002168.86047  21947359.279    21947365.531
  22248828.645   -20766100.33549 -16143052.64047  22248828.606    22248833.784
  23354623.043   -11718302.24949  -8692325.48145  23354622.821    23354629.144
 03  6  4  1 37  0.0000000  0  7G13G20G 2G16G 1G25G11
  24487141.516    -5527102.81649  -3631830.62745  24487141.605    24487148.831
  20550326.648   -24036510.10449 -17585686.48148  20550326.025    20550330.916
  22609183.181   -17005463.19349 -13219328.33646  22609182.509    22609189.873
  22220302.831   -18122712.39949 -14088470.04846  22220302.535    22220307.812
  21937865.465   -21897355.80349 -17041045.77547  21937865.102    21937871.309
  22263237.798   -20690380.00349 -16084049.80247  22263237.731    22263242.880
  23370413.544   -11635322.96149  -8627666.36245  23370413.279    23370419.656
 03  6  4  1 37 30.0000000  0  7G13G20G 2G16G 1G25G11
  24472621.036    -5603407.90949  -3691289.00445  24472621.248    24472628.276
  20543172.388   -24074106.12349 -17614982.06348  20543171.778    20543176.657
  22595358.538   -17078111.59849 -13275937.39046  22595357.909    22595365.270
  22208070.476   -18186993.90149 -14138559.47046  22208070.133    22208075.445
  21928393.599   -21947130.48349 -17079831.20847  21928393.229    21928399.427
  22277681.983   -20614475.68649 -16024903.60347  22277681.862    22277687.023
  23386229.892   -11552207.64049  -8562901.20645  23386229.670    23386236.059
 03  6  4  1 38  0.0000000  0  7G13G20G 2G16G 1G25G11
  24458106.710    -5679681.75349  -3750723.03845  24458106.626    24458113.830
  20536106.812   -24111235.79649 -17643914.25748  20536106.200    20536111.080
  22581583.366   -17150500.34149 -13332344.11246  22581582.746    22581590.037
  22195913.192   -18250880.27949 -14188341.01746  22195912.869    22195918.278
  21918944.108   -21996787.75049 -17118525.15247  21918943.741    21918949.948
  22292160.735   -20538389.19849 -15965615.45047  22292160.628    22292165.846
  23402071.600   -11468958.98649  -8498032.19045  23402071.343    23402077.760
 03  6  4  1 38 30.0000000  0  7G13G20G 2G16G 1G25G11
  24443598.252    -5755924.32049  -3810132.68545  24443598.119    24443605.148
  20529130.293   -24147897.62249 -17672481.89348  20529129.689    20529134.578
  22567858.035   -17222626.88649 -13388546.52346  22567857.447    22567864.713
  22183831.622   -18314369.01249 -14237812.70346  22183831.253    22183836.679
  21909517.020   -22046327.50949 -17157127.52547  21909516.667    21909522.846
  22306673.804   -20462122.67449 -15906187.01947  22306673.671    22306678.931
  23417938.107   -11385580.31249  -8433061.84545  23417937.819    23417944.286
 03  6  4  1 39  0.0000000  0  7G13G20G 2G16G 1G25G11
  24429095.324    -5832136.30349  -3869518.51245  24429095.339    24429102.226
  20522243.073   -24184090.22849 -17700683.90548  20522242.437    20522247.331
  22554182.901   -17294489.75049 -13444543.47746  22554182.345    22554189.608
  22171826.086   -18377458.07149 -14286972.94946  22171825.725    22171831.208
  21900112.102   -22095750.49749 -17195638.91247  21900111.728    21900117.945
  22321220.552   -20385678.95349 -15846620.50447  22321220.431    22321225.729
  23433828.784   -11302074.69549  -8367992.58145  23433828.507    23433834.926
 03  6  4  1 39 30.0000000  0  7G13G20G 2G16G 1G25G11
  24414598.536    -5908316.82949  -3928879.82545  24414598.635    24414605.513
  20515445.695   -24219810.43149 -17728517.80848  20515445.083    20515449.974
  22540558.678   -17366085.35449 -13500332.17646  22540558.146    22540565.361
  22159897.390   -18440143.39949 -14335818.59146  22159897.073    22159902.546
  21890729.620   -22145055.63949 -17234058.46347  21890729.244    21890735.475
  22335800.969   -20309058.37149 -15786916.17547  22335800.877    22335806.230
  23449743.250   -11218444.05249  -8302825.90945  23449742.910    23449749.315
 03  6  4  1 40  0.0000000  0  7G13G20G 2G16G 1G25G11
  24400107.700    -5984466.04249  -3988216.74645  24400107.867    24400114.686
  20508738.543   -24255056.72149 -17755982.43348  20508737.936    20508742.793
  22526985.785   -17437411.26049 -13555910.73146  22526985.163    22526992.417
  22148045.957   -18502423.01449 -14384348.10646  22148045.667    22148051.070
  21881369.616   -22194242.91549 -17272386.17947  21881369.233    21881375.428
  22350414.597   -20232263.18149 -15727075.78747  22350414.500    22350419.848
  23465680.750   -11134691.71949  -8237564.38745  23465680.477    23465686.895
 03  6  4  1 40 30.0000000  0  7G13G20G 2G16G 1G25G11
  24385622.914    -6060583.64449  -4047529.04745  24385623.075    24385629.837
  20502121.969   -24289827.18749 -17783076.28048  20502121.347    20502126.187
  22513464.601   -17508465.12849 -13611277.30346  22513463.953    22513471.238
  22136272.288   -18564294.06849 -14432559.25646  22136271.998    22136277.348
  21872032.045   -22243312.18149 -17310621.94347  21872031.648    21872037.783
  22365061.023   -20155295.64249 -15667101.09647  22365060.950    22365066.269
  23481640.952   -11050820.36949  -8172210.13745  23481640.668    23481647.242
 03  6  4  1 41  0.0000000  0  7G13G20G 2G16G 1G25G11
  24371144.142    -6136670.28849  -4106817.22245  24371144.229    24371150.895
  20495596.156   -24324120.53949 -17809798.35348  20495595.525    20495600.353
  22499995.545   -17579244.95649 -13666430.34246  22499994.908    22500002.247
  22124576.838   -18625754.12049 -14480450.14746  22124576.564    22124581.839
  21862716.831   -22292263.92549 -17348766.12847  21862716.426    21862722.552
  22379739.898   -20078157.99249 -15606993.85847  22379739.779    22379745.126
  23497623.182   -10966833.16449  -8106765.62345  23497622.944    23497629.603
 03  6  4  1 41 30.0000000  0  7G13G20G 2G16G 1G25G11
  24356671.177    -6212725.91849  -4166081.24145  24356671.277    24356677.775
  20489161.550   -24357934.62749 -17836146.97748  20489160.909    20489165.735
  22486579.114   -17649748.27749 -13721367.93046  22486578.506    22486585.858
  22112960.033   -18686800.69349 -14528018.84846  22112959.717    22112965.007
  21853423.983   -22341098.03849 -17386818.65847  21853423.560    21853429.652
  22394450.677   -20000852.30949 -15546755.67647  22394450.594    22394455.891
  23513626.928   -10882732.83149  -8041232.94245  23513626.705    23513633.395
 03  6  4  1 42  0.0000000  0  7G13G20G 2G16G 1G25G11
  24342204.091    -6288750.30849  -4225320.89645  24342204.154    24342210.692
  20482818.496   -24391267.41949 -17862120.56348  20482817.860    20482822.676
  22473215.877   -17719972.38049 -13776087.93746  22473215.247    22473222.587
  22101422.451   -18747430.94849 -14575263.14246  22101422.134    22101427.414
  21844153.602   -22389814.08449 -17424779.18447  21844153.198    21844159.267
  22409193.134   -19923380.15049 -15486387.77647  22409193.078    22409198.397
  23529651.667   -10798522.03149  -7975614.18345  23529651.491    23529658.231
 03  6  4  1 42 30.0000000  0  7G13G20G 2G16G 1G25G11
  24327743.022    -6364743.19749  -4284536.01445  24327742.994    24327749.679
  20476567.358   -24424117.13849 -17887717.72748  20476566.738    20476571.584
  22459906.237   -17789914.73249 -13830588.40046  22459905.631    22459912.931
  22089964.597   -18807642.22949 -14622180.96946  22089964.296    22089969.572
  21834905.758   -22438411.84249 -17462647.54247  21834905.350    21834911.400
  22423966.921   -19845743.60849 -15425891.78047  22423966.861    22423972.188
  23545696.893   -10714203.95749  -7909911.84345  23545696.763    23545703.526
 03  6  4  1 43  0.0000000  0  7G13G20G 2G16G 1G25G11
  24313287.802    -6440704.56149  -4343726.57745  24313287.753    24313294.664
  20470408.458   -24456482.13649 -17912937.19248  20470407.862    20470412.697
  22446650.602   -17859573.24249 -13884867.68746  22446650.028    22446657.280
  22078586.910   -18867432.25149 -14668770.53947  22078586.573    22078591.842
  21825680.430   -22486891.29649 -17500423.71447  21825680.026    21825686.048
  22438771.589   -19767944.32349 -15365268.98447  22438771.542    22438776.903
  23561761.943   -10629781.54849  -7844128.20145  23561761.851    23561768.593
 03  6  4  1 43 30.0000000  0  7G13G20G 2G16G 1G25G11
  24298838.615    -6516634.69849  -4402892.80345  24298838.503    24298845.597
  20464342.251   -24488360.28549 -17937777.29648  20464341.661    20464346.476
  22433449.435   -17928945.50849 -13938923.91946  22433448.817    22433456.101
  22067289.923   -18926798.08049 -14715029.57847  22067289.573    22067294.847
  21816477.603   -22535252.35449 -17538107.62747  21816477.197    21816483.284
  22453607.004   -19689984.22949 -15304520.88247  22453606.931    22453612.317
  23577846.413   -10545257.40349  -7778265.28645  23577846.266    23577853.101
 03  6  4  1 44  0.0000000  0  7G13G20G 2G16G 1G25G11
  24284395.393    -6592533.40049  -4462034.52245  24284395.364    24284402.446
  20458368.969   -24519750.21849 -17962236.97348  20458368.366    20458373.164
  22420303.196   -17998029.12149 -13992755.23646  22420302.568    22420309.892
  22056074.061   -18985737.57449 -14760956.40347  22056073.708    22056078.974
  21807297.274   -22583494.91249 -17575699.19947  21807296.893    21807302.990
  22468472.561   -19611865.11149 -15243648.85546  22468472.530    22468477.923
  23593949.686   -10460634.60449  -7712325.48945  23593949.548    23593956.354
 03  6  4  1 44 30.0000000  0  7G13G20G 2G16G 1G25G11
  24269958.311    -6668400.65349  -4521151.75245  24269958.238    24269965.247
  20452488.920   -24550650.10549 -17986314.79648  20452488.297    20452493.091
  22407212.318   -18066821.61549 -14046359.70046  22407211.690    22407219.035
  22044939.874   -19044248.02949 -14806548.90947  22044939.526    22044944.761
  21798139.593   -22631618.69249 -17613198.21447  21798139.202    21798145.308
  22483367.981   -19533589.31849 -15182654.75646  22483367.918    22483373.332
  23610071.192   -10375915.93649  -7646310.98445  23610071.038    23610077.855
 03  6  4  1 45  0.0000000  0  7G13G20G 2G16G 1G25G11
  24255527.097    -6744236.81349  -4580244.75845  24255527.128    24255533.780
  20446702.345   -24581058.63449 -18010009.74348  20446701.723    20446706.498
  22394177.216   -18135321.13749 -14099735.87646  22394176.634    22394183.960
  22033887.674   -19102327.39649 -14851805.50147  22033887.357    22033892.558
  21789004.442   -22679624.23149 -17650605.10247  21789004.026    21789010.143
  22498292.766   -19455159.19249 -15121540.39546  22498292.726    22498298.119
  23626210.366   -10291104.54449  -7580224.25045  23626210.205    23626216.988
 03  6  4  1 45 30.0000000  0  7G13G20G 2G16G 1G25G11
  24241101.950    -6820040.99849  -4639312.83745  24241102.134    24241108.536
  20441009.712   -24610973.48249 -18033320.00648  20441009.094    20441013.885
  22381198.385   -18203525.00349 -14152881.67346  22381197.809    22381205.095
  22022918.095   -19159972.67849 -14896723.84947  22022917.791    22022922.973
  21779891.880   -22727511.15049 -17687919.56347  21779891.455    21779897.553
  22513246.585   -19376576.26749 -15060306.97646  22513246.544    22513251.971
  23642366.705   -10206202.87249  -7514067.19445  23642366.540    23642373.310
 03  6  4  1 46  0.0000000  0  7G13G20G 2G16G 1G25G11
  24226682.769    -6895813.89149  -4698356.54445  24226683.016    24226689.408
  20435411.393   -24640392.79349 -18056244.13348  20435410.779    20435415.566
  22368276.374   -18271430.43749 -14205794.92046  22368275.805    22368283.053
  22012031.633   -19217181.18049 -14941301.84747  22012031.358    22012036.519
  21770801.982   -22775278.90849 -17725141.16347  21770801.548    21770807.632
  22528229.246   -19297841.90349 -14998955.54746  22528229.221    22528234.663
  23658539.727   -10121213.53549  -7447841.80145  23658539.564    23658546.271
 03  6  4  1 46 30.0000000  0  7G13G20G 2G16G 1G25G11
  24212269.526    -6971555.49549  -4757375.86245  24212269.705    24212276.241
  20429907.640   -24669315.21149 -18078781.06848  20429907.020    20429911.811
  22355411.518   -18339035.72149 -14258474.28046  22355410.921    22355418.142
  22001228.815   -19273950.44649 -14985537.58647  22001228.517    22001233.634
  21761734.668   -22822927.73249 -17762270.09647  21761734.265    21761740.326
  22543240.332   -19218958.50149 -14937487.97746  22543240.270    22543245.600
  23674728.788   -10036139.64049  -7381550.48945  23674728.687    23674735.290
 03  6  4  1 47  0.0000000  0  7G13G20G 2G16G 1G25G11
  24197862.403    -7047265.24149  -4816370.36745  24197862.528    24197869.047
  20424498.754   -24697739.06749 -18100929.51948  20424498.144    20424502.919
  22342604.270   -18406338.03849 -14310917.57346  22342603.687    22342610.851
  21990509.846   -19330278.62349 -15029429.62347  21990509.577    21990514.678
  21752690.035   -22870457.24349 -17799306.05147  21752689.636    21752695.718
  22558279.317   -19139927.76349 -14875905.61846  22558279.258    22558284.679
  23690933.335    -9950984.31049  -7315195.74445  23690933.159    23690939.762
 03  6  4  1 47 30.0000000  0  7G13G20G 2G16G 1G25G11
  24183461.399    -7122943.04449  -4875339.97345  24183461.498    24183467.848
  20419185.153   -24725662.32649 -18122687.89448  20419184.533    20419189.294
  22329855.154   -18473335.06349 -14363122.97646  22329854.543    22329861.635
  21979875.464   -19386162.68449 -15072975.59347  21979875.189    21979880.250
  21743668.184   -22917867.20049 -17836248.85447  21743667.802    21743673.886
  22573346.103   -19060751.49749 -14814209.84446  22573346.078    22573351.460
  23707152.917    -9865749.91349  -7248779.39945  23707152.710    23707159.406
 03  6  4  1 48  0.0000000  0  7G13G20G 2G16G 1G25G11
  24169066.467    -7198589.23949  -4934284.96345  24169066.604    24169072.796
  20413967.037   -24753083.67249 -18144055.16648  20413966.415    20413971.184
  22317164.432   -18540024.98249 -14415089.06446  22317163.819    22317170.898
  21969325.960   -19441600.55049 -15116173.88147  21969325.662    21969330.728
  21734669.038   -22965157.93649 -17873098.75747  21734668.652    21734674.696
  22588440.195   -18981431.70049 -14752402.22846  22588440.138    22588445.521
  23723386.896    -9780439.82349  -7182304.05645  23723386.612    23723393.354
 03  6  4  1 48 30.0000000  0  7G13G20G 2G16G 1G25G11
  24154677.448    -7274203.58149  -4993205.11145  24154677.485    24154683.832
  20408844.812   -24780001.14949 -18165029.81448  20408844.191    20408848.959
  22304532.618   -18606405.16949 -14466813.81446  22304532.034    22304539.105
  21958861.900   -19496589.31949 -15159022.22547  21958861.597    21958866.641
  21725692.720   -23012328.75949 -17909855.22247  21725692.326    21725698.392
  22603561.249   -18901969.97249 -14690484.02146  22603561.240    22603566.611
  23739634.847    -9695056.40149  -7115771.55445  23739634.592    23739641.340
 03  6  4  1 49  0.0000000  0  7G13G20G 2G16G 1G25G11
  24140294.299    -7349786.18249  -5052100.53545  24140294.542    24140300.856
  20403818.716   -24806413.42449 -18185610.80448  20403818.101    20403822.849
  22291960.179   -18672473.55249 -14518295.59447  22291959.538    22291966.623
  21948483.739   -19551126.63149 -15201518.78647  21948483.431    21948488.494
  21716739.168   -23059379.78749 -17946518.33847  21716738.785    21716744.840
  22618709.010   -18822368.41249 -14628456.86146  22618708.963    22618714.367
  23755896.141    -9609602.52549  -7049184.17745  23755895.956    23755902.719
 03  6  4  1 49 30.0000000  0  7G13G20G 2G16G 1G25G11
  24125917.325    -7425336.40849  -5110970.73945  24125917.605    24125924.002
  20398889.102   -24832318.64649 -18205796.68348  20398888.494    20398893.274
  22279447.567   -18738227.33149 -14569532.22947  22279446.950    22279454.012
  21938191.942   -19605210.18649 -15243661.77047  21938191.626    21938196.672
  21707808.628   -23106310.27149 -17983087.52047  21707808.227    21707814.250
  22633883.037   -18742628.42349 -14566321.82946  22633882.979    22633888.405
  23772170.347    -9524080.67949  -6982543.83545  23772170.229    23772176.922
 03  6  4  1 50  0.0000000  0  7G13G20G 2G16G 1G25G11
  24111546.676    -7500854.90749  -5169816.21445  24111546.904    24111553.226
  20394056.170   -24857715.70349 -18225586.59048  20394055.569    20394060.367
  22266995.197   -18803664.77849 -14620522.37147  22266994.540    22267001.605
  21927986.811   -19658838.45949 -15285449.99247  21927986.471    21927991.514
  21698900.903   -23153120.70349 -18019563.14947  21698900.484    21698906.472
  22649082.980   -18662752.36949 -14504080.76746  22649082.906    22649088.328
  23788456.841    -9438494.85149  -6915853.62145  23788456.764    23788463.555
 03  6  4  1 50 30.0000000  0  7G13G20G 2G16G 1G25G11
  24097181.888    -7576341.66849  -5228636.96745  24097182.188    24097188.475
  20389320.217   -24882603.08149 -18244979.34748  20389319.618    20389324.421
  22254603.342   -18868783.94849 -14671264.51247  22254602.719    22254609.762
  21917868.755   -19712008.99249 -15326881.53547  21917868.415    21917873.479
  21690015.968   -23199811.17149 -18055945.30447  21690015.555    21690021.527
  22664308.346   -18582742.26749 -14441735.27046  22664308.286    22664313.723
  23804755.043    -9352847.53949  -6849115.51645  23804754.951    23804761.728
 03  6  4  1 51  0.0000000  0  7G13G20G 2G16G 1G25G11
  24082823.300    -7651796.09249  -5287432.52745  24082823.608    24082829.973
  20384681.706   -24906978.54849 -18263973.21248  20384681.109    20384685.919
  22242272.594   -18933581.96549 -14721756.39847  22242271.966    22242279.051
  21907838.438   -19764718.71749 -15367954.00347  21907838.079    21907843.125
  21681153.964   -23246381.10849 -18092233.54347  21681153.570    21681159.558
  22679559.069   -18502599.34549 -14379286.27346  22679558.998    22679564.411
  23821064.452    -9267141.11549  -6782331.33745  23821064.300    23821071.246
 03  6  4  1 51 30.0000000  0  7G13G20G 2G16G 1G25G11
  24068470.801    -7727218.61849  -5346203.23745  24068471.174    24068477.407
  20380140.815   -24930841.16049 -18282567.44548  20380140.212    20380145.016
  22230003.289   -18998057.12249 -14771996.70647  22230002.669    22230009.780
  21897896.065   -19816965.82749 -15408666.00347  21897895.722    21897900.761
  21672314.875   -23292830.53649 -18128427.87047  21672314.509    21672320.506
  22694834.636   -18422326.02849 -14316735.66846  22694834.583    22694839.932
  23837384.610    -9181378.69849  -6715503.53645  23837384.332    23837391.305
 03  6  4  1 52  0.0000000  0  7G13G20G 2G16G 1G25G11
  24054124.253    -7802609.47349  -5404949.27845  24054124.646    24054130.852
  20375697.786   -24954189.45049 -18300760.90748  20375697.168    20375701.951
  22217795.845   -19062207.39549 -14821983.86247  22217795.231    22217802.300
  21888042.170   -19868748.10949 -15449015.79747  21888041.824    21888046.888
  21663498.787   -23339159.51449 -18164528.34047  21663498.402    21663504.356
  22710134.579   -18341924.50149 -14254085.15546  22710134.501    22710139.846
  23853714.819    -9095563.13549  -6648634.32345  23853714.587    23853721.541
 03  6  4  1 52 30.0000000  0  7G13G20G 2G16G 1G25G11
  24039784.007    -7877967.30849  -5463669.58945  24039784.363    24039790.661
  20371353.103   -24977021.14049 -18318551.82348  20371352.486    20371357.232
  22205650.858   -19126029.50049 -14871715.29947  22205650.229    22205657.255
  21878277.344   -19920062.27949 -15489000.83347  21878277.024    21878282.086
  21654705.837   -23385366.79949 -18200533.98847  21654705.439    21654711.396
  22725458.741   -18261395.65349 -14191335.44446  22725458.632    22725464.006
  23870054.812    -9009696.44249  -6581725.27545  23870054.545    23870061.539
 03  6  4  1 53  0.0000000  0  7G13G20G 2G16G 1G25G11
  24025450.031    -7953292.82649  -5522364.72145  24025450.317    24025456.626
  20367106.871   -24999335.18249 -18335939.37448  20367106.256    20367110.977
  22193568.575   -19189521.99049 -14921189.90047  22193567.943    22193574.910
  21868601.941   -19970906.71849 -15528619.84047  21868601.632    21868606.658
  21645935.875   -23431452.86849 -18236445.18247  21645935.511    21645941.447
  22740806.802   -18180741.47949 -14128488.06146  22740806.677    22740812.055
  23886403.988    -8923781.23249  -6514778.42045  23886403.667    23886410.810
 03  6  4  1 53 30.0000000  0  7G13G20G 2G16G 1G25G11
  24011122.242    -8028585.61949  -5581034.34145  24011122.496    24011128.811
  20362959.426   -25021130.02149 -18352922.35248  20362958.807    20362963.552
  22181549.560   -19252682.20049 -14970405.58147  22181548.923    22181555.865
  21859016.306   -20021279.38749 -15567871.23247  21859015.978    21859020.983
  21637189.124   -23477417.28849 -18272261.58647  21637188.746    21637194.704
  22756178.336   -18099963.51349 -14065544.22446  22756178.246    22756183.636
  23902761.489    -8837822.19649  -6447797.40745  23902761.242    23902768.387
 03  6  4  1 54  0.0000000  0  7G13G20G 2G16G 1G25G11
  23996800.806    -8103845.68049  -5639678.46545  23996800.970    23996807.158
  20358911.087   -25042404.09749 -18369499.54248  20358910.480    20358915.200
  22169594.165   -19315507.96249 -15019360.65747  22169593.510    22169600.417
  21849520.925   -20071177.75849 -15606753.04247  21849520.622    21849525.607
  21628465.580   -23523259.75949 -18307982.96547  21628465.205    21628471.137
  22771572.973   -18019063.89049 -14002505.60246  22771572.898    22771578.345
  23919127.111    -8751820.80349  -6380783.40045  23919126.802    23919134.027
 03  6  4  1 54 30.0000000  0  7G13G20G 2G16G 1G25G11
  23982485.505    -8179073.13949  -5698297.18445  23982485.650    23982491.747
  20354962.101   -25063156.28649 -18385670.06348  20354961.483    20354966.208
  22157702.786   -19377997.35149 -15068053.62247  22157702.152    22157709.027
  21840116.271   -20120599.68449 -15645263.59747  21840115.943    21840120.881
  21619765.218   -23568980.29149 -18343609.31747  21619764.848    21619770.804
  22786990.499   -17938044.69649 -13939373.78646  22786990.435    22786995.810
  23935500.251    -8665780.04149  -6313738.70645  23935500.028    23935507.172
 03  6  4  1 55  0.0000000  0  7G13G20G 2G16G 1G25G11
  23968176.480    -8254267.76049  -5756890.32245  23968176.576    23968182.514
  20351112.727   -25083384.84449 -18401432.56948  20351112.108    20351116.826
  22145875.808   -19440148.30549 -15116482.87747  22145875.200    22145882.041
  21830802.582   -20169543.18949 -15683401.35947  21830802.270    21830807.179
  21611088.132   -23614578.53749 -18379140.38947  21611087.746    21611093.737
  22802430.445   -17856907.34149 -13876149.91446  22802430.386    22802435.761
  23951880.289    -8579702.52949  -6246665.38345  23951880.058    23951887.189
 03  6  4  1 55 30.0000000  0  7G13G20G 2G16G 1G25G11
  23953873.805    -8329428.95349  -5815457.41645  23953873.877    23953879.691
  20347363.309   -25103088.21249 -18416785.83348  20347362.684    20347367.386
  22134113.722   -19501958.09649 -15164646.28947  22134113.132    22134119.965
  21821580.447   -20218005.47549 -15721164.14647  21821580.125    21821585.080
  21602434.458   -23660053.87949 -18414575.69047  21602434.056    21602440.050
  22817892.594   -17775653.38449 -13812835.18446  22817892.532    22817897.948
  23968266.769    -8493590.75649  -6179565.37045  23968266.574    23968273.759
 03  6  4  1 56  0.0000000  0  7G13G20G 2G16G 1G25G11
  23939577.336    -8404557.21649  -5873998.84845  23939577.396    23939583.053
  20343714.002   -25122265.38649 -18431729.07748  20343713.410    20343718.089
  22122416.902   -19563425.22949 -15212542.70647  22122416.300    22122423.117
  21812450.244   -20265984.83949 -15758550.63147  21812449.925    21812454.858
  21593804.058   -23705406.60649 -18449915.44947  21593803.681    21593809.660
  22833376.523   -17694284.76049 -13749431.10746  22833376.442    22833381.892
  23984659.187    -8407448.00049  -6112441.21845  23984659.037    23984666.185
 03  6  4  1 56 30.0000000  0  7G13G20G 2G16G 1G25G11
  23925287.177    -8479652.21949  -5932514.38145  23925287.259    23925292.939
  20340165.168   -25140914.71849 -18446261.01248  20340164.557    20340169.237
  22110785.741   -19624547.25149 -15260170.19947  22110785.152    22110791.942
  21803412.353   -20313479.07749 -15795559.09347  21803412.042    21803416.954
  21585197.157   -23750636.21649 -18485159.27147  21585196.779    21585202.718
  22848881.966   -17612803.28449 -13685939.06246  22848881.898    22848887.356
  24001057.021    -8321277.03349  -6045295.08045  24001056.864    24001064.075
 03  6  4  1 57  0.0000000  0  7G13G20G 2G16G 1G25G11
  23911003.333    -8554713.66749  -5991003.74445  23911003.367    23911009.118
  20336717.067   -25159034.67449 -18460380.44748  20336716.454    20336721.122
  22099220.698   -19685321.82149 -15307526.94547  22099220.108    22099226.898
  21794467.204   -20360485.87749 -15832187.73747  21794466.905    21794471.838
  21576613.743   -23795742.36749 -18520306.90247  21576613.342    21576619.260
  22864408.470   -17531210.55749 -13622360.36446  22864408.430    22864413.988
  24017459.775    -8235080.38149  -5978128.91745  24017459.598    24017466.730
 03  6  4  1 57 30.0000000  0  7G13G20G 2G16G 1G25G11
  23896725.937    -8629741.07649  -6049466.60245  23896726.151    23896731.824
  20333369.994   -25176623.59649 -18474086.09348  20333369.391    20333374.062
                   -885388.72049   -665112.30743
  21785615.341   -20407002.63449 -15868434.52447  21785615.033    21785619.955
  21568053.900   -23840724.50849 -18555357.90747  21568053.507    21568059.385
  22879955.984   -17449507.87949 -13558695.98346  22879955.926    22879961.563
  24033866.876    -8148860.49749  -5910944.66745  24033866.671    24033873.806
 03  6  4  1 58  0.0000000  0  7G13G20G 2G16G 1G25G11
  23882455.071    -8704734.21649  -6107902.74345  23882455.290    23882461.018
  20330124.202   -25193680.34349 -18487377.05448  20330123.598    20330128.254
                   -828523.99049   -618308.74643
  21776857.037   -20453027.69949 -15904298.17647  21776856.736    21776861.684
  21559517.702   -23885582.51749 -18590312.19347  21559517.317    21559523.177
  22895524.041   -17367697.12949 -13494947.37146  22895524.038    22895529.630
  24050277.948    -8062620.13849  -5843744.45545  24050277.659    24050284.779
 03  6  4  1 58 30.0000000  0  7G13G20G 2G16G 1G25G11
  23868190.685    -8779693.98549  -6166312.90245  23868190.855    23868196.578
  20326979.810   -25210204.21849 -18500252.79148  20326979.195    20326983.837
                   -888244.15249   -664544.06043
  21768192.554   -20498559.68449 -15939777.60547  21768192.264    21768197.245
  21551005.095   -23930316.68349 -18625169.97147  21551004.680    21551010.561
  22911112.241   -17285780.92349 -13431116.60546  22911112.217    22911117.818
  24066692.246    -7976362.94149  -5776531.13145  24066692.056    24066698.998
 03  6  4  1 59  0.0000000  0  6G13G20G16G 1G25G11
  23853932.582    -8854620.47149  -6224697.11845  23853932.846    23853938.527
  20323937.025   -25226194.26549 -18512712.56448  20323936.412    20323941.028
  21759622.425   -20543596.29149 -15974871.02947  21759622.107    21759627.033
  21542516.051   -23974926.78249 -18659931.06247  21542515.667    21542521.534
  22926720.205   -17203761.11949 -13367205.11946  22926720.142    22926725.682
  24083109.265    -7890091.38249  -5709306.61345  24083109.051    24083116.082
 03  6  4  1 59 30.0000000  0  7G13G20G 2G16G 1G25G11
  23839680.971    -8929512.81149  -6283054.73445  23839681.153    23839686.959
  20320996.172   -25241648.60549 -18524754.90648  20320995.538    20321000.169
                   -720073.53749   -533377.77946                  22042406.496
  21751146.918   -20588135.21049 -16009576.64047  21751146.605    21751151.531
  21534050.787   -24019411.91549 -18694594.78347  21534050.417    21534056.281
  22942347.618   -17121638.62849 -13303213.59746  22942347.573    22942353.036
  24099528.528    -7803807.92849  -5642072.81945  24099528.304    24099535.363
 03  6  4  2  0  0.0000000  0  7G13G20G 2G16G 1G25G11
  23825435.817    -9004371.11449  -6341385.81245  23825436.114    23825441.801
  20318157.397   -25256566.32949 -18536379.10448  20318156.783    20318161.420
  22031240.245     -778721.60649   -579077.52647  22031239.350    22031246.097
  21742766.457   -20632174.78549 -16043893.16047  21742766.176    21742771.018
  21525609.285   -24063772.37149 -18729161.34647  21525608.911    21525614.738
  22957994.240   -17039415.58049 -13239143.71146  22957994.161    22957999.550
  24115949.349    -7717515.84149  -5574832.29045  24115949.146    24115956.224
 03  6  4  2  0 30.0000000  0  7G13G20G 2G16G 1G25G11
  23811197.356    -9079194.87549  -6399689.98045  23811197.561    23811203.234
  20315421.125   -25270945.59549 -18547583.72848  20315420.497    20315425.135
  22020149.020     -837007.68949   -624495.19747  22020147.939    22020154.665
  21734481.484   -20675712.65449 -16077818.73347  21734481.142    21734485.970
  21517191.640   -24108007.40649 -18763630.18647  21517191.259    21517197.056
  22973659.715   -16957093.22949 -13174996.46246  22973659.626    22973665.065
  24132371.569    -7631217.09349  -5507586.59445  24132371.446    24132378.501
 03  6  4  2  1  0.0000000  0  7G13G20G 2G16G 1G25G11
  23796965.430    -9153983.95449  -6457967.11245  23796965.584    23796971.274
  20312787.501   -25284785.29649 -18558367.90748  20312786.870    20312791.526
  22009125.647     -894929.82149   -669629.28047  22009125.709    22009132.381
  21726292.323   -20718746.69649 -16111351.71947  21726292.021    21726296.839
  21508797.893   -24152116.73449 -18798001.07347  21508797.489    21508803.289
  22989343.678   -16874673.33949 -13110773.20546  22989343.619    22989349.120
  24148794.457    -7544914.78549  -5440338.11445  24148794.428    24148801.333
 03  6  4  2  1 30.0000000  0  7G13G20G 2G16G 1G25G11
  23782740.108    -9228738.34849  -6516217.22745  23782740.352    23782745.769
  20310256.703   -25298084.78349 -18568731.14248  20310256.082    20310260.739
  21998173.298     -952486.38649   -714478.50547  21998173.062    21998179.682
  21718199.373   -20761275.26349 -16144490.82547  21718199.084    21718203.858
  21500428.060   -24196100.24949 -18832273.91847  21500427.694    21500433.493
  23005045.910   -16792157.91549 -13046475.50446  23005045.828    23005051.307
  24165217.386    -7458611.56749  -5373088.92545  24165217.378    24165224.324
 03  6  4  2  2  0.0000000  0  7G13G20G 2G16G 1G25G11
  23768521.404    -9303458.39649  -6574440.57745  23768521.435    23768526.974
  20307828.893   -25310843.09849 -18578672.68348  20307828.283    20307832.909
  21987290.582    -1009676.03849   -759041.81247  21987290.226    21987296.813
  21710202.890   -20803297.08849 -16177235.06347  21710202.580    21710207.335
  21492082.163   -24239958.35249 -18866449.03547  21492081.781    21492087.565
  23020765.925   -16709549.05349 -12982104.99846  23020765.835    23020771.341
  24181639.847    -7372310.98549  -5305841.80145  24181639.810    24181646.768
 03  6  4  2  2 30.0000000  0  7G13G20G 2G16G 1G25G11
  23754309.274    -9378143.16749  -6632636.43945  23754309.224    23754314.889
  20305504.486   -25323058.07749 -18588190.84648  20305503.872    20305508.513
  21976478.279    -1066495.34449   -803316.55447  21976477.821    21976484.417
  21702303.402   -20844809.12349 -16209582.07547  21702303.108    21702307.830
  21483760.435   -24283689.46949 -18900525.21247  21483760.032    21483765.781
  23036503.623   -16626847.13549 -12917661.98946  23036503.541    23036509.123
  24198061.579    -7286014.64049  -5238597.98245  24198061.530    24198068.454
 03  6  4  2  3  0.0000000  0  7G13G20G 2G16G 1G25G11
  23740103.828    -9452792.81749  -6690804.92745  23740103.818    23740109.500
  20303283.551   -25334728.98849 -18597285.06148  20303282.940    20303287.598
  21965736.666    -1122943.08449   -847301.75747  21965736.147    21965742.746
  21694501.183   -20885809.84249 -16241530.65147  21694500.870    21694505.597
  21475462.801   -24327293.74449 -18934502.54447  21475462.367    21475468.129
  23052258.518   -16544054.75449 -12853148.47546  23052258.383    23052263.968
  24214482.123    -7199725.36649  -5171359.64945  24214481.973    24214488.991
 03  6  4  2  3 30.0000000  0  8G13G20G 4G 2G16G 1G25G11
  23725904.627    -9527409.65749  -6748947.85745  23725904.858    23725910.462
  20301165.889   -25345857.53449 -18605956.65748  20301165.276    20301169.922
  24760019.622    -6141966.09249  -4755815.61445  24760019.836    24760026.687
  21955065.550    -1179020.04249   -890998.04147  21955065.005    21955071.612
  21686796.094   -20926300.10949 -16273081.47747  21686795.794    21686800.544
  21467188.806   -24370773.63249 -18968382.95547  21467188.395    21467194.161
  23068029.839   -16461176.06249 -12788567.70346  23068029.716    23068035.257
  24230900.101    -7113448.89649  -5104131.31445  24230900.017    24230906.797
 03  6  4  2  4  0.0000000  0  8G13G20G 4G 2G16G 1G25G11
  23711712.402    -9601989.90349  -6807062.26145  23711712.673    23711718.249
  20299152.319   -25356438.86249 -18614201.84548  20299151.700    20299156.335
  24752044.333    -6183876.25649  -4788472.83145  24752044.565    24752051.737
  21944466.066    -1234720.40649   -934400.86747  21944465.513    21944472.165
  21679189.160   -20966274.57049 -16304230.37347  21679188.880    21679193.596
  21458939.336   -24414125.01549 -19002163.22947  21458938.906    21458944.657
  23083817.887   -16378209.05849 -12723918.13346  23083817.805    23083823.414
  24247315.875    -7027183.98349  -5036911.97845  24247315.852    24247322.537
 03  6  4  2  4 30.0000000  0  8G13G20G 4G 2G16G 1G25G11
  23697527.202    -9676533.16549  -6865147.86645  23697527.514    23697533.137
  20297243.141   -25366471.50249 -18622019.48548  20297242.531    20297247.162
  24744161.079    -6225303.44149  -4820753.74945  24744161.354    24744168.430
  21933938.718    -1290041.83649   -977508.42747  21933938.151    21933944.824
  21671680.860   -21005731.07649 -16334975.67047  21671680.578    21671685.254
  21450714.382   -24457347.34449 -19035842.94247  21450713.960    21450719.710
  23099622.558   -16295155.28849 -12659200.94846  23099622.534    23099628.103
  24263728.924    -6940933.32349  -4969703.74945  24263728.820    24263735.538
 03  6  4  2  5  0.0000000  0  8G13G20G 4G 2G16G 1G25G11
  23683348.771    -9751040.86949  -6923205.73345  23683349.028    23683354.660
  20295438.248   -25375956.15049 -18629410.12448  20295437.651    20295442.279
  24736369.454    -6266248.20349  -4852658.73045  24736369.648    24736376.814
  21923483.554    -1344984.11549  -1020320.54747  21923482.969    21923489.656
  21664271.167   -21044669.27149 -16365317.08947  21664270.877    21664275.536
  21442513.738   -24500441.79449 -19069423.00747  21442513.347    21442519.095
  23115443.200   -16212017.65949 -12594418.40346  23115443.162    23115448.670
  24280138.484    -6854701.11949  -4902509.89045  24280138.349    24280144.965
 03  6  4  2  5 30.0000000  0  8G13G20G 4G 2G16G 1G25G11
  23669177.469    -9825511.46349  -6981234.69745  23669177.670    23669183.412
  20293738.077   -25384890.67749 -18636372.09548  20293737.468    20293742.104
  24728670.313    -6306708.26749  -4884186.03545  24728670.388    24728677.741
  21913101.057    -1399544.19249  -1062834.83947  21913100.486    21913107.197
  21656960.660   -21083086.21949 -16395252.34147  21656960.368    21656964.980
  21434337.732   -24543406.77849 -19102902.19047  21434337.347    21434343.125
  23131279.578   -16128796.82649 -12529571.04846  23131279.549    23131285.140
  24296544.193    -6768488.49649  -4835331.31145  24296544.002    24296550.753
 03  6  4  2  6  0.0000000  0  8G13G20G 4G 2G16G 1G25G11
  23655013.197    -9899944.91649  -7039234.72645  23655013.445    23655019.225
  20292142.797   -25393273.96749 -18642904.53348  20292142.202    20292146.834
  24721063.322    -6346682.44149  -4915334.69245  24721063.513    24721070.927
  21902791.669    -1453720.29249  -1105049.94147  21902791.053    21902797.760
  21649749.691   -21120980.21849 -16424780.10447  21649749.390    21649753.971
  21426186.463   -24586242.04649 -19136280.29847  21426186.070    21426191.803
  23147131.530   -16045494.35849 -12464660.07846  23147131.494    23147137.162
  24312945.553    -6682298.62649  -4768170.47945  24312945.398    24312952.247
 03  6  4  2  6 30.0000000  0  8G13G20G 4G 2G16G 1G25G11
  23640855.913    -9974341.75449  -7097206.20645  23640856.135    23640861.872
  20290652.459   -25401105.76149 -18649007.22248  20290651.874    20290656.484
  24713549.235    -6386170.46949  -4946104.61545  24713549.316    24713556.329
  21892555.541    -1507511.27149  -1146964.94047  21892554.940    21892561.629
  21642638.397   -21158350.21049 -16453899.54447  21642638.084    21642642.650
  21418059.770   -24628947.89049 -19169557.55147  21418059.406    21418065.117
  23162998.592   -15962112.63249 -12399687.33746  23162998.529    23163004.156
  24329342.030    -6596134.82749  -4701029.94145  24329341.717    24329348.612
 03  6  4  2  7  0.0000000  0  8G13G20G 4G 2G16G 1G25G11
  23626705.846   -10048700.86449  -7155148.29845  23626706.062    23626711.712
  20289267.426   -25408384.30349 -18654678.80448  20289266.813    20289271.461
  24706127.508    -6425170.99849  -4976494.55245  24706127.734    24706134.889
  21882393.204    -1560914.56249  -1188577.85247  21882392.605    21882399.241
  21635627.220   -21195193.91149 -16482608.89647  21635626.907    21635631.478
  21409957.932   -24671523.37249 -19202733.23347  21409957.535    21409963.248
  23178880.567   -15878652.54049 -12334653.55046  23178880.485    23178886.121
  24345733.173    -6509999.15349  -4633911.29045  24345733.030    24345739.735
 03  6  4  2  7 30.0000000  0  8G13G20G 4G 2G16G 1G25G11
  23612562.795   -10123023.11749  -7213061.67745  23612562.923    23612568.608
  20287987.635   -25415109.59149 -18659919.27848  20287987.019    20287991.649
  24698798.920    -6463683.34649  -5006504.18145  24698799.246    24698806.110
  21872304.899    -1613929.00349  -1229887.75647  21872304.329    21872310.911
  21628716.459   -21231510.01049 -16510907.13147  21628716.141    21628720.758
  21401880.811   -24713968.72649 -19235807.51147  21401880.417    21401886.168
  23194777.090   -15795116.05649 -12269560.23646  23194776.950    23194782.597
  24362118.343    -6423894.82049  -4566817.08645  24362118.196    24362124.904
 03  6  4  2  8  0.0000000  0  8G13G20G 4G 2G16G 1G25G11
  23598426.897   -10197307.93149  -7270945.87345  23598426.958    23598432.520
  20286813.359   -25421280.48949 -18664727.75548  20286812.742    20286817.390
  24691563.201    -6501706.87849  -5036132.85745  24691563.427    24691570.491
  21862290.922    -1666552.73049  -1270893.20547  21862290.351    21862296.885
  21621906.371   -21267296.95049 -16538793.02247  21621906.086    21621910.734
  21393828.547   -24756283.57949 -19268780.09547  21393828.151    21393833.924
  23210687.737   -15711504.99349 -12204408.79746  23210687.615    23210693.227
  24378497.160    -6337824.04649  -4499749.04445  24378496.968    24378503.808
 03  6  4  2  8 30.0000000  0  8G13G20G 4G 2G16G 1G25G11
  23584298.083   -10271555.10349  -7328800.74745  23584298.121    23584303.674
  20285744.718   -25426896.16449 -18669103.60048  20285744.102    20285748.762
  24684420.819    -6539240.19349  -5065379.54545  24684421.121    24684428.343
  21852351.718    -1718783.75349  -1311592.66347  21852351.122    21852357.623
  21615197.301   -21302553.10849 -16566265.32147  21615197.001    21615201.646
  21385801.212   -24798467.43049 -19301650.60247  21385800.798    21385806.585
  23226612.314   -15627820.85749 -12139200.42046  23226612.191    23226617.794
  24394868.935    -6251789.97849  -4432709.59845  24394868.734    24394875.655
 03  6  4  2  9  0.0000000  0  8G13G20G 4G 2G16G 1G25G11
  23570176.420   -10345764.51949  -7386626.19845  23570176.547    23570181.984
  20284781.943   -25431955.43849 -18673045.88348  20284781.328    20284786.007
  24677371.803    -6576282.77849  -5094243.87945  24677371.932    24677379.214
  21842487.525    -1770620.30649  -1351984.73447  21842486.921    21842493.396
  21608589.537   -21337276.70149 -16593322.63647  21608589.245    21608593.927
  21377798.873   -24840519.72549 -19334418.59847  21377798.488    21377804.282
  23242550.593   -15544065.00849 -12073936.17346  23242550.447    23242556.071
  24411233.300    -6165795.15549  -4365700.74045  24411233.135    24411240.066
 03  6  4  2  9 30.0000000  0  8G13G20G 4G 2G16G 1G25G11
  23556062.014   -10419935.74649  -7444421.87945  23556062.148    23556067.700
  20283925.204   -25436457.56749 -18676554.02548  20283924.591    20283929.273
  24670416.343    -6612833.44149  -5122724.87445  24670416.636    24670423.810
  21832698.730    -1822060.61649  -1392068.04547  21832698.128    21832704.563
  21602083.475   -21371466.08549 -16619963.69247  21602083.179    21602087.892
  21369821.719   -24882440.03749 -19367083.74747  21369821.311    21369827.100
  23258502.237   -15460239.01149 -12008617.25446  23258502.034    23258507.658
  24427589.694    -6079842.00849  -4298724.34845  24427589.380    24427596.511
 03  6  4  2 10  0.0000000  0  8G13G20G 4G 2G16G 1G25G11
  23541954.887   -10494068.39849  -7502187.52545  23541955.084    23541960.686
  20283174.647   -25440401.80249 -18679627.44848  20283174.021    20283178.724
  24663554.926    -6648891.35749  -5150821.91745  24663555.167    24663562.220
  21822985.772    -1873102.67649  -1431841.04047  21822985.201    21822991.549
  21595679.385   -21405119.85649 -16646187.38547  21595679.063    21595683.785
  21361869.701   -24924227.97449 -19399645.74147  21361869.316    21361875.082
  23274466.780   -15376344.84049 -11943245.21446  23274466.642    23274472.246
  24443937.576    -5993933.25849  -4231782.53445  24443937.225    24443944.397
 03  6  4  2 10 30.0000000  0  8G13G20G 4G 2G16G 1G25G11
  23527855.290   -10568162.12849  -7559922.84745  23527855.585    23527861.038
  20282530.496   -25443786.93349 -18682265.20648  20282529.867    20282534.555
  24656787.022    -6684455.47549  -5178534.17745  24656787.122    24656794.286
  21813348.992    -1923744.57849  -1471302.22047  21813348.403    21813354.674
  21589377.528   -21438236.27049 -16671992.35447  21589377.195    21589381.910
  21353942.992   -24965882.99949 -19432104.17247  21353942.603    21353948.348
  23290444.105   -15292383.59049 -11877820.89746  23290444.021    23290449.616
  24460276.601    -5908071.24649  -4164877.15845  24460276.213    24460283.572
 03  6  4  2 11  0.0000000  0  8G13G20G 4G 2G16G 1G25G11
  23513763.116   -10642216.98849  -7617627.86145  23513763.410    23513768.762
  20281992.810   -25446612.42049 -18684466.87848  20281992.179    20281996.867
  24650113.553    -6719525.15649  -5205861.19545  24650113.772    24650120.648
  21803788.576    -1973984.90349  -1510450.48347  21803787.952    21803794.196
  21583178.202   -21470813.79349 -16697377.41247  21583177.887    21583182.604
  21346041.588   -25007404.94749 -19464458.91647  21346041.183    21346046.930
  23306433.833   -15208357.00749 -11812345.69046  23306433.761    23306439.382
  24476606.229    -5822258.66449  -4098010.28945  24476606.058    24476613.365
 03  6  4  2 11 30.0000000  0  8G13G20G 4G 2G16G 1G25G11
  23499678.385   -10716232.80849  -7675302.46845  23499678.622    23499683.936
  20281561.701   -25448877.75849 -18686232.07348  20281561.077    20281565.789
  24643534.130    -6754099.67449  -5232802.30645  24643534.436    24643541.586
  21794304.839    -2023822.24849  -1549284.73747  21794304.217    21794310.434
  21577081.736   -21502851.08449 -16722341.50547  21577081.397    21577086.078
  21338165.631   -25048793.38549 -19496709.62747  21338165.246    21338170.985
  23322435.714   -15124266.65449 -11746820.78946  23322435.644    23322441.241
  24492925.967    -5736498.51449  -4031184.28445  24492925.690    24492933.304
 03  6  4  2 12  0.0000000  0  8G13G20G 4G 2G16G 1G25G11
  23485601.056   -10790209.22149  -7732946.36745  23485601.316    23485606.602
  20281237.463   -25450581.67749 -18687559.80248  20281236.822    20281241.534
  24637049.354    -6788178.05549  -5259356.89445  24637049.646    24637056.526
  21784898.088    -2073254.53749  -1587803.35647  21784897.490    21784903.755
  21571088.384   -21534346.37549 -16746883.26847  21571088.056    21571092.709
  21330315.168   -25090047.81149 -19528855.91747  21330314.760    21330320.515
  23338449.472   -15040113.94449 -11681247.27046  23338449.398    23338454.984
  24509235.229    -5650793.12149  -3964400.96245  24509234.890    24509242.606
 03  6  4  2 12 30.0000000  0  8G13G20G 4G 2G16G 1G25G11
  23471531.201   -10864145.70949  -7790559.14645  23471531.537    23471536.935
  20281020.145   -25451723.64449 -18688449.64348  20281019.532    20281024.221
  24630658.972    -6821759.52749  -5285524.21945  24630659.270    24630666.205
  21775568.819    -2122279.79249  -1626004.81547  21775568.228    21775574.512
  21565198.467   -21565298.26149 -16771001.59047  21565198.094    21565202.764
  21322490.269   -25131167.70549 -19560897.37047  21322489.878    21322495.623
  23354474.908   -14955900.24949 -11615626.23646  23354474.804    23354480.397
  24525533.590    -5565145.24249  -3897662.44245  24525533.316    24525540.974
 03  6  4  2 13  0.0000000  0  8G13G20G 4G 2G16G 1G25G11
  23457469.148   -10938042.01149  -7848140.61445  23457469.451    23457474.927
  20280909.978   -25452302.59649 -18688900.77548  20280909.359    20280914.076
  24624363.267    -6854843.23749  -5311303.68745  24624363.537    24624370.761
  21766317.305    -2170896.33949  -1663887.79547  21766316.733    21766323.034
  21559412.196   -21595705.09649 -16794695.20347  21559411.850    21559416.479
  21314691.156   -25172152.41049 -19592833.48347  21314690.767    21314696.455
  23370511.564   -14871627.10449 -11549958.88146  23370511.432    23370517.103
  24541820.604    -5479556.86149  -3830970.28145  24541820.282    24541827.864
 03  6  4  2 13 30.0000000  0  8G13G20G 4G 2G16G 1G25G11
  23443414.862   -11011897.90449  -7905690.60645  23443415.081    23443420.628
  20280906.965   -25452318.33349 -18688913.04048  20280906.341    20280911.085
  24618162.458    -6887428.68849  -5336694.92945  24618162.671    24618169.706
  21757143.833    -2219102.88749  -1701451.30247  21757143.273    21757149.577
  21553729.915   -21625565.58749 -16817963.08947  21553729.574    21553734.143
  21306917.757   -25213001.80649 -19624664.16747  21306917.348    21306923.034
  23386559.228   -14787295.95949 -11484246.34746  23386559.112    23386564.876
  24558095.735    -5394031.03049  -3764326.88445  24558095.434    24558103.081
 03  6  4  2 14  0.0000000  0  8G13G20G 4G 2G16G 1G25G11
  23429368.282   -11085713.43949  -7963209.14245  23429368.486    23429373.938
  20281011.323   -25451769.98549 -18688485.75548  20281010.708    20281015.446
  24612056.338    -6919515.10149  -5361697.28445  24612056.728    24612063.793
  21748048.803    -2266897.61849  -1738693.90447  21748048.220    21748054.480
  21548151.821   -21654878.57649 -16840804.35347  21548151.495    21548156.010
  21299170.181   -25253715.32349 -19656388.96947  21299169.812    21299175.543
  23402617.639   -14702908.60749 -11418490.00046  23402617.515    23402623.291
  24574358.483    -5308570.29249  -3697734.15045  24574358.144    24574365.592
 03  6  4  2 14 30.0000000  0  8G13G20G 4G 2G16G 1G25G11
  23415329.517   -11159487.68149  -8020695.50445  23415329.685    23415335.058
  20281223.105   -25450656.98349 -18687618.48348  20281222.492    20281227.213
  24606045.758    -6951101.45049  -5386310.00845  24606046.118    24606053.141
  21739032.502    -2314278.68249  -1775614.17747  21739031.881    21739038.126
  21542678.245   -21683642.41649 -16863217.71847  21542677.904    21542682.389
  21291448.632   -25294292.31749 -19688007.39047  21291448.257    21291453.970
  23418686.541   -14618466.41249 -11352690.90746  23418686.430    23418692.202
  24590608.345    -5223177.14749  -3631194.17045  24590607.947    24590615.464
 03  6  4  2 15  0.0000000  0  8G13G20G 4G 2G16G 1G25G11
  23401298.554   -11233220.73649  -8078149.78145  23401298.728    23401304.039
  20281542.461   -25448978.88749 -18686310.87848  20281541.841    20281546.547
  24600130.299    -6982187.53149  -5410532.88545  24600130.475    24600137.542
  21730095.111    -2361244.88449  -1812211.17547  21730094.489    21730100.709
  21537309.384   -21711855.85249 -16885202.18747  21537309.051    21537313.541
  21283753.119   -25334732.62349 -19719519.30447  21283752.735    21283758.417
  23434765.541   -14533971.15449 -11286850.47246  23434765.440    23434771.132
  24606844.799    -5137854.44349  -3564709.03144  24606844.596    24606851.602
 03  6  4  2 15 30.0000000  0  8G13G20G 4G 2G16G 1G25G11
  23387275.469   -11306912.04949  -8135571.51645  23387275.646    23387281.074
  20281969.566   -25446734.48749 -18684561.99848  20281968.945    20281973.639
  24594310.281    -7012772.10649  -5434365.00945  24594310.493    24594317.453
  21721237.049    -2407794.01449  -1848483.18447  21721236.431    21721242.681
  21532045.559   -21739517.06049 -16906756.36047  21532045.245    21532049.795
  21276083.745   -25375035.36949 -19750924.03347  21276083.354    21276089.009
  23450854.362   -14449423.68149 -11220969.37846  23450854.271    23450860.021
  24623067.576    -5052603.94349  -3498280.14444  24623067.494    24623074.017
 03  6  4  2 16  0.0000000  0  8G13G20G 4G 2G16G 1G25G11
  23373260.345   -11380561.37449  -8192960.54945  23373260.628    23373266.014
  20282504.512   -25443923.37649 -18682371.52548  20282503.895    20282508.560
  24588585.686    -7042854.76249  -5457805.98145  24588585.916    24588593.067
  21712458.623    -2453924.62649  -1884429.07147  21712458.018    21712464.285
  21526886.993   -21766625.20149 -16927879.56247  21526886.697    21526891.264
  21268440.564   -25415200.20149 -19782221.29047  21268440.195    21268445.854
  23466952.758   -14364825.60149 -11155048.84646  23466952.747    23466958.498
  24639276.000    -4967428.65949  -3431909.91844  24639275.715    24639282.439
 03  6  4  2 16 30.0000000  0  8G13G20G 4G 2G16G 1G25G11
  23359253.426   -11454167.81949  -8250316.14545  23359253.656    23359259.061
  20283147.516   -25440544.56249 -18679738.68848  20283146.890    20283151.517
  24582956.617    -7072434.73349  -5480855.27945  24582956.934    24582964.024
  21703760.276    -2499634.60649  -1920047.20247  21703759.680    21703765.915
  21521834.013   -21793178.37849 -16948570.32847  21521833.705    21521838.365
  21260823.889   -25455226.17449 -19813410.34647  21260823.538    21260829.154
  23483060.560   -14280178.11549 -11089089.82346  23483060.535    23483066.409
  24655469.652    -4882330.45449  -3365599.68644  24655469.674    24655476.018
 03  6  4  2 17  0.0000000  0  8G13G20G 4G 2G16G 1G25G11
  23345254.676   -11527731.81149  -8307638.67945  23345254.817    23345260.302
  20283898.548   -25436597.93749 -18676663.40048  20283897.910    20283902.560
  24577423.523    -7101511.63149  -5503512.58345  24577423.704    24577430.943
  21695142.164    -2544923.16049  -1955336.94447  21695141.546    21695147.773
  21516886.815   -21819175.93249 -16968828.13847  21516886.520    21516891.191
  21253233.661   -25495113.24349 -19844491.16047  21253233.273    21253238.875
  23499177.633   -14195482.76349 -11023093.47546  23499177.618    23499183.504
  24671648.101    -4797312.60949  -3299352.09744  24671648.264    24671654.423
 03  6  4  2 17 30.0000000  0  8G13G20G 4G 2G16G 1G25G11
  23331264.064   -11601253.04749  -8364927.89345  23331264.172    23331269.622
  20284757.663   -25432083.20749 -18673145.43148  20284757.045    20284761.686
  24571986.125    -7130085.09949  -5525777.59045  24571986.288    24571993.470
  21686604.503    -2589788.78549  -1990297.12547  21686603.897    21686610.083
  21512045.660   -21844616.33149 -16988651.80847  21512045.351    21512050.004
  21245669.905   -25534860.96349 -19875463.39847  21245669.529    21245675.125
  23515303.507   -14110741.21549 -10957061.14146  23515303.414    23515309.273
  24687810.708    -4712377.61349  -3233169.06444  24687810.925    24687817.176
 03  6  4  2 18  0.0000000  0  8G13G20G 4G 2G16G 1G25G11
  23317281.538   -11674731.78449  -8422183.98045  23317281.602    23317287.026
  20285724.830   -25427000.69049 -18669185.03648  20285724.205    20285728.875
  24566644.698    -7158155.36249  -5547650.51045  24566644.825    24566651.856
  21678147.422    -2634230.73849  -2024927.18747  21678146.831    21678153.015
  21507310.560   -21869499.56049 -17008041.32147  21507310.259    21507314.864
  21238132.625   -25574469.71249 -19906327.34647  21238132.227    21238137.820
  23531437.702   -14025955.59949 -10890994.48146  23531437.624    23531443.586
  24703956.943    -4627528.73149  -3167053.18644  24703956.985    24703963.491
 03  6  4  2 18 30.0000000  0  8G13G20G 4G 2G16G 1G25G11
  23303307.322   -11748166.43349  -8479405.71845  23303307.446    23303312.830
  20286800.368   -25421348.73949 -18664780.92748  20286799.751    20286804.427
  24561399.294    -7185720.54149  -5569129.86445  24561399.387    24561406.193
  21669771.517    -2678246.17149  -2059224.88747  21669770.930    21669777.130
  21502681.935   -21893823.15149 -17026994.75147  21502681.623    21502686.208
  21230622.138   -25613937.54249 -19937081.49447  21230621.756    21230627.343
  23547580.246   -13941126.29549 -10824893.77146  23547580.139    23547586.094
  24720086.448    -4542767.37049  -3101005.45944  24720086.590    24720093.284
 03  6  4  2 19  0.0000000  0  7G13G20G 4G 2G16G 1G25
  23289342.796   -11821550.32549  -8536587.90245  23289342.873    23289348.301
  20287985.638   -25415120.26649 -18659927.57048  20287985.020    20287989.695
  24556251.047    -7212773.70849  -5590210.21145  24556251.261    24556258.260
  21661478.281    -2721827.11649  -2093184.02147  21661477.721    21661483.933
  21498161.224   -21917579.35549 -17045506.05347  21498160.943    21498165.514
  21223139.796   -25653257.62949 -19967720.51247  21223139.406    21223145.019
  23563732.001   -13856248.13849 -10758754.99146  23563731.938    23563737.887
 03  6  4  2 19 30.0000000  0  7G13G20G 4G 2G16G 1G25
  23275386.370   -11894891.65249  -8593736.93145  23275386.485    23275391.835
  20289279.045   -25408323.44849 -18654631.35048  20289278.415    20289283.081
  24551198.782    -7239323.05949  -5610897.99845  24551199.039    24551205.962
  21653266.452    -2764980.66949  -2126810.12447  21653265.866    21653272.083
  21493747.129   -21940775.53049 -17063580.97247  21493746.819    21493751.440
  21215684.004   -25692437.88649 -19998250.56747  21215683.628    21215689.269
  23579891.250   -13771331.04149 -10692585.86346  23579891.171    23579897.102
 03  6  4  2 20  0.0000000  0  7G13G20G 4G 2G16G 1G25
  23261438.184   -11968189.74849  -8650852.27445  23261438.322    23261443.593
  20290680.734   -25400957.64649 -18648891.76948  20290680.114    20290684.760
  24546242.334    -7265367.92949  -5631192.68745  24546242.690    24546249.769
  21645136.224    -2807705.25649  -2160101.98447  21645135.625    21645141.806
  21489439.833   -21963410.40549 -17081218.51247  21489439.550    21489444.139
  21208254.928   -25731477.76649 -20028671.24247  21208254.551    21208260.187
  23596057.573   -13686376.59649 -10626387.64246  23596057.499    23596063.411
 03  6  4  2 20 30.0000000  0  7G13G20G 4G 2G16G 1G25
  23247498.371   -12041443.61849  -8707933.15145  23247498.542    23247503.752
  20292190.873   -25393021.72649 -18642707.93748  20292190.249    20292194.916
  24541382.504    -7290906.99749  -5651093.23145  24541382.815    24541389.853
  21637088.057    -2849998.49449  -2193057.71547  21637087.476    21637093.634
  21485239.775   -21985482.04349 -17098417.16347  21485239.498    21485244.060
  21200852.904   -25770375.83149 -20058981.40247  21200852.485    21200858.097
  23612230.990   -13601385.16649 -10560160.59945  23612230.833    23612236.775
 03  6  4  2 21  0.0000000  0  7G13G20G 4G 2G16G 1G25
  23233567.018   -12114652.75849  -8764979.17645  23233567.266    23233572.423
  20293809.644   -25384515.09649 -18636079.39348  20293809.018    20293813.689
  24536618.930    -7315939.51849  -5670599.06545  24536619.202    24536626.185
  21629122.311    -2891858.68449  -2225676.00647  21629121.721    21629127.849
  21481147.166   -22006989.01649 -17115175.82247  21481146.861    21481151.380
  21193478.027   -25809131.07049 -20089180.26947  21193477.641    21193483.229
  23628411.142   -13516357.71349 -10493905.48546  23628411.091    23628417.018
 03  6  4  2 21 30.0000000  0  7G13G20G 4G 2G16G 1G25
  23219644.521   -12187816.06149  -8821989.47645  23219644.785    23219649.834
  20295537.119   -25375437.08049 -18629005.61148  20295536.483    20295541.184
  24531952.034    -7340464.92649  -5689709.75245  24531952.192    24531959.073
  21621239.263    -2933284.11649  -2257955.52947  21621238.688    21621244.810
  21477162.196   -22027930.01549 -17131493.46247  21477161.880    21477166.436
  21186130.527   -25847742.51349 -20119267.08647  21186130.147    21186135.702
  23644598.060   -13431295.13649 -10427623.00646  23644598.015    23644603.941
 03  6  4  2 22  0.0000000  0  7G13G20G 4G 2G16G 1G25
  23205730.672   -12260933.57049  -8878964.10145  23205730.837    23205736.041
  20297373.362   -25365787.41549 -18621486.38948  20297372.761    20297377.456
  24527381.778    -7364482.95849  -5708425.07445  24527381.777    24527388.645
  21613439.202    -2974273.62249  -2289895.37147  21613438.618    21613444.735
  21473285.091   -22048304.27949 -17147369.48547  21473284.804    21473289.335
  21178810.410   -25886209.86049 -20149241.63047  21178810.025    21178815.598
  23660791.322   -13346199.25949 -10361314.56746  23660791.265    23660797.200
 03  6  4  2 22 30.0000000  0  7G13G20G 4G 2G16G 1G25
  23191825.698   -12334004.27549  -8935902.25445  23191825.874    23191831.092
  20299318.563   -25355565.35849 -18613521.14948  20299317.945    20299322.641
  24522908.009    -7387992.58749  -5726744.26045  24522907.974    24522915.004
  21605722.449    -3014825.14749  -2321493.92547  21605721.860    21605728.000
  21469516.155   -22068110.07149 -17162802.54447  21469515.853    21469520.387
  21171517.912   -25924531.93149 -20179102.96547  21171517.573    21171523.125
  23676990.814   -13261070.68749 -10294980.63445  23676990.670    23676996.646
 03  6  4  2 23  0.0000000  0  7G13G20G 4G 2G16G 1G25
  23177929.966   -12407027.03449  -8992803.05245  23177930.093    23177935.279
  20301372.837   -25344770.09249 -18605109.25348  20301372.222    20301376.908
  24518531.060    -7410992.96749  -5744666.58045  24518531.094    24518538.206
  21598089.420    -3054936.94249  -2352749.83747  21598088.824    21598094.962
  21465855.649   -22087346.12349 -17177791.65447  21465855.368    21465859.941
  21164253.283   -25962707.79649 -20208850.36847  21164252.903    21164258.458
  23693196.260   -13175910.22949 -10228621.87145  23693196.171    23693202.217
 03  6  4  2 23 30.0000000  0  7G13G20G 4G 2G16G 1G25
  23164043.208   -12480002.01949  -9049666.62645  23164043.317    23164048.515
  20303536.155   -25333401.75449 -18596250.80348  20303535.535    20303540.242
  24514250.985    -7433484.51249  -5762192.44845  24514250.986    24514258.134
  21590540.251    -3094607.97549  -2383662.29547  21590539.660    21590545.802
  21462303.731   -22106011.74649 -17192336.27047  21462303.427    21462307.943
  21157016.464   -26000737.42349 -20238483.82747  21157016.073    21157021.662
  23709407.493   -13090719.73949 -10162239.72245  23709407.409    23709413.425
 03  6  4  2 24  0.0000000  0  7G13G20G 4G 2G16G 1G25
  23150165.631   -12552928.96949  -9106492.77946  23150165.744    23150170.955
  20305808.474   -25321460.62149 -18586946.02048  20305807.852    20305812.573
  24510067.914    -7455466.93749  -5779321.57945  24510068.123    24510075.093
  21583075.188    -3133837.11349  -2414230.42447  21583074.589    21583080.760
  21458860.419   -22124106.31449 -17206435.91347  21458860.130    21458864.616
  21149807.526   -26038620.37849 -20268002.99747  21149807.143    21149812.766
  23725624.147   -13005500.99849 -10095835.55246  23725624.012    23725630.118
 03  6  4  2 24 30.0000000  0  7G13G20G 4G 2G16G 1G25
  23136297.219   -12625807.51749  -9163281.20546  23136297.365    23136302.566
  20308189.875   -25308946.14549 -18577194.48048  20308189.263    20308193.959
  24505981.687    -7476939.85949  -5796053.71945  24505981.942    24505988.743
  21575694.435    -3172622.89249  -2444453.07647  21575693.828    21575700.041
  21455525.994   -22141628.69949 -17220089.69947  21455525.699    21455530.209
  21142626.733   -26076355.81749 -20297407.21747  21142626.325    21142631.936
  23741845.954   -12920254.90949 -10029410.08346  23741845.782    23741852.007
 03  6  4  2 25  0.0000000  0  7G13G20G 4G 2G16G 1G25
  23122438.200   -12698636.87749  -9220031.30546  23122438.319    23122443.486
  20310680.567   -25295857.69749 -18566995.69148  20310679.949    20310684.617
  24501992.546    -7497902.83649  -5812388.45345  24501992.873    24501999.650
  21568398.357    -3210963.68249  -2474328.98847  21568397.779    21568404.012
  21452300.735   -22158577.56449 -17233296.59047  21452300.431    21452304.918
  21135474.105   -26113942.78049 -20326695.74447  21135473.726    21135479.360
  23758072.795   -12834982.29949  -9962963.93446  23758072.698    23758078.927
 03  6  4  2 25 30.0000000  0  7G13G20G 4G 2G16G 1G25
  23108588.582   -12771416.90049  -9276742.97646  23108588.777    23108593.876
  20313280.359   -25282195.67549 -18556349.95848  20313279.729    20313284.413
  24498100.596    -7518355.84049  -5828325.83845  24498100.879    24498107.457
  21561187.172    -3248858.66949  -2503857.51447  21561186.581    21561192.769
  21449184.659   -22174952.67549 -17246056.39447  21449184.329    21449188.810
  21128349.859   -26151381.03249 -20355868.39047  21128349.488    21128355.119
  23774304.266   -12749684.97349  -9896498.54945  23774304.202    23774310.434
 03  6  4  2 26  0.0000000  0  7G13G20G 4G 2G16G 1G25
  23094748.509   -12844147.30049  -9333415.96546  23094748.708    23094753.672
  20315989.286   -25267960.21149 -18545257.39148  20315988.674    20315993.331
  24494305.480    -7538298.86449  -5843865.80545  24494305.696    24494312.374
  21554061.073    -3286306.52649  -2533037.62547  21554060.485    21554066.664
  21446177.755   -22190753.56649 -17258368.75347  21446177.450    21446181.986
  21121253.991   -26188670.08349 -20384924.77547  21121253.610    21121259.223
  23790540.140   -12664364.33549  -9830014.98745  23790540.222    23790546.434
 03  6  4  2 26 30.0000000  0  7G13G20G 4G 2G16G 1G25
  23080918.000   -12916827.00249  -9390049.45746  23080918.143    23080923.107
  20318807.426   -25253150.69849 -18533717.51848  20318806.823    20318811.484
  24490607.623    -7557731.36349  -5859007.99645  24490607.766    24490614.478
  21547020.337    -3323305.55149  -2561868.00747  21547019.759    21547025.895
  21443280.466   -22205978.67949 -17270232.45947  21443280.176    21443284.718
  21114186.714   -26225808.98649 -20413864.16147  21114186.303    21114191.913
  23806780.478   -12579021.30849  -9763513.98245  23806780.519    23806786.697
 03  6  4  2 27  0.0000000  0  7G13G20G 4G 2G16G 1G25
  23067096.987   -12989456.36349  -9446643.71846  23067097.182    23067102.128
  20321734.720   -25237767.66849 -18521730.74148  20321734.106    20321738.763
  24487006.959    -7576653.92349  -5873752.82745  24487006.967    24487013.664
  21540065.139    -3359855.31549  -2590348.30747  21540064.554    21540070.667
  21440492.773   -22220627.93749 -17281647.44247  21440492.486    21440497.028
  21107147.972   -26262797.70249 -20442686.51447  21107147.556    21107153.177
  23823024.665   -12493658.23249  -9696997.33546  23823024.653    23823030.906
 03  6  4  2 27 30.0000000  0  7G13G20G 4G 2G16G 1G25
  23053285.785   -13062034.26749  -9503197.88746  23053286.003    23053291.061
  20324771.309   -25221810.30349 -18509296.44448  20324770.694    20324775.364
  24483503.262    -7595065.45849  -5888099.45445  24483503.424    24483510.086
  21533195.777    -3395953.96449  -2618477.08847  21533195.199    21533201.285
  21437814.986   -22234699.86349 -17292612.56147  21437814.670    21437819.255
  21100138.044   -26299634.87849 -20471390.79347  21100137.649    21100143.266
  23839272.533   -12408275.24149  -9630465.19945  23839272.516    23839278.831
 03  6  4  2 28  0.0000000  0  7G13G20G 4G 2G16G 1G25
  23039484.508   -13134560.29249  -9559711.63446  23039484.717    23039489.716
  20327917.141   -25205278.70549 -18496414.68748  20327916.536    20327921.201
  24480096.719    -7612966.07949  -5902047.95745  24480096.951    24480103.672
  21526412.475    -3431600.39249  -2646253.49147  21526411.905    21526417.958
  21435247.112   -22248193.83649 -17303127.33147  21435246.837    21435251.435
  21093157.117   -26336319.89549 -20499976.49747  21093156.731    21093162.353
  23855523.973   -12322873.51949  -9563918.46045  23855523.895    23855530.313
 03  6  4  2 28 30.0000000  0  7G13G20G 4G 2G16G 1G25
  23025693.323   -13207033.76049  -9616184.42146  23025693.484    23025698.444
  20331172.347   -25188172.68649 -18483085.33048  20331171.743    20331176.396
  24476787.490    -7630355.59449  -5915598.20245  24476787.773    24476794.704
  21519715.518    -3466793.21549  -2673676.43947  21519714.941    21519720.971
  21432789.454   -22261109.14149 -17313191.18647  21432789.169    21432793.728
  21086205.287   -26372852.01649 -20528443.07347  21086204.874    21086210.519
  23871778.771   -12237454.50449  -9497358.23445  23871778.611    23871785.005
 03  6  4  2 29  0.0000000  0  7G13G20G 4G 2G16G 1G25
  23011912.104   -13279454.64849  -9672616.23546  23011912.214    23011917.181
  20334536.817   -25170492.49249 -18469308.56048  20334536.183    20334540.845
  24473575.612    -7647234.12149  -5928750.28145  24473575.996    24473582.844
  21513105.050    -3501531.59049  -2700745.27447  21513104.438    21513110.473
  21430441.984   -22273445.20449 -17322803.68747  21430441.694    21430446.191
  21079282.622   -26409230.84949 -20556790.20147  21079282.227    21079287.837
  23888036.593   -12152019.30149  -9430785.38445  23888036.496    23888042.864
 03  6  4  2 29 30.0000000  0  7G13G20G 4G 2G16G 1G25
  22998140.991   -13351822.44249  -9729006.67446  22998141.078    22998146.048
  20338010.514   -25152238.18849 -18455084.42448  20338009.889    20338014.536
  24470461.012    -7663601.73649  -5941504.23845  24470461.223    24470468.237
  21506581.111    -3535814.66649  -2727459.32847  21506580.544    21506586.555
  21428204.887   -22285201.43149 -17331964.36447  21428204.553    21428209.026
  21072389.195   -26445455.90349 -20585017.50147  21072388.819    21072394.402
  23904297.325   -12066569.33749  -9364201.03145  23904297.149    23904303.526
 03  6  4  2 30  0.0000000  0  8G27G13G20G 4G 2G16G 1G25
  24866487.107    -6722777.57849  -5209388.30445  24866487.009    24866495.780
  22984379.288   -13424140.02749  -9785357.99346  22984379.456    22984384.410
  20341592.788   -25133413.23949 -18440415.63048  20341592.189    20341596.828
  24467442.868    -7679461.59249  -5953862.55045  24467443.161    24467450.154
  21500143.511    -3569644.19949  -2753819.97447  21500142.941    21500148.964
  21426077.680   -22296380.20449 -17340675.08547  21426077.345    21426081.773
  21065524.626   -26481529.54149 -20613126.81547  21065524.221    21065529.785
  23920559.837   -11981109.39849  -9297608.93545  23920559.701    23920566.034
 03  6  4  2 30 30.0000000  0  8G27G13G20G 4G 2G16G 1G25
  24851212.367    -6803046.41149  -5271935.33245  24851212.224    24851221.124
  22970627.049   -13496408.15649  -9841670.76346  22970627.256    22970632.193
  20345283.320   -25114019.27249 -18425303.45248  20345282.704    20345287.356
  24464521.163    -7694815.36049  -5965826.51745  24464521.335    24464528.318
  21493792.154    -3603020.72749  -2779827.62847  21493791.558    21493797.619
  21424060.015   -22306982.81749 -17348936.84547  21424059.692    21424064.132
  21058688.637   -26517452.81649 -20641118.96247  21058688.253    21058693.812
  23936823.789   -11895641.85249  -9231010.92745  23936823.731    23936829.992
 03  6  4  2 31  0.0000000  0  8G27G13G20G 4G 2G16G 1G25
  24835964.653    -6883173.11249  -5334371.59745  24835964.480    24835973.336
  22956886.097   -13568617.20149  -9897937.50446  22956886.289    22956891.192
  20349083.916   -25094047.18149 -18409740.79648  20349083.263    20349087.921
  24461697.315    -7709653.77949  -5977388.89345  24461697.689    24461704.580
  21487528.960    -3635933.93949  -2805474.26247  21487528.354    21487534.424
  21422153.822   -22316999.49449 -17356742.03447  21422153.552    21422158.019
  21051883.192   -26553215.73349 -20668986.16347  21051882.785    21051888.348
  23953090.799   -11810158.78449  -9164400.78845  23953090.720    23953096.866
 03  6  4  2 31 30.0000000  0  8G27G13G20G 4G 2G16G 1G25
  24820743.709    -6963159.68949  -5396698.67045  24820743.358    24820752.295
  22943155.981   -13640769.31549  -9954159.87346  22943156.184    22943161.033
  20352993.992   -25073499.58249 -18393729.67648  20352993.346    20352998.004
  24458971.377    -7723979.49049  -5988551.76145  24458971.557    24458978.512
  21481353.648    -3668385.23549  -2830760.95047  21481353.049    21481359.114
  21420358.841   -22326432.07749 -17364092.08147  21420358.565    21420363.066
  21045107.884   -26588820.18949 -20696729.87947  21045107.475    21045113.029
  23969359.980   -11724664.28149  -9097781.71245  23969359.897    23969365.945
 03  6  4  2 32  0.0000000  0  8G27G13G20G 4G 2G16G 1G25
  24805549.369    -7043006.24849  -5458916.66145  24805548.946    24805558.014
  22929436.803   -13712864.31449 -10010337.73846  22929436.981    22929441.813
  20357013.420   -25052377.24849 -18377270.71648  20357012.773    20357017.449
  24456342.551    -7737793.25949  -5999315.72745  24456342.926    24456349.824
  21475266.288    -3700374.24249  -2855687.41547  21475265.703    21475271.783
  21418674.986   -22335280.74149 -17370987.13647  21418674.700    21418679.219
  21038362.694   -26624266.12949 -20724350.07747  21038362.315    21038367.847
  23985630.978   -11639160.17049  -9031155.15245  23985630.933    23985636.877
 03  6  4  2 32 30.0000000  0  8G27G13G20G 4G 2G16G 1G25
  24790381.726    -7122712.39449  -5521025.23545  24790381.316    24790390.252
  22915728.551   -13784901.84649 -10066470.83346  22915728.721    22915733.523
  20361142.117   -25030680.63349 -18360364.26648  20361141.495    20361146.182
  24453811.140    -7751095.21549  -6009680.87845  24453811.598    24453818.618
  21469267.110    -3731899.96549  -2880252.87947  21469266.536    21469272.587
  21417102.318   -22343545.13949 -17377426.91447  21417102.029    21417106.553
  21031647.824   -26659553.01349 -20751846.34847  21031647.463    21031652.994
  24001903.540   -11553647.36449  -8964521.84545  24001903.548    24001909.574
 03  6  4  2 33  0.0000000  0  8G27G13G20G 4G 2G16G 1G25
  24775240.792    -7202278.26649  -5583024.50345  24775240.328    24775249.263
  22902031.087   -13856882.30849 -10122559.46946  22902031.264    22902036.054
  20365379.956   -25008410.45449 -18343010.88148  20365379.361    20365384.051
  24451377.048    -7763886.09949  -6019647.77845  24451377.554    24451384.556
  21463356.159    -3762962.08649  -2904457.09547  21463355.578    21463361.634
  21415640.880   -22351225.25049 -17383411.40247  21415640.581    21415645.047
  21024963.279   -26694680.48849 -20779218.39747  21024962.911    21024968.438
  24018177.412   -11468127.55049  -8897883.11345  24018177.372    24018183.560
 03  6  4  2 33 30.0000000  0  8G27G13G20G 4G 2G16G 1G25
  24760126.585    -7281703.42349  -5644914.12345  24760126.142    24760134.895
  22888344.670   -13928804.75049 -10178602.87446  22888344.829    22888349.637
  20369726.923   -24985567.03449 -18325210.81648  20369726.312    20369731.010
  24449040.330    -7776166.06649  -6029216.54445  24449040.641    24449047.789
  21457533.591    -3793559.71849  -2928299.37247  21457533.019    21457539.066
  21414290.637   -22358320.82449 -17388940.40447  21414290.315    21414294.791
  21018309.196   -26729647.90749 -20806465.72547  21018308.818    21018314.383
  24034452.378   -11382602.13649  -8831240.01145  24034452.265    24034458.539
 03  6  4  2 34  0.0000000  0  8G27G13G20G 4G 2G16G 1G25
  24745039.256    -7360987.50849  -5706693.83345  24745038.857    24745047.560
  22874669.268   -14000669.06349 -10234601.00546  22874669.426    22874674.233
  20374182.901   -24962150.76849 -18306964.37548  20374182.287    20374187.000
  24446800.627    -7787935.36549  -6038387.41445  24446800.962    24446808.177
  21451799.603    -3823692.12649  -2951779.14047  21451799.029    21451805.048
  21413051.604   -22364831.71749 -17394013.81547  21413051.323    21413055.817
  21011685.628   -26764454.88249 -20833588.03947  21011685.273    21011690.798
  24050728.251   -11297072.30049  -8764593.44145  24050728.187    24050734.360
 03  6  4  2 34 30.0000000  0  8G27G13G20G 4G 2G16G 1G25
  24729978.963    -7440129.61649  -5768362.88845  24729978.592    24729987.230
  22861005.148   -14072474.44649 -10290553.19546  22861005.256    22861010.108
  20378747.982   -24938161.36249 -18288271.33348  20378747.347    20378752.061
  24444658.353    -7799193.84649  -6047160.23845  24444658.544    24444665.718
  21446154.411    -3853357.92349  -2974895.31447  21446153.847    21446159.834
  21411924.031   -22370757.12049 -17398631.00247  21411923.744    21411928.211
  21005092.864   -26799100.21849 -20860584.39347  21005092.487    21005098.004
  24067004.794   -11211539.03249  -8697944.17645  24067004.629    24067010.913
 03  6  4  2 35  0.0000000  0  8G27G13G20G 4G 2G16G 1G25
  24714945.715    -7519130.07149  -5829921.59445  24714945.309    24714953.845
  22847352.196   -14144220.88449 -10346459.48246  22847352.317    22847357.129
  20383421.849   -24913600.05949 -18269132.65948  20383421.221    20383425.924
  24442612.908    -7809942.53149  -6055535.82145  24442613.161    24442620.219
  21440598.025    -3882556.96849  -2997647.78747  21440597.453    21440603.400
  21410907.879   -22376097.28949 -17402792.15747  21410907.597    21410912.008
  20998530.850   -26833583.87949 -20887454.77147  20998530.480    20998535.984
  24083281.563   -11126004.24949  -8631293.74145  24083281.372    24083287.627
 03  6  4  2 35 30.0000000  0  8G27G13G20G 4G 2G16G 1G25
  24699939.548    -7597987.87449  -5891369.10745  24699939.078    24699947.589
  22833710.676   -14215907.18849 -10402318.90746  22833710.811    22833715.639
  20388204.545   -24888466.85149 -18249548.34748  20388203.910    20388208.630
  24440664.550    -7820181.19149  -6063513.96745  24440664.830    24440671.890
  21435130.743    -3911287.91949  -3020035.51547  21435130.138    21435136.094
  21410003.202   -22380851.51549 -17406496.73147  21410002.874    21410007.338
  20991999.788   -26867904.78749 -20914198.32447  20991999.411    20992004.903
  24099558.479   -11040468.44849  -8564642.51345  24099558.303    24099564.699
 03  6  4  2 36  0.0000000  0  8G27G13G20G 4G 2G16G 1G25
  24684960.610    -7676702.36749  -5952704.98545  24684960.158    24684968.652
  22820080.826   -14287532.54549 -10458130.83046  22820080.996    22820085.755
  20393096.149   -24862761.43549 -18229518.17048  20393095.514    20393100.204
  24438813.292    -7829909.61849  -6071094.54045  24438813.561    24438820.628
  21429752.717    -3939549.36649  -3042057.39647  21429752.121    21429758.044
  21409210.125   -22385018.97449 -17409744.09047  21409209.803    21409214.291
  20985499.976   -26902061.77049 -20940814.14447  20985499.591    20985505.048
  24115835.287   -10954932.44949  -8497991.12145  24115835.235    24115841.692
 03  6  4  2 36 30.0000000  0  8G27G13G20G 4G 2G16G 1G25
  24670008.958    -7755273.46649  -6013929.12245  24670008.548    24670016.911
  22806462.552   -14359096.89649 -10513895.23246  22806462.725    22806467.504
  20398096.422   -24836484.83049 -18209042.90148  20398095.782    20398100.453
  24437058.905    -7839128.49949  -6078278.07545  24437059.316    24437066.247
  21424464.186    -3967340.77649  -3063713.01247  21424463.593    21424469.518
  21408528.649   -22388599.90749 -17412534.41047  21408528.354    21408532.861
  20979031.383   -26936054.41549 -20967301.90647  20979030.989    20979036.441
  24132112.062   -10869397.51949  -8431340.57945  24132112.016    24132118.566
 03  6  4  2 37  0.0000000  0  8G27G13G20G 4G 2G16G 1G25
  24655084.623    -7833700.56849  -6075041.00245  24655084.211    24655092.486
  22792856.041   -14430599.40949 -10569611.43846  22792856.194    22792860.961
  20403205.361   -24809637.21649 -18188122.69248  20403204.725    20403209.384
  24435401.546    -7847838.03649  -6085064.69345  24435401.983    24435408.958
  21419265.247    -3994661.14449  -3085001.59047  21419264.682    21419270.561
  21407958.914   -22391593.82449 -17414867.32147  21407958.589    21407963.118
  20972594.146   -26969881.98049 -20993661.03947  20972593.776    20972599.243
  24148388.430   -10783864.90549  -8364691.81545  24148388.339    24148394.865
 03  6  4  2 37 30.0000000  0  8G27G13G20G 4G 2G16G 1G25
  24640187.719    -7911983.75049  -6136040.78045  24640187.383    24640195.596
  22779261.345   -14502039.99049 -10625279.38246  22779261.495    22779266.257
  20408422.768   -24782219.46249 -18166758.21048  20408422.143    20408426.828
  24433841.167    -7856039.24749  -6091455.24045  24433841.344    24433848.257
  21414156.089    -4021510.21549  -3105922.91947  21414155.489    21414161.336
  21407500.799   -22394001.02449 -17416743.04347  21407500.506    21407504.979
  20966188.453   -27003544.08349 -21019891.23947  20966188.070    20966193.538
  24164664.049   -10698336.16649  -8298046.07045  24164664.021    24164670.437
 03  6  4  2 38  0.0000000  0  8G27G13G20G 4G 2G16G 1G25
  24625318.387    -7990122.10949  -6196927.69045  24625318.078    24625326.414
  22765678.664   -14573417.60849 -10680898.27046  22765678.778    22765683.466
  20413748.719   -24754231.45849 -18144949.38248  20413748.096    20413752.778
  24432377.293    -7863731.66249  -6097449.30045  24432377.388    24432384.503
  21409136.814    -4047886.54849  -3126475.88247  21409136.204    21409142.063
  21407154.548   -22395820.81249 -17418161.04447  21407154.235    21407158.635
  20959814.559   -27037039.36949 -21045991.44947  20959814.182    20959819.611
  24180938.751   -10612812.20049  -8231404.06945  24180938.695    24180945.091
 03  6  4  2 38 30.0000000  0  8G27G13G20G 4G 2G16G 1G25
  24610476.684    -8068114.89049  -6257701.15945  24610476.462    24610484.775
  22752108.059   -14644731.34849 -10736467.37646  22752108.203    22752112.921
  20419183.111   -24725673.56549 -18122696.48948  20419182.474    20419187.160
  24431010.339    -7870915.43649  -6103047.04245  24431010.364    24431017.268
  21404207.679    -4073789.17949  -3146659.72647  21404207.066    21404212.961
  21406920.092   -22397052.85149 -17419121.06147  21406919.778    21406924.167
  20953472.558   -27070366.84849 -21071960.90147  20953472.173    20953477.605
  24197212.526   -10527293.22949  -8164765.95345  24197212.388    24197218.766
 03  6  4  2 39  0.0000000  0  8G27G13G20G 4G 2G16G 1G25
  24595662.774    -8145961.99849  -6318361.13245  24595662.557    24595670.850
  22738549.714   -14715980.65049 -10791986.27946  22738549.860    22738554.631
  20424725.788   -24696546.48049 -18100000.06848  20424725.167    20424729.856
  24429739.914    -7877591.40249  -6108249.08845  24429739.943    24429746.910
  21399368.791    -4099217.55149  -3166474.01847  21399368.186    21399374.107
  21406797.550   -22397696.98849 -17419622.97847  21406797.242    21406801.600
  20947162.542   -27103525.91949 -21097799.12847  20947162.171    20947167.618
  24213484.962   -10441780.68749  -8098132.82745  24213484.923    24213491.313
 03  6  4  2 39 30.0000000  0  8G27G13G20G 4G 2G16G 1G25
  24580876.637    -8223662.95949  -6378907.22445  24580876.414    24580884.747
  22725003.811   -14787164.78449 -10847454.40446  22725003.937    22725008.697
  20430376.709   -24666850.76949 -18076860.56348  20430376.075    20430380.775
  24428565.957    -7883759.72349  -6113055.54645  24428566.106    24428573.099
  21394620.287    -4124170.93749  -3185918.19147  21394619.673    21394625.614
  21406786.852   -22397753.21649 -17419666.77747  21406786.530    21406790.924
  20940884.786   -27136515.80649 -21123505.52147  20940884.407    20940889.843
  24229755.951   -10356275.88749  -8031505.75445  24229755.899    24229762.421
 03  6  4  2 40  0.0000000  0  8G27G13G20G 4G 2G16G 1G25
  24566118.371    -8301217.40649  -6439339.14645  24566118.140    24566126.471
  22711470.400   -14858283.31649 -10902871.40946  22711470.477    22711475.288
  20436135.733   -24636586.91349 -18053278.34048  20436135.118    20436139.820
  24427488.611    -7889420.92049  -6117466.85945  24427488.742    24427495.762
  21389962.355    -4148648.61549  -3204991.68047  21389961.738    21389967.631
  21406887.992   -22397221.52449 -17419252.45647  21406887.680    21406892.113
  20934639.352   -27169335.76549 -21149079.49347  20934638.961    20934644.421
  24246025.344   -10270779.55049  -7964885.25845  24246025.336    24246031.900
 03  6  4  2 40 30.0000000  0  8G27G13G20G 4G 2G16G 1G25
  24551388.096    -8378625.04649  -6499656.68345  24551387.978    24551396.203
  22697949.524   -14929335.73949 -10958236.90046  22697949.626    22697954.377
  20442002.774   -24605755.42049 -18029253.80648  20442002.146    20442006.878
  24426507.752    -7894575.54249  -6121483.43945  24426507.891    24426514.773
  21385395.093    -4172649.74049  -3223693.83747  21385394.480    21385400.338
  21407101.078   -22396101.53749 -17418379.72647  21407100.772    21407105.241
  20928426.419   -27201984.94249 -21174520.39647  20928426.032    20928431.470
  24262292.892   -10185293.06449  -7898272.46445  24262292.884    24262299.393
 03  6  4  2 41  0.0000000  0  8G27G13G20G 4G 2G16G 1G25
  24536685.789    -8455885.60349  -6559859.60545  24536685.596    24536693.922
  22684441.340   -15000321.52649 -11013550.46646  22684441.528    22684446.226
  20447977.644   -24574357.16049 -18004787.63548  20447977.030    20447981.752
  24425623.119    -7899224.26649  -6125105.82045  24425623.393    24425630.162
  21380918.583    -4196173.88149  -3242024.30947  21380917.978    21380923.813
  21407426.102   -22394393.54649 -17417048.80947  21407425.798    21407430.275
  20922246.049   -27234462.86349 -21199827.84747  20922245.671    20922251.100
  24278558.385   -10099817.54549  -7831668.22045  24278558.454    24278564.826
 03  6  4  2 41 30.0000000  0  8G27G13G20G 4G 2G16G 1G25
  24522011.743    -8532998.32949  -6619947.33145  24522011.565    24522019.755
  22670946.110   -15071239.55649 -11068811.24546  22670946.281    22670950.919
  20454060.340   -24542392.39249 -17979880.02548  20454059.709    20454064.449
  24424834.816    -7903367.07749  -6128333.97145  24424835.138    24424841.818
  21376532.990    -4219220.15249  -3259982.41347  21376532.385    21376538.214
  21407863.053   -22392097.50949 -17415259.67947  21407862.735    21407867.170
  20916098.490   -27266768.46349 -21225001.01947  20916098.087    20916103.547
  24294821.683   -10014353.94149  -7765073.25845  24294821.665    24294828.113
 03  6  4  2 42  0.0000000  0  8G27G13G20G 4G 2G16G 1G25
  24507365.734    -8609963.28349  -6679919.92045  24507365.504    24507373.722
  22657463.768   -15142089.70649 -11124019.13246  22657463.905    22657468.599
  20460250.614   -24509862.18349 -17954531.81248  20460249.994    20460254.748
  24424142.517    -7907005.00349  -6131168.70745  24424142.838    24424149.598
  21372238.376    -4241788.27049  -3277567.93847  21372237.788    21372243.623
  21408411.861   -22389213.58649 -17413012.45847  21408411.525    21408415.940
  20909983.782   -27298901.26849 -21250039.55247  20909983.400    20909988.862
  24311082.478    -9928903.15849  -7698488.30745  24311082.517    24311088.950
 03  6  4  2 42 30.0000000  0  8G27G13G20G 4G 2G16G 1G25
  24492747.792    -8686780.69049  -6739777.52545  24492747.614    24492755.737
  22643994.304   -15212871.68749 -11179173.89346  22643994.498    22643999.219
  20466548.310   -24476767.60849 -17928743.84048  20466547.714    20466552.444
  24423546.082    -7910139.07749  -6133610.83545  24423546.421    24423553.162
  21368034.847    -4263877.84749  -3294780.57147  21368034.258    21368040.081
  21409072.432   -22385742.22749 -17410307.49147  21409072.078    21409076.491
  20903902.055   -27330860.85249 -21274943.10547  20903901.670    20903907.161
  24327340.535    -9843466.93149  -7631914.67845  24327340.572    24327346.994
 03  6  4  2 43  0.0000000  0  8G27G13G20G 4G 2G16G 1G25
  24478158.181    -8763448.88049  -6799518.86045  24478158.035    24478166.213
  22630538.314   -15283583.38949 -11234273.89346  22630538.485    22630543.145
  20472953.509   -24443108.08549 -17902515.64148  20472952.910    20472957.650
  24423045.751    -7912768.42749  -6135659.68145  24423046.107    24423052.844
  21363922.715    -4285487.14949  -3311618.96647  21363922.125    21363927.933
  21409845.057   -22381682.03149 -17407143.68647  21409844.713    21409849.147
  20897853.686   -27362645.14249 -21299710.07247  20897853.287    20897858.742
  24343595.819    -9758045.15949  -7565352.30345  24343595.909    24343602.341
 03  6  4  2 43 30.0000000  0  8G27G13G20G 4G 2G16G 1G25
  24463597.029    -8839967.41449  -6859143.59945  24463596.785    24463605.140
  22617095.827   -15354224.28849 -11289318.71546  22617095.960    22617100.582
  20479466.095   -24408884.30349 -17875847.76748  20479465.481    20479470.220
  24422641.458    -7914893.85549  -6137315.84845  24422641.687    24422648.431
  21359902.114    -4306615.44649  -3328082.55247  21359901.518    21359907.326
  21410729.720   -22377033.29949 -17403521.28447  21410729.390    21410733.783
  20891838.887   -27394253.28649 -21324339.78447  20891838.471    20891843.891
  24359848.208    -9672638.35849  -7498801.58345  24359848.198    24359854.614
 03  6  4  2 44  0.0000000  0  8G27G13G20G 4G 2G16G 1G25
  24449064.340    -8916336.54749  -6918651.90445  24449064.085    24449072.493
  22603666.717   -15424794.28849 -11344308.29346  22603666.887    22603671.521
  20486085.806   -24374097.55749 -17848741.22248  20486085.188    20486089.931
  24422332.802    -7916516.54049  -6138580.27945  24422332.920    24422339.679
  21355973.052    -4327262.73049  -3344171.31947  21355972.438    21355978.248
  21411726.260   -22371796.51749 -17399440.65747  21411725.921    21411730.319
  20885857.655   -27425684.82449 -21348831.87247  20885857.242    20885862.643
  24376097.408    -9587248.50649  -7432264.07745  24376097.459    24376103.800
 03  6  4  2 44 30.0000000  0  8G27G13G20G 4G 2G16G 1G25
  24434560.331    -8992555.49149  -6978043.19245  24434560.076    24434568.305
  22590251.351   -15495292.14049 -11399241.65046  22590251.555    22590256.224
  20492812.522   -24338748.33449 -17821196.38948  20492811.921    20492816.638
  24422119.633    -7917636.60449  -6139453.04845  24422119.808    24422126.411
  21352135.710    -4347428.01649  -3359884.50747  21352135.105    21352140.869
  21412834.709   -22365971.42349 -17394901.61247  21412834.383    21412838.771
  20879910.239   -27456938.72949 -21373185.56047  20879909.839    20879915.247
  24392343.239    -9501876.29149  -7365740.29245  24392343.342    24392349.798
 03  6  4  2 45  0.0000000  0  8G27G13G20G 4G 2G16G 1G25
  24420084.797    -9068623.99949  -7037317.24545  24420084.658    24420092.945
  22576849.865   -15565717.21449 -11454118.30546  22576850.022    22576854.787
  20499646.210   -24302837.37649 -17793213.83348  20499645.601    20499650.306
  24422001.975    -7918254.53749  -6139934.54045  24422002.239    24422008.751
  21348390.196    -4367110.75349  -3375221.68047  21348389.597    21348395.373
  21414055.010   -22359558.35749 -17389904.41147  21414054.669    21414059.082
  20873996.844   -27488014.03449 -21397400.07147  20873996.433    20874001.833
  24408585.579    -9416522.06049  -7299230.55845  24408585.518    24408592.154
 03  6  4  2 45 30.0000000  0  8G27G13G20G 4G 2G16G 1G25
  24405638.066    -9144541.47049  -7096473.62245  24405637.919    24405646.182
  22563462.449   -15636068.50449 -11508937.46246  22563462.610    22563467.376
  20506586.627   -24266365.23549 -17764793.99648  20506586.036    20506590.754
  24421979.640    -7918371.20249  -6140025.43845  24421980.055    24421986.568
  21344736.608    -4386310.34949  -3390182.38547  21344736.007    21344741.804
  21415387.259   -22352557.19949 -17384448.95347  21415386.936    21415391.340
  20868117.565   -27518909.70149 -21421474.60947  20868117.153    20868122.590
  24424824.316    -9331187.03849  -7232735.80345  24424824.326    24424830.854
 03  6  4  2 46  0.0000000  0  8G27G13G20G 4G 2G16G 1G25
  24391220.060    -9220308.49349  -7155512.76845  24391219.890    24391228.064
  22550089.075   -15706346.23749 -11563699.29146  22550089.218    22550093.917
  20513633.544   -24229333.45949 -17735938.08248  20513632.947    20513637.674
  24422052.589    -7917987.74049  -6139726.62645  24422052.985    24422059.446
  21341174.934    -4405026.94349  -3404766.72147  21341174.342    21341180.141
  21416831.250   -22344968.87049 -17378535.96447  21416830.946    21416835.297
  20862272.466   -27549625.73349 -21445409.16747  20862272.070    20862277.478
  24441058.995    -9245872.72649  -7166257.18445  24441058.958    24441065.680
 03  6  4  2 46 30.0000000  0  8G27G13G20G 4G 2G16G 1G25
  24376830.872    -9295924.13249  -7214433.95345  24376830.541    24376838.749
  22536729.843   -15776549.35249 -11618402.98346  22536730.006    22536734.670
  20520786.915   -24191742.40949 -17706646.36248  20520786.305    20520791.031
  24422220.561    -7917104.43549  -6139038.32845  24422220.858    24422227.651
  21337705.366    -4423259.40649  -3418973.81847  21337704.765    21337710.586
  21418387.041   -22336793.23249 -17372165.33147  21418386.739    21418391.040
  20856461.860   -27580160.74149 -21469202.66747  20856461.462    20856466.844
  24457289.656    -9160579.79649  -7099795.26545  24457289.631    24457296.434
 03  6  4  2 47  0.0000000  0  8G27G13G20G 4G 2G16G 1G25
  24362470.494    -9371388.29549  -7273237.10645  24362470.233    24362478.250
  22523385.018   -15846676.73149 -11673047.67046  22523385.155    22523389.818
  20528046.456   -24153593.16749 -17676919.69348  20528045.860    20528050.603
  24422483.362    -7915722.56449  -6137961.53245  24422483.786    24422490.675
  21334327.968    -4441007.50449  -3432803.48647  21334327.383    21334333.222
  21420054.518   -22328030.74849 -17365337.41147  21420054.195    21420058.525
  20850685.830   -27610513.93749 -21492854.49847  20850685.431    20850690.810
  24473516.108    -9075309.11949  -7033350.65345  24473516.197    24473522.943
 03  6  4  2 47 30.0000000  0  8G27G13G20G 4G 2G16G 1G25
  24348138.855    -9446700.69349  -7331922.00745  24348138.544    24348146.615
  22510054.711   -15916727.89249 -11727632.95946  22510054.843    22510059.496
  20535412.061   -24114886.69349 -17646758.81048  20535411.460    20535416.236
  24422841.278    -7913842.45349  -6136496.50245  24422841.539    24422848.488
  21331042.837    -4458270.94449  -3446255.49247  21331042.247    21331048.091
  21421833.607   -22318681.61549 -17358052.35947  21421833.264    21421837.616
  20844944.598   -27640684.38149 -21516363.92247  20844944.195    20844949.579
  24489738.261    -8990061.84349  -6966924.29045  24489738.327    24489745.124
 03  6  4  2 48  0.0000000  0  8G27G13G20G 4G 2G16G 1G25
  24333836.306    -9521861.08749  -7390488.44245  24333836.066    24333843.916
  22496739.047   -15986701.83849 -11782158.08846  22496739.231    22496743.888
  20542883.569   -24075623.72649 -17616164.29648  20542882.968    20542887.763
  24423293.810    -7911464.96649  -6134643.90445  24423294.025    24423300.798
  21327850.029    -4475049.24849  -3459329.47647  21327849.427    21327855.246
  21423724.276   -22308746.06149 -17350310.36447  21423723.925    21423728.302
  20839238.276   -27670671.17549 -21539730.24747  20839237.886    20839243.291
  24505955.740    -8904838.97949  -6900516.92845  24505955.730    24505962.478
 03  6  4  2 48 30.0000000  0  8G27G13G20G 4G 2G16G 1G25
  24319562.800    -9596869.03249  -7448936.09745  24319562.478    24319570.372
  22483438.230   -16056597.99949 -11836622.59646  22483438.409    22483443.038
  20550460.804   -24035805.21049 -17585136.89448  20550460.202    20550464.975
  24423840.907    -7908590.75449  -6132404.26245  24423840.997    24423847.682
  21324749.643    -4491341.82249  -3472024.97147  21324749.053    21324754.823
  21425726.475   -22298224.40449 -17342111.66047  21425726.138    21425730.453
  20833567.058   -27700473.38249 -21562952.73947  20833566.662    20833572.075
  24522168.390    -8819641.32449  -6834129.19545  24522168.376    24522175.136
 03  6  4  2 49  0.0000000  0  8G27G13G20G 4G 2G16G 1G25
  24305318.200    -9671724.05249  -7507264.60045  24305318.029    24305325.736
  22470152.464   -16126415.25649 -11891025.63546  22470152.627    22470157.225
  20558143.571   -23995431.98149 -17553677.24248  20558142.944    20558147.739
  24424482.245    -7905220.51749  -6129778.09045  24424482.214    24424488.972
  21321741.815    -4507148.11649  -3484341.54847  21321741.216    21321746.964
  21427840.192   -22287116.69449 -17333456.29247  21427839.875    21427844.170
  20827931.224   -27730089.78849 -21586030.44647  20827930.844    20827936.253
  24538376.183    -8734469.15949  -6767761.31445  24538376.166    24538382.834
 03  6  4  2 49 30.0000000  0  8G27G13G20G 4G 2G16G 1G25
  24291102.788    -9746426.03649  -7565473.82945  24291102.560    24291110.452
  22456881.744   -16196153.13249 -11945366.80646  22456881.954    22456886.512
  20565931.685   -23954505.16649 -17521786.22448  20565931.072    20565935.886
  24425217.734    -7901355.44749  -6126766.35045  24425217.685    24425224.560
  21318826.532    -4522467.96549  -3496279.07347  21318825.924    21318831.648
  21430065.325   -22275423.57449 -17324344.76247  21430064.995    21430069.284
  20822330.879   -27759519.76149 -21608962.87547  20822330.500    20822335.896
  24554578.849    -8649323.87149  -6701414.38545  24554578.789    24554585.534
 03  6  4  2 50  0.0000000  0  8G27G13G20G 4G 2G16G 1G25
  24276916.783    -9820974.32549  -7623563.31745  24276916.500    24276924.299
  22443626.352   -16265810.47449 -11999645.23846  22443626.591    22443631.168
  20573825.041   -23913025.36049 -17489464.30648  20573824.438    20573829.245
  24426047.141    -7896995.90649  -6123369.30245  24426047.219    24426054.117
  21316003.964    -4537300.57149  -3507836.92747  21316003.378    21316009.096
  21432401.836   -22263145.11649 -17314777.12647  21432401.497    21432405.840
  20816766.269   -27788761.99949 -21631749.01747  20816765.883    20816771.302
  24570776.250    -8564206.14549  -6635088.90545  24570776.245    24570782.852
 03  6  4  2 50 30.0000000  0  8G27G13G20G 4G 2G16G 1G25
  24262759.884    -9895369.05049  -7681533.14945  24262759.531    24262767.440
  22430386.538   -16335386.52849 -12053860.32546  22430386.697    22430391.253
  20581823.373   -23870993.94049 -17456712.56348  20581822.761    20581827.540
  24426970.552    -7892143.14649  -6119587.93345  24426970.710    24426977.578
  21313274.143    -4551645.97049  -3519015.14347  21313273.558    21313279.282
  21434849.555   -22250282.12849 -17304754.01547  21434849.223    21434853.580
  20811237.441   -27817816.06849 -21654388.54847  20811237.050    20811242.479
  24586968.300    -8479117.07049  -6568785.75245  24586968.186    24586974.840
 03  6  4  2 51  0.0000000  0  8G27G13G20G 4G 2G16G 1G25
  24248632.232    -9969609.91549  -7739383.08345  24248631.962    24248639.844
  22417162.242   -16404880.50049 -12108011.45546  22417162.421    22417166.998
  20589926.536   -23828411.55749 -17423531.49848  20589925.941    20589930.694
  24427987.918    -7886798.09449  -6115422.94645  24427987.915    24427994.636
  21310637.082    -4565503.61849  -3529813.29347  21310636.503    21310642.271
  21437408.499   -22236834.73749 -17294275.52347  21437408.171    21437412.495
  20805744.672   -27846680.74049 -21676880.49447  20805744.303    20805749.695
  24603154.768    -8394057.06449  -6502505.27645  24603154.640    24603161.399
 03  6  4  2 51 30.0000000  0  8G27G13G20G 4G 2G16G 1G25
  24234533.922   -10043696.60049  -7797112.90045  24234533.682    24234541.498
  22403953.692   -16474291.79749 -12162098.16146  22403953.855    22403958.423
  20598134.318   -23785279.69849 -17389922.27548  20598133.709    20598138.429
  24429098.714    -7880961.30049  -6110874.80345  24429098.677    24429105.428
  21308092.930    -4578873.24249  -3540231.16447  21308092.345    21308098.122
  21440078.574   -22222803.40649 -17283342.01547  21440078.233    21440082.569
  20800288.172   -27875355.10749 -21699224.14947  20800287.780    20800293.145
  24619335.546    -8309026.95149  -6436248.11445  24619335.469    24619342.034
 03  6  4  2 52  0.0000000  0  8G27G13G20G 4G 2G16G 1G25
  24220465.014   -10117628.85049  -7854722.37145  24220464.741    24220472.632
  22390761.074   -16543619.29549 -12216119.55246  22390761.269    22390765.820
  20606446.400   -23741599.33449 -17355885.64448  20606445.784    20606450.500
  24430302.718    -7874633.95149  -6105944.41145  24430302.773    24430309.484
  21305641.656    -4591754.65649  -3550268.61147  21305641.072    21305646.854
  21442859.587   -22208188.81349 -17271954.01447  21442859.277    21442863.591
  20794867.985   -27903838.35249 -21721418.87947  20794867.603    20794872.936
  24635510.368    -8224027.75549  -6370015.05745  24635510.271    24635517.102
 03  6  4  2 52 30.0000000  0  8G27G13G20G 4G 2G16G 1G25
  24206425.507   -10191406.32249  -7912211.22345  24206425.331    24206433.150
  22377584.532   -16612862.09149 -12270074.95346  22377584.740    22377589.319
  20614862.753   -23697371.39349 -17321422.32648  20614862.118    20614866.861
  24431599.754    -7867816.99149  -6100632.49945  24431599.906    24431606.746
  21303283.376    -4604147.55649  -3559925.40247  21303282.774    21303288.546
  21445751.566   -22192991.23349 -17260111.73647  21445751.255    21445755.558
  20789484.343   -27932129.34849 -21743463.80747  20789483.960    20789489.318
  24651679.231    -8139060.13949  -6303806.62945  24651679.168    24651686.075
 03  6  4  2 53  0.0000000  0  8G27G13G20G 4G 2G16G 1G25
  24192415.553   -10265028.92349  -7969579.41445  24192415.390    24192423.234
  22364424.303   -16682019.40949 -12323963.73546  22364424.491    22364429.137
  20623382.979   -23652597.18149 -17286533.33948  20623382.350    20623387.112
  24432989.978    -7860511.47149  -6094939.87845  24432990.054    24432997.053
  21301018.130    -4616051.61549  -3569201.27247  21301017.542    21301023.264
  21448754.348   -22177211.36249 -17247815.72347  21448754.037    21448758.370
  20784137.515   -27960227.13049 -21765358.17747  20784137.131    20784142.489
  24667841.767    -8054125.47149  -6237623.86745  24667841.659    24667848.644
 03  6  4  2 53 30.0000000  0  8G27G13G20G 4G 2G16G 1G25
  24178435.194   -10338495.98149  -8026826.40245  24178434.978    24178442.760
  22351280.549   -16751090.30949 -12377785.18946  22351280.710    22351285.380
  20632007.074   -23607277.40049 -17251219.24748  20632006.449    20632011.213
  24434473.047    -7852717.96849  -6088867.01845  24434473.046    24434480.149
  21298845.942    -4627466.57249  -3578096.02447  21298845.326    21298851.026
  21451867.855   -22160849.57349 -17235066.27147  21451867.561    21451871.862
  20778827.684   -27988130.47949 -21787101.03747  20778827.277    20778832.645
  24683998.073    -7969223.95349  -6171466.91145  24683997.954    24684004.874
 03  6  4  2 54  0.0000000  0  8G27G13G20G 4G 2G16G 1G25
  24164484.336   -10411807.95649  -8083952.54745  24164483.976    24164491.883
  22338153.364   -16820074.43349 -12431539.02546  22338153.468    22338158.114
  20640734.611   -23561414.00149 -17215481.54448  20640733.987    20640738.747
  24436048.571    -7844438.04749  -6082415.14845  24436048.735    24436055.603
  21296766.756    -4638392.72549  -3586609.89647  21296766.156    21296771.827
  21455091.896   -22143907.01149 -17221864.27047  21455091.599    21455095.901
  20773554.843   -28015839.02749 -21808692.10547  20773554.468    20773559.864
  24700147.824    -7884356.93749  -6105336.84045  24700147.684    24700154.566
 03  6  4  2 54 30.0000000  0  8G27G13G20G 4G 2G16G 1G25
  24150563.105   -10484964.14349  -8140957.29445  24150562.763    24150570.570
  22325042.838   -16888970.36649 -12485224.14646  22325042.994    22325047.560
  20649565.485   -23515007.61349 -17179320.73148  20649564.864    20649569.613
  24437716.573    -7835672.45849  -6075584.82545  24437716.710    24437723.640
  21294780.705    -4648829.32949  -3594742.29747  21294780.111    21294785.791
  21458426.467   -22126383.94049 -17208209.92347  21458426.161    21458430.462
  20768319.409   -28043351.43349 -21830130.33047  20768319.022    20768324.480
  24716290.897    -7799524.92049  -6039234.03145  24716290.728    24716297.685
 03  6  4  2 55  0.0000000  0  8G27G13G20G 4G 2G16G 1G25
  24136671.405   -10557965.31849  -8197841.26845  24136671.141    24136678.817
  22311949.198   -16957777.94849 -12538840.43046  22311949.349    22311953.923
  20658499.257   -23468060.42749 -17142738.51748  20658498.609    20658503.359
  24439476.479    -7826423.17549  -6068377.59945  24439476.843    24439483.644
  21292887.677    -4658776.97349  -3602493.69147  21292887.091    21292892.800
  21461871.219   -22108281.61749 -17194104.21047  21461870.906    21461875.233
  20763121.311   -28070667.60949 -21851415.65147  20763120.930    20763126.367
  24732427.014    -7714729.47549  -5973159.71545  24732426.857    24732433.729
 03  6  4  2 55 30.0000000  0  8G27G13G20G 4G 2G16G 1G25
  24122809.497   -10630809.80649  -8254603.13245  24122809.238    24122816.814
  22298872.751   -17026495.09949 -12592386.24046  22298872.902    22298877.474
  20667535.911   -23420572.37549 -17105734.85347  20667535.293    20667540.050
  24441328.709    -7816690.03249  -6060793.33745  24441328.961    24441335.749
  21291088.018    -4668234.37749  -3609863.07747  21291087.437    21291093.124
  21465426.297   -22089599.45049 -17179546.67147  21465425.995    21465430.363
  20757961.035   -28097785.29049 -21872546.30048  20757960.633    20757966.055
  24748556.262    -7629970.02649  -5907113.43745  24748556.141    24748563.016
 03  6  4  2 56  0.0000000  0  8G27G13G20G 4G 2G16G 1G25
  24108977.376   -10703498.11649  -8311243.30945  24108977.153    24108984.568
  22285813.524   -17095121.64949 -12645861.45746  22285813.692    22285818.271
  20676675.182   -23372545.28449 -17068311.15647  20676674.576    20676679.321
  24443272.668    -7806474.56349  -6052833.23445  24443272.923    24443279.781
  21289381.520    -4677201.86449  -3616850.71547  21289380.928    21289386.648
  21469091.470   -22070338.78649 -17164538.35847  21469091.157    21469095.545
  20752838.570   -28124704.02249 -21893521.92848  20752838.169    20752843.569
  24764678.377    -7545248.02149  -5841096.34446  24764678.310    24764685.057
 03  6  4  2 56 30.0000000  0  8G27G13G20G 4G 2G16G 1G25
  24095175.056   -10776029.55149  -8367761.24745  24095174.888    24095182.225
  22272771.827   -17163656.14549 -12699264.93246  22272771.991    22272776.578
  20685916.901   -23323979.92649 -17030468.03047  20685916.258    20685921.001
  24445308.367    -7795777.44149  -6044497.82745  24445308.625    24445315.386
  21287768.342    -4685679.03949  -3623456.28947  21287767.755    21287773.505
  21472866.688   -22050499.95249 -17149079.51847  21472866.364    21472870.742
  20747754.228   -28151422.48149 -21914341.49948  20747753.829    20747759.185
  24780793.306    -7460563.81849  -5775108.69646  24780793.234    24780799.885
 03  6  4  2 57  0.0000000  0  8G27G13G20G 4G 2G16G 1G25
  24081402.540   -10848404.29149  -8424157.09645  24081402.442    24081409.651
  22259747.746   -17232098.15449 -12752596.35246  22259747.887    22259752.473
  20695260.678   -23274877.91649 -16992206.73547  20695260.050    20695264.818
  24447435.110    -7784600.33349  -6035788.41545  24447435.433    24447442.308
  21286248.500    -4693666.04449  -3629679.91247  21286247.897    21286253.637
  21476751.707   -22030083.87949 -17133170.88147  21476751.384    21476755.780
  20742708.133   -28177939.88149 -21935004.40948  20742707.722    20742713.090
  24796900.832    -7375918.37249  -5709151.26245  24796900.772    24796907.413
 03  6  4  2 57 30.0000000  0  8G27G13G20G 4G 2G16G 1G25
  24067659.881   -10920622.19349  -8480430.71045  24067659.736    24067667.030
  22246741.403   -17300446.61849 -12805854.87146  22246741.611    22246746.176
  20704706.310   -23225240.62849 -16953528.34547  20704705.691    20704710.491
  24449653.230    -7772944.16549  -6026705.68345  24449653.637    24449660.381
  21284821.914    -4701162.71949  -3635521.46248  21284821.325    21284827.031
  21480746.455   -22009091.37249 -17116813.07347  21480746.119    21480750.539
  20737700.481   -28204255.13049 -21955509.79348  20737700.089    20737705.423
  24813000.896    -7291312.23749  -5643224.42745  24813000.857    24813007.498
 03  6  4  2 58  0.0000000  0  8G27G13G20G 4G 2G16G 1G25
  24053947.075   -10992683.28749  -8536582.13645  24053946.910    24053954.223
  22233753.005   -17368700.93249 -12859040.03146  22233753.203    22233757.792
  20714253.483   -23175069.87349 -16914434.26947  20714252.881    20714257.685
  24451962.328    -7760810.59149  -6017250.96545  24451962.718    24451969.410
  21283488.619    -4708169.36149  -3640981.16848  21283488.018    21283493.703
  21484850.648   -21987523.44049 -17100006.88347  21484850.318    21484854.755
  20732731.443   -28230367.53949 -21975857.11148  20732731.069    20732736.403
  24829093.184    -7206746.84249  -5577329.33945  24829093.126    24829099.832
 03  6  4  2 58 30.0000000  0  8G27G13G20G 4G 2G16G 1G25
  24040264.264   -11064587.07849  -8592611.01345  24040264.072    24040271.206
  22220782.841   -17436859.55849 -12912150.63046  22220783.012    22220787.623
  20723902.108   -23124366.31749 -16874925.02147  20723901.471    20723906.256
  24454362.103    -7748200.32749  -6007424.78945  24454362.317    24454369.231
  21282248.644    -4714685.50149  -3646058.66548  21282248.026    21282253.717
  21489064.301   -21965380.67549 -17082752.77547  21489063.981    21489068.401
  20727801.251   -28256275.87249 -21996045.41648  20727800.872    20727806.207
  24845177.745    -7122222.13249  -5511465.93645  24845177.702    24845184.405
 03  6  4  2 59  0.0000000  0  8G27G13G20G 4G 2G16G 1G25
  24026611.294   -11136333.88449  -8648517.55645  24026611.223    24026618.122
  22207830.976   -17504922.09049 -12965186.35046  22207831.178    22207835.721
  20733651.700   -23073132.03149 -16835002.21847  20733651.062    20733655.841
  24456852.249    -7735115.22449  -5997228.62645  24456852.462    24456859.283
  21281101.857    -4720711.68949  -3650754.38248  21281101.250    21281106.970
  21493387.083   -21942664.26949 -17065051.67447  21493386.788    21493391.184
  20722909.997   -28281979.65049 -22016074.32048  20722909.608    20722914.939
  24861254.289    -7037739.58549  -5445635.37945  24861254.152    24861260.953
 03  6  4  2 59 30.0000000  0  8G27G13G20G 4G 2G16G 1G25
  24012988.274   -11207923.00549  -8704301.21745  24012988.145    24012995.016
  22194897.686   -17572887.27449 -13018146.23146  22194897.852    22194902.369
  20743502.124   -23021367.86649 -16794666.52147  20743501.493    20743506.237
  24459432.587    -7721556.04549  -5986663.02745  24459432.767    24459439.523
  21280048.448    -4726247.24949  -3655067.78748  21280047.859    21280053.578
  21497818.976   -21919374.55949 -17046903.84647  21497818.670    21497823.062
  20718057.986   -28307477.15649 -22035942.49048  20718057.597    20718062.919
  24877322.684    -6953299.80349  -5379838.15645  24877322.538    24877329.400
 03  6  4  3  0  0.0000000  0  7G27G13G20G 4G 2G16G 1
  23999395.842   -11279351.17049  -8759959.45645  23999395.694    23999402.663
  22181983.641   -17640750.87549 -13071026.92846  22181983.802    22181988.310
  20753453.663   -22969072.14849 -16753916.62547  20753453.043    20753457.773
  24462103.310    -7707520.80949  -5975726.47445  24462103.509    24462110.284
  21279088.938    -4731289.38149  -3658996.71148  21279088.324    21279094.086
  21502360.412   -21895509.31549 -17028307.54647  21502360.096    21502364.503
  20713246.002   -28332764.26149 -22055646.71448  20713245.608    20713250.955
 03  6  4  3  0 30.0000000  0  7G27G13G20G 4G 2G16G 1
  23985833.861   -11350619.76449  -8815493.35545  23985833.613    23985840.701
  22169088.860   -17708513.49249 -13123828.93846  22169088.999    22169093.467
  20763505.815   -22916247.86649 -16712754.86647  20763505.194    20763509.910
  24464863.957    -7693012.48149  -5964421.30645  24464864.387    24464871.206
  21278223.084    -4735839.46449  -3662542.21648  21278222.493    21278228.259
  21507010.886   -21871070.99449 -17009264.68747  21507010.566    21507014.940
  20708473.926   -28357841.49549 -22075187.39648  20708473.512    20708478.891
 03  6  4  3  1  0.0000000  0  7G27G13G20G 4G 2G16G 1
  23972301.496   -11421732.20449  -8870905.57245  23972301.301    23972308.399
  22156212.762   -17776177.76549 -13176554.31346  22156212.883    22156217.385
  20773657.587   -22862900.04349 -16671185.14947  20773656.947    20773661.688
  24467713.857    -7678035.78249  -5952751.14745  24467714.354    24467721.102
  21277450.158    -4739901.19649  -3665707.18848  21277449.548    21277455.314
  21511769.523   -21846064.09949 -16989778.79647  21511769.192    21511773.610
  20703741.332   -28382711.39349 -22094566.53048  20703740.928    20703746.288
 03  6  4  3  1 30.0000000  0  7G27G13G20G 4G 2G16G 1
  23958799.055   -11492687.07849  -8926195.00545  23958798.849    23958806.093
  22143355.786   -17843741.27249 -13229201.17146  22143355.934    22143360.437
  20783908.978   -22809028.73349 -16629207.52047  20783908.340    20783913.094
  24470652.939    -7662590.87349  -5940716.15745  24470653.230    24470660.172
  21276770.322    -4743473.40949  -3668490.72348  21276769.749    21276775.497
  21516636.354   -21820488.46849 -16969849.73147  21516636.043    21516640.475
  20699048.591   -28407371.66649 -22113782.32248  20699048.207    20699053.533
 03  6  4  3  2  0.0000000  0  7G27G13G20G 4G 2G16G 1
  23945326.699   -11563484.63649  -8981361.84745  23945326.525    23945333.670
  22130518.152   -17911203.45549 -13281769.07046  22130518.271    22130522.830
  20794259.604   -22754635.85049 -16586823.47047  20794258.974    20794263.701
  24473681.114    -7646679.26149  -5928317.51145  24473680.993    24473687.914
  21276183.620    -4746556.63649  -3670893.22248  21276183.025    21276188.785
  21521611.255   -21794345.17449 -16949478.32447  21521610.939    21521615.368
  20694395.943   -28431821.56449 -22132834.17748  20694395.548    20694400.845
 03  6  4  3  2 30.0000000  0  7G27G13G20G 4G 2G16G 1
  23931884.421   -11634124.04149  -9036405.46545  23931884.261    23931891.280
  22117700.066   -17978562.64149 -13334256.71146  22117700.225    22117704.772
  20804709.291   -22699722.29849 -16544033.70547  20804708.680    20804713.404
  24476797.453    -7630301.84349  -5915555.89945  24476797.576    24476804.507
  21275690.089    -4749150.09749  -3672914.08948  21275689.487    21275695.244
  21526694.139   -21767634.49249 -16928664.80447  21526693.820    21526698.230
  20689783.698   -28456059.21349 -22151720.64748  20689783.301    20689788.593
 03  6  4  3  3  0.0000000  0  7G27G13G20G 4G 2G16G 1
  23918472.309   -11704604.79549  -9091325.44645  23918472.096    23918479.133
  22104901.904   -18045817.27349 -13386662.89246  22104902.075    22104906.649
  20815257.854   -22644289.38749 -16500839.24347  20815257.227    20815261.929
  24480002.578    -7613459.53149  -5902432.01545  24480002.587    24480009.582
  21275289.762    -4751253.64049  -3674553.19948  21275289.184    21275294.940
  21531884.858   -21740357.16949 -16907409.74247  21531884.527    21531888.896
  20685212.038   -28480083.35549 -22170440.74448  20685211.636    20685216.939
 03  6  4  3  3 30.0000000  0  7G27G13G20G 4G 2G16G 1
  23905090.419   -11774927.29349  -9146122.13445  23905090.210    23905097.182
  22092123.730   -18112966.96449 -13438987.30146  22092123.891    22092128.434
  20825904.866   -22588339.04249 -16457241.58747  20825904.237    20825908.941
  24483295.794    -7596154.31949  -5888947.43245  24483295.627    24483302.706
  21274982.603    -4752867.86549  -3675811.01948  21274982.006    21274987.738
  21537183.032   -21712514.94349 -16885714.50147  21537182.719    21537187.119
  20680681.114   -28503893.45749 -22188994.05648  20680680.713    20680686.038
 03  6  4  3  4  0.0000000  0  7G27G13G20G 4G 2G16G 1
  23891738.659   -11845091.04049  -9200795.11045  23891738.413    23891745.306
  22079365.815   -18180010.18349 -13491228.74746  22079365.993    22079370.540
  20836650.132   -22531872.27649 -16413241.52747  20836649.538    20836654.275
  24486676.652    -7578387.00649  -5875102.77645  24486676.676    24486683.667
  21274768.605    -4753992.37549  -3676687.24748  21274768.005    21274773.724
  21542588.711   -21684108.00449 -16863579.22847  21542588.406    21542592.797
  20676191.234   -28527487.93649 -22207379.35348  20676190.821    20676196.168
 03  6  4  3  4 30.0000000  0  7G27G13G20G 4G 2G16G 1
  23878417.086   -11915096.16649  -9255344.49845  23878416.856    23878423.785
  22066628.304   -18246946.25049 -13543386.69746  22066628.441    22066632.995
  20847493.274   -22474891.22249 -16368840.72047  20847492.661    20847497.405
  24490145.307    -7560159.58449  -5860899.60345  24490145.256    24490152.162
  21274647.678    -4754627.95349  -3677182.48348  21274647.078    21274652.767
  21548101.542   -21655137.95549 -16841005.16347  21548101.230    21548105.627
  20671742.433   -28550866.30349 -22225596.24248  20671742.031    20671747.361
 03  6  4  3  5  0.0000000  0  7G27G13G20G 4G 2G16G 1
  23865125.827   -11984942.27649  -9309769.96345  23865125.557    23865132.472
  22053911.467   -18313773.53049 -13595459.87446  22053911.615    22053916.131
  20858434.097   -22417396.96249 -16324040.01447  20858433.467    20858438.214
  24493701.170    -7541473.02849  -5846338.65145  24493701.262    24493708.142
  21274619.836    -4754774.30849  -3677296.50648  21274619.248    21274624.912
  21553721.354   -21625605.45749 -16817992.82247  21553721.029    21553725.441
  20667335.130   -28574026.85949 -22243643.41648  20667334.732    20667340.049
 03  6  4  3  5 30.0000000  0  7G27G13G20G 4G 2G16G 1
  23851864.822   -12054629.11649  -9364071.32045  23851864.557    23851871.433
  22041215.462   -18380491.34749 -13647447.75346  22041215.634    22041220.112
  20869472.249   -22359391.23049 -16278840.75947  20869471.615    20869476.385
  24497344.117    -7522328.78249  -5831421.05545  24497344.322    24497351.210
  21274685.049    -4754431.65049  -3677029.48748  21274684.452    21274690.123
  21559448.029   -21595511.51849 -16794543.00547  21559447.725    21559452.146
  20662969.425   -28596968.68949 -22261520.15748  20662969.024    20662974.350
 03  6  4  3  6  0.0000000  0  7G27G13G20G 4G 2G16G 1
  23838634.098   -12124156.95949  -9418248.79045  23838633.807    23838640.676
  22028540.557   -18447098.53149 -13699349.42246  22028540.679    22028545.142
  20880607.322   -22300875.96749 -16233244.46047  20880606.717    20880611.506
  24501073.906    -7502728.67949  -5816148.26445  24501074.139    24501080.953
  21274843.199    -4753600.51849  -3676381.83348  21274842.593    21274848.294
  21565281.227   -21564857.65749 -16770656.88447  21565280.937    21565285.410
  20658645.536   -28619690.82749 -22279225.70948  20658645.138    20658650.450
 03  6  4  3  6 30.0000000  0  7G27G13G20G 4G 2G16G 1
  23825433.552   -12193525.90249  -9472302.44045  23825433.306    23825440.147
  22015886.808   -18513594.32349 -13751164.31946  22015886.909    22015891.392
  20891839.029   -22241853.08049 -16187252.61047  20891838.401    20891843.208
  24504890.324    -7482674.18749  -5800521.39745  24504890.317    24504897.294
  21275094.186    -4752281.40149  -3675353.93548  21275093.569    21275099.284
  21571220.756   -21533645.25649 -16746335.53247  21571220.455    21571224.958
  20654363.653   -28642192.41849 -22296759.41348  20654363.262    20654368.562
 03  6  4  3  7  0.0000000  0  7G27G13G20G 4G 2G16G 1
  23812263.103   -12262736.54949  -9526232.74045  23812262.914    23812269.808
  22003254.251   -18579978.39649 -13802892.16246  22003254.444    22003258.913
  20903166.899   -22182324.80549 -16140866.95447  20903166.259    20903171.076
  24508792.521    -7462167.98149  -5784542.56145  24508792.536    24508799.556
  21275437.859    -4750475.21649  -3673946.50448  21275437.271    21275442.923
  21577266.190   -21501876.41549 -16721580.59347  21577265.890    21577270.336
  20650123.811   -28664472.95249 -22314120.86448  20650123.407    20650128.705
 03  6  4  3  7 30.0000000  0  7G27G13G20G 4G 2G16G 1
  23799123.136   -12331787.26449  -9580038.42145  23799122.900    23799129.893
  21990643.616   -18646247.86249 -13854530.68547  21990643.804    21990648.257
  20914590.867   -22122291.31349 -16094087.62647  20914590.231    20914595.062
  24512780.645    -7441209.56449  -5768211.34245  24512780.775    24512787.769
  21275874.490    -4748180.67149  -3672158.53348  21275873.879    21275879.522
  21583417.651   -21469550.48749 -16696391.55747  21583417.331    21583421.735
  20645926.517   -28686529.72649 -22331307.94748  20645926.123    20645931.397
 03  6  4  3  8  0.0000000  0  7G27G13G20G 4G 2G16G 1
  23786013.627   -12400677.80249  -9633719.28345  23786013.326    23786020.387
  21978054.981   -18712401.58349 -13906079.00447  21978055.149    21978059.595
  20926110.693   -22061754.16149 -16046915.82947  20926110.055    20926114.920
  24516854.671    -7419800.69849  -5751529.12945  24516854.724    24516861.617
  21276404.011    -4745397.94249  -3669990.15948  21276403.432    21276409.043
  21589674.825   -21436668.49149 -16670769.23147  21589674.519    21589678.949
  20641772.027   -28708361.68849 -22348319.85948  20641771.629    20641776.902
 03  6  4  3  8 30.0000000  0  7G27G13G20G 4G 2G16G 1
  23772934.384   -12469409.28249  -9687276.20345  23772934.091    23772941.163
  21965488.304   -18778439.73649 -13957537.28747  21965488.469    21965492.943
  20937725.823   -22000716.28149 -15999353.86047  20937725.195    20937730.091
  24521014.158    -7397943.71949  -5734497.73045  24521014.045    24521020.777
  21277026.150    -4742128.59849  -3667442.61048  21277025.542    21277031.164
  21596037.392   -21403232.93249 -16644715.55047  21596037.105    21596041.509
  20637660.289   -28729968.79349 -22365156.55748  20637659.895    20637665.210
 03  6  4  3  9  0.0000000  0  7G27G13G20G 4G 2G16G 1
  23759885.486   -12537981.09449  -9740708.71045  23759885.264    23759892.228
  21952943.954   -18844360.65949 -14008904.21147  21952944.103    21952948.535
  20949435.994   -21939178.96449 -15951402.71547  20949435.388    20949440.295
  24525258.301    -7375640.09849  -5717118.29745  24525258.287    24525265.068
  21277740.908    -4738372.35149  -3664515.65248  21277740.307    21277745.950
  21602505.209   -21369244.49049 -16618231.04747  21602504.927    21602509.282
  20633591.696   -28751349.31049 -22381816.68848  20633591.292    20633596.610
 03  6  4  3  9 30.0000000  0  7G27G13G20G 4G 2G16G 1
  23746867.029   -12606393.08249  -9794016.67945  23746866.776    23746873.773
  21940422.111   -18910163.21649 -14060178.89347  21940422.272    21940426.708
  20961240.871   -21877144.05649 -15903063.84047  20961240.255    20961245.159
  24529587.120    -7352891.36349  -5699392.03945  24529587.080    24529594.132
  21278548.271    -4734129.62349  -3661209.61948  21278547.678    21278553.325
  21609078.036   -21334704.33249 -16591316.64047  21609077.737    21609082.058
  20629566.452   -28772502.29649 -22398299.52648  20629566.029    20629571.342
 03  6  4  3 10  0.0000000  0  7G27G13G20G 4G 2G16G 1
  23733878.946   -12674645.62249  -9847200.40945  23733878.638    23733885.671
  21927923.015   -18975846.27549 -14111360.46247  21927923.185    21927927.634
  20973140.023   -21814613.65549 -15854338.86447  20973139.388    20973144.297
  24534000.282    -7329699.40149  -5681320.39945  24534000.455    24534007.352
  21279448.067    -4729401.26349  -3657525.16948  21279447.455    21279453.065
  21615755.505   -21299614.22849 -16563973.70747  21615755.214    21615759.468
  20625584.579   -28793426.94449 -22414604.43648  20625584.175    20625589.475
 03  6  4  3 10 30.0000000  0  7G27G13G20G 4G 2G16G 1
  23720921.255   -12742738.49649  -9900259.72345  23720920.978    23720927.898
  21915446.901   -19041408.72049 -14162448.05947  21915447.042    21915451.492
  20985133.208   -21751589.14849 -15805228.87447  20985132.575    20985137.445
  24538497.588    -7306065.74049  -5662904.58345  24538497.881    24538504.797
  21280440.241    -4724187.40949  -3653462.41448  21280439.608    21280445.232
  21622537.295   -21263975.30549 -16536203.12447  21622537.009    21622541.264
  20621646.455   -28814121.85349 -22430730.33348  20621646.052    20621651.331
 03  6  4  3 11  0.0000000  0  7G27G13G20G 4G 2G16G 1
  23707993.998   -12810671.30249  -9953194.31845  23707993.777    23708000.689
  21902993.998   -19106848.97349 -14213440.43647  21902994.143    21902998.600
  20997220.078   -21688072.21649 -15755735.17347  20997219.457    20997224.305
  24543078.679    -7281991.50549  -5644145.44945  24543079.060    24543085.868
  21281524.786    -4718487.96349  -3649021.27448  21281524.157    21281529.795
  21629423.357   -21227788.66649 -16508005.74947  21629423.072    21629427.341
  20617752.319   -28834585.55449 -22446676.06748  20617751.927    20617757.208
 03  6  4  3 11 30.0000000  0  7G27G13G20G 4G 2G16G 1
  23695097.117   -12878444.78549 -10006004.76945  23695096.895    23695103.733
  21890564.444   -19172166.77849 -14264337.40247  21890564.548    21890569.006
  21009400.206   -21624065.48949 -15705859.81747  21009399.555    21009404.387
  24547743.462    -7257479.40449  -5625045.12145  24547743.641    24547750.382
  21282701.486    -4712304.26849  -3644202.80248  21282700.853    21282706.496
  21636413.318   -21191056.40649 -16479383.21147  21636413.033    21636417.275
  20613902.275   -28854817.81849 -22462441.46448  20613901.893    20613907.158
 03  6  4  3 12  0.0000000  0  7G27G13G20G 4G 2G16G 1
  23682230.596   -12946058.57149 -10058690.76945  23682230.353    23682237.142
  21878158.453   -19237360.58849 -14315137.74547  21878158.536    21878163.003
  21021673.149   -21559570.78149 -15655604.21847  21021672.489    21021677.303
  24552491.027    -7232530.76149  -5605604.63945  24552491.084    24552497.756
  21283970.281    -4705636.47449  -3639007.10648  21283969.665    21283975.350
  21643506.850   -21153779.77249 -16450336.49147  21643506.532    21643510.797
  20610096.558   -28874816.98849 -22478025.22748  20610096.157    20610101.416
 03  6  4  3 12 30.0000000  0  7G27G13G20G 4G 2G16G 1
  23669394.493   -13013512.53649 -10111252.22946  23669394.229    23669401.043
  21865776.256   -19302428.92649 -14365840.32547  21865776.408    21865780.860
  21034038.690   -21494589.55249 -15604969.51147  21034038.039    21034042.857
  24557321.345    -7207147.19349  -5585825.25445  24557321.281    24557328.190
  21285331.190    -4698484.85649  -3633434.40348  21285330.572    21285336.243
  21650703.782   -21115959.68449 -16420866.30047  21650703.470    21650707.751
  20606335.424   -28894581.82849 -22493426.39248  20606335.031    20606340.299
 03  6  4  3 13  0.0000000  0  7G27G13G20G 4G 2G16G 1
  23656588.795   -13080806.87049 -10163689.29646  23656588.585    23656595.350
  21853418.133   -19367371.16949 -14416444.64147  21853418.284    21853422.733
  21046496.377   -21429123.90949 -15553957.32847  21046495.734    21046500.542
  24562234.298    -7181330.68849  -5565708.50745  24562233.919    24562240.897
  21286783.966    -4690850.25849  -3627485.36048  21286783.357    21286789.045
  21658003.772   -21077597.94449 -16390974.03647  21658003.456    21658007.705
  20602619.076   -28914111.55949 -22508644.34948  20602618.684    20602623.935
 03  6  4  3 13 30.0000000  0  7G27G13G20G 4G 2G16G 1
  23643812.371   -13147947.33949 -10216006.47146  23643812.159    23643818.871
  21841083.178   -19432191.57649 -14466954.01747  21841083.323    21841087.776
  21059044.814   -21363181.54949 -15502573.68647  21059044.167    21059048.992
  24567227.950    -7155088.55549  -5545260.10545  24567227.882    24567234.700
  21288327.537    -4682738.79449  -3621164.72448  21288326.948    21288332.608
  21665405.437   -21038701.74849 -16360665.31547  21665405.122    21665409.382
  20598946.559   -28933410.68349 -22523682.61848  20598946.166    20598951.402
 03  6  4  3 14  0.0000000  0  7G27G13G20G 4G 2G16G 1
  23631066.742   -13214925.62349 -10268197.25846  23631066.553    23631073.300
  21828773.204   -19496880.63549 -14517361.05147  21828773.395    21828777.821
  21071685.156   -21296756.08849 -15450813.60347  21071684.526    21071689.348
  24572303.845    -7128414.41549  -5524475.07045  24572303.968    24572310.579
  21289963.341    -4674142.71349  -3614466.46848  21289962.716    21289968.374
  21672910.217   -20999264.15249 -16329934.71947  21672909.897    21672914.152
  20595319.733   -28952469.87549 -22538533.93048  20595319.337    20595324.563
 03  6  4  3 14 30.0000000  0  7G27G13G20G 4G 2G16G 1
  23618351.848   -13281742.48149 -10320262.27246  23618351.635    23618358.453
  21816488.331   -19561438.13749 -14567665.57547  21816488.519    21816492.900
  21084416.877   -21229850.49249 -15398679.38747  21084416.242    21084421.082
  24577461.589    -7101311.06149  -5503355.59445  24577461.508    24577468.122
  21291691.005    -4665063.54349  -3607391.78248  21291690.400    21291696.091
  21680517.487   -20959287.63149 -16298784.19347  21680517.170    21680521.467
  20591738.623   -28971288.76149 -22553197.98848  20591738.226    20591743.460
 03  6  4  3 15  0.0000000  0  7G27G13G20G 4G 2G16G 1
  23605667.512   -13348398.83049 -10372202.20746  23605667.306    23605674.043
  21804228.547   -19625863.59749 -14617867.20647  21804228.746    21804233.069
  21097239.394   -21162467.63249 -15346173.27947  21097238.785    21097243.628
  24582700.249    -7073780.95349  -5481903.55945  24582700.390    24582706.953
  21293510.347    -4655502.63249  -3599941.71048  21293509.750    21293515.426
  21688226.910   -20918774.49849 -16267215.52247  21688226.593    21688230.889
  20588203.304   -28989866.93549 -22567674.47548  20588202.894    20588208.140
 03  6  4  3 15 30.0000000  0  7G27G13G20G 4G 2G16G 1
  23593013.731   -13414894.89649 -10424017.25346  23593013.487    23593020.245
  21791994.068   -19690156.28749 -14667965.37447  21791994.246    21791998.545
  21110152.385   -21094609.55849 -15293296.88047  21110151.756    21110156.608
  24588019.878    -7045826.22149  -5460120.67345  24588019.968    24588026.535
  21295421.264    -4645460.77149  -3592116.87148  21295420.667    21295426.335
  21696038.079   -20877726.27349 -16235229.89547  21696037.756    21696042.117
  20584713.944   -29008203.53549 -22581962.72248  20584713.539    20584718.802
 03  6  4  3 16  0.0000000  0  7G27G13G20G 4G 2G16G 1
  23580390.373   -13481230.87749 -10475707.56046  23580390.146    23580396.881
  21779785.028   -19754314.86449 -14717959.04947  21779785.238    21779789.556
  21123155.358   -21026278.43349 -15240051.86447  21123154.764    21123159.595
  24593419.842    -7017448.90149  -5438008.49045  24593419.990    24593426.535
  21297423.524    -4634938.73649  -3583917.87648  21297422.921    21297428.595
  21703950.741   -20836144.72349 -16202828.69447  21703950.428    21703954.855
  20581270.697   -29026297.65349 -22596062.02448  20581270.303    20581275.568
 03  6  4  3 16 30.0000000  0  7G27G13G20G 4G 2G16G 1
  23567797.393   -13547407.11549 -10527273.39746  23567797.164    23567803.889
  21767601.731   -19818338.39949 -14767847.48747  21767601.953    21767606.260
  21136247.949   -20957476.64949 -15186440.10447  21136247.320    21136252.144
  24598899.806    -6988651.16149  -5415568.71545  24598899.987    24598906.628
  21299516.903    -4623937.73349  -3575345.65548  21299516.302    21299521.980
  21711964.508   -20794032.16449 -16170013.70847  21711964.170    21711968.631
  20577873.784   -29044148.52149 -22609971.77648  20577873.375    20577878.630
 03  6  4  3 17  0.0000000  0  7G27G13G20G 4G 2G16G 1
  23555234.864   -13613423.36749 -10578714.56746  23555234.631    23555241.364
  21755444.487   -19882225.28549 -14817629.44947  21755444.689    21755449.004
  21149429.751   -20888206.03949 -15132463.02847  21149429.125    21149433.924
  24604459.572    -6959434.68749  -5392802.65245  24604459.587    24604466.428
  21301701.476    -4612457.81349  -3566400.25948  21301700.879    21301706.540
  21720079.099   -20751389.80049 -16136785.89847  21720078.782    21720083.249
  20574523.460   -29061754.59749 -22623690.78748  20574523.084    20574528.334
 03  6  4  3 17 30.0000000  0  7G27G13G20G 4G 2G16G 1
  23542702.713   -13679280.01849 -10630031.36746  23542702.487    23542709.198
  21743313.322   -19945975.03049 -14867304.54347  21743313.487    21743317.825
  21162700.237   -20818469.13249 -15078122.59647  21162699.608    21162704.417
  24610098.558    -6929801.62649  -5369711.97445  24610098.573    24610105.471
  21303976.907    -4600500.29649  -3557082.69948  21303976.314    21303981.931
  21728294.151   -20708219.34649 -16103146.58847  21728293.845    21728298.325
  20571219.825   -29079115.28649 -22637218.58148  20571219.441    20571224.680
 03  6  4  3 18  0.0000000  0  7G27G13G20G 4G 2G16G 1
  23530200.905   -13744977.35849 -10681224.02346  23530200.632    23530207.339
  21731208.449   -20009586.32149 -14916871.76847  21731208.657    21731212.997
  21176059.059   -20748268.11349 -15023420.52747  21176058.450    21176063.246
  24615816.619    -6899754.13249  -5346298.35645  24615816.545    24615823.416
  21306343.109    -4588065.75449  -3547393.44448  21306342.516    21306348.116
  21736609.280   -20664522.94149 -16069097.44347  21736608.989    21736613.477
  20567963.070   -29096229.65849 -22650554.44548  20567962.676    20567967.920
 03  6  4  3 18 30.0000000  0  7G27G13G20G 4G 2G16G 1
  23517729.435   -13810515.31749 -10732292.50446  23517729.145    23517735.830
  21719130.168   -20073057.98149 -14966330.17547  21719130.339    21719134.686
  21189505.854   -20677604.82849 -14968358.24747  21189505.231    21189510.026
  24621612.909    -6869293.87349  -5322563.10245  24621612.992    24621619.801
  21308799.951    -4575154.97849  -3537333.09248  21308799.375    21308804.943
  21745024.284   -20620301.97049 -16034639.53947  21745023.953    21745028.462
  20564753.439   -29113096.31949 -22663697.28648  20564753.058    20564758.314
 03  6  4  3 19  0.0000000  0  7G27G13G20G 4G 2G16G 1
  23505288.106   -13875894.50149 -10783237.24946  23505287.838    23505294.563
  21707078.625   -20136388.99349 -15015678.99347  21707078.842    21707083.178
  21203040.080   -20606482.11749 -14912937.97447  21203039.471    21203044.252
  24627487.258    -6838423.77149  -5298508.49245  24627487.346    24627494.233
  21311347.218    -4561769.20549  -3526902.61648  21311346.612    21311352.176
  21753538.678   -20575558.55749 -15999774.55147  21753538.379    21753542.886
  20561591.082   -29129714.53249 -22676646.52648  20561590.677    20561595.909
 03  6  4  3 19 30.0000000  0  7G27G13G20G 4G 2G16G 1
  23492877.257   -13941113.94949 -10834057.52246  23492876.920    23492883.652
  21695054.243   -20199577.36749 -15064916.64947  21695054.476    21695058.761
  21216661.476   -20534901.23149 -14857160.67247  21216660.851    21216665.640
  24633439.426    -6807144.58449  -5274135.12845  24633439.644    24633446.329
  21313984.887    -4547908.18349  -3516101.80548  21313984.296    21313989.826
  21762152.405   -20530293.50549 -15964503.08147  21762152.076    21762156.535
  20558476.381   -29146082.19549 -22689400.53348  20558475.963    20558481.214
 03  6  4  3 20  0.0000000  0  7G27G13G20G 4G 2G16G 1
  23480496.716   -14006173.89349 -10884753.51846  23480496.410    23480503.038
  21683057.300   -20262621.66649 -15114042.04447  21683057.522    21683061.812
  21230369.629   -20462864.35549 -14801028.05947  21230369.011    21230373.812
  24639469.147    -6775458.34149  -5249444.55945  24639469.451    24639475.938
  21316712.804    -4533572.94849  -3504931.48248  21316712.207    21316717.727
  21770864.972   -20484508.70949 -15928826.62347  21770864.634    21770869.110
  20555409.561   -29162198.44149 -22701958.63448  20555409.166    20555414.411
 03  6  4  3 20 30.0000000  0  7G27G13G20G 4G 2G16G 1
  23468146.500   -14071074.06449 -10935325.01246  23468146.261    23468152.875
  21671088.100   -20325520.30849 -15163053.94247  21671088.318    21671092.605
  21244164.241   -20390373.24849 -14744541.49547  21244163.632    21244168.447
  24645576.034    -6743366.60949  -5224438.03745  24645576.183    24645582.891
  21319530.877    -4518763.81349  -3493391.88548  21319530.266    21319535.785
  21779676.173   -20438205.41449 -15892746.13247  21779675.854    21779680.302
  20552390.939   -29178061.57749 -22714319.50648  20552390.546    20552395.740
 03  6  4  3 21  0.0000000  0  7G27G13G20G 4G 2G16G 1
  23455826.676   -14135814.83149 -10985772.29246  23455826.440    23455833.031
  21659146.760   -20388272.49149 -15211951.71147  21659146.955    21659151.222
  21258044.768   -20317430.47149 -14687702.98947  21258044.162    21258048.989
  24651759.699    -6710872.10649  -5199117.65445  24651759.742    24651766.415
  21322438.897    -4503481.92749  -3481483.90948  21322438.313    21322443.838
  21788585.680   -20391385.80249 -15856263.31247  21788585.376    21788589.733
  20549420.568   -29193670.99849 -22726482.67548  20549420.153    20549425.313
 03  6  4  3 21 30.0000000  0  7G27G13G20G 4G 2G16G 1
  23443537.160   -14200396.38949 -11036095.52046  23443536.868    23443543.527
  21647233.472   -20450877.20049 -15260734.56947  21647233.682    21647237.935
  21272010.870   -20244038.22549 -14630514.23847  21272010.264    21272015.092
  24658019.461    -6677976.77749  -5173484.96145  24658019.538    24658026.144
  21325436.735    -4487728.30249  -3469208.34548  21325436.138    21325441.648
  21797593.041   -20344051.81549 -15819379.69347  21797592.721    21797597.035
  20546498.663   -29209025.60349 -22738447.29048  20546498.265    20546503.456
 03  6  4  3 22  0.0000000  0  7G27G13G20G 4G 2G16G 1
  23431277.967   -14264818.63449 -11086294.60746  23431277.674    23431284.275
  21635348.607   -20513332.56149 -15309401.06047  21635348.780    21635353.016
  21286062.064   -20170198.75949 -14572977.01247  21286061.456    21286066.301
  24664355.099    -6644682.39649  -5147541.30045  24664355.212    24664362.030
  21328524.217    -4471503.38249  -3456565.54348  21328523.610    21328529.108
  21806697.994   -20296204.67649 -15782096.21847  21806697.677    21806702.020
  20543625.528   -29224123.91349 -22750212.19248  20543625.144    20543630.324
 03  6  4  3 22 30.0000000  0  8G27G13G20G 4G 2G16G 1G 3
  23419049.068   -14329081.84749 -11136369.77146  23419048.720    23419055.274
  21623492.245   -20575637.67049 -15357950.46947  21623492.438    21623496.675
  21300197.962   -20095914.23349 -14515092.98047  21300197.340    21300202.180
  24670766.292    -6610991.25349  -5121288.46945  24670766.364    24670773.216
  21331701.160    -4454808.30949  -3443556.38348  21331700.571    21331706.070
  21815900.221   -20247846.63049 -15744414.62447  21815899.907    21815904.279
  20540801.306   -29238965.10249 -22761776.73748  20540800.909    20540806.099
  24605572.760    -3078163.07549  -2377309.78945  24605572.546    24605579.184
 03  6  4  3 23  0.0000000  0  8G27G13G20G 4G 2G16G 1G 3
  23406850.348   -14393186.34849 -11186321.27546  23406850.025    23406856.490
  21611664.714   -20637791.48149 -15406381.98747  21611664.916    21611669.167
  21314418.048   -20021187.25049 -14456864.18547  21314417.426    21314422.247
  24677252.512    -6576905.78449  -5094728.40145  24677252.633    24677259.550
  21334967.352    -4437644.13449  -3430181.69748  21334966.770    21334972.303
  21825199.241   -20198979.76249 -15706336.54547  21825198.949    21825203.355
  20538026.244   -29253548.21649 -22773140.18848  20538025.841    20538031.050
  24591257.497    -3153390.35749  -2435928.43245  24591257.306    24591263.918
 03  6  4  3 23 30.0000000  0  8G27G13G20G 4G 2G16G 1G 3
  23394681.867   -14457131.98949 -11236148.99646  23394681.549    23394688.018
  21599866.413   -20699791.94349 -15454693.99847  21599866.584    21599870.877
  21328721.927   -19946019.80049 -14398292.16347  21328721.284    21328726.130
  24683813.473    -6542427.90949  -5067862.52945  24683813.711    24683820.501
  21338322.706    -4420011.55749  -3416442.01448  21338322.107    21338327.621
  21834594.877   -20149605.39149 -15667863.01547  21834594.595    21834599.037
  20535300.518   -29267871.83649 -22784301.43648  20535300.118    20535305.334
  24576951.546    -3228568.62249  -2494508.85945  24576951.381    24576957.964
 03  6  4  3 24  0.0000000  0  8G27G13G20G 4G 2G16G 1G 3
  23382543.606   -14520918.90049 -11285853.02346  23382543.242    23382549.683
  21588097.445   -20761637.97649 -15502885.67947  21588097.641    21588101.940
  21343109.142   -19870414.30349 -14339378.80747  21343108.523    21343113.392
  24690448.712    -6507559.41449  -5040692.27945  24690448.948    24690455.632
  21341767.063    -4401911.31449  -3402337.92148  21341766.463    21341771.997
  21844086.752   -20099725.50749 -15628995.57347  21844086.454    21844090.857
  20532624.428   -29281934.67749 -22795259.48148  20532624.030    20532629.241
  24562655.489    -3303695.01549  -2553048.83845  24562655.308    24562661.812
 03  6  4  3 24 30.0000000  0  8G27G13G20G 4G 2G16G 1G 3
  23370435.421   -14584547.49349 -11335433.67146  23370435.085    23370441.537
  21576358.099   -20823328.78349 -15550956.40547  21576358.278    21576362.571
  21357579.341   -19794373.17749 -14280126.00547  21357578.686    21357583.571
  24697157.914    -6472302.87949  -5013219.68845  24697158.003    24697164.778
  21345300.121    -4383344.86749  -3387870.54948  21345299.537    21345305.049
  21853674.384   -20049342.30349 -15589735.93547  21853674.056    21853678.436
  20529998.120   -29295735.99449 -22806013.74248  20529997.738    20530002.977
  24548369.764    -3378767.11949  -2611546.56145  24548369.517    24548376.041
 03  6  4  3 25  0.0000000  0  8G27G13G20G 4G 2G16G 1G 3
  23358357.456   -14648017.43649 -11384890.71146  23358357.156    23358363.531
  21564648.630   -20884862.35849 -15598904.60847  21564648.814    21564653.098
  21372132.057   -19717898.22249 -14220535.15047  21372131.421    21372136.313
  24703940.559    -6436659.96249  -4985445.98545  24703940.647    24703947.292
  21348921.876    -4364312.49849  -3373040.12448  21348921.279    21348926.811
  21863357.522   -19998457.04449 -15550085.08747  21863357.183    21863361.553
  20527421.886   -29309274.11049 -22816562.91248  20527421.502    20527426.708
  24534095.067    -3453781.21849  -2669999.10845  24534094.809    24534101.339
 03  6  4  3 25 30.0000000  0  8G27G13G20G 4G 2G16G 1G 3
  23346309.690   -14711328.83649 -11434224.21346  23346309.366    23346315.688
  21552969.322   -20946237.47749 -15646729.34547  21552969.510    21552973.760
  21386766.853   -19640991.93949 -14160608.19747  21386766.220    21386771.143
  24710796.330    -6400632.77549  -4957372.87345  24710796.371    24710802.948
  21352632.121    -4344815.19849  -3357847.41248  21352631.511    21352637.031
  21873135.782   -19947071.98649 -15510044.79347  21873135.444    21873139.837
  20524895.961   -29322548.01549 -22826906.20048  20524895.570    20524900.762
  24519831.878    -3528734.71649  -2728404.41945  24519831.674    24519838.115
 03  6  4  3 26  0.0000000  0  8G27G13G20G 4G 2G16G 1G 3
  23334291.933   -14774481.75749 -11483434.22746  23334291.686    23334297.972
  21541320.469   -21007452.54549 -15694429.37747  21541320.644    21541324.894
  21401483.341   -19563656.42549 -14100346.77547  21401482.712    21401487.650
  24717724.557    -6364223.70949  -4929002.17845  24717724.666    24717731.303
  21356430.619    -4324853.99849  -3342293.22448  21356430.001    21356435.486
  21883008.839   -19895188.74249 -15469616.30147  21883008.499    21883012.937
  20522420.519   -29335556.52749 -22837042.68748  20522420.134    20522425.285
  24505580.763    -3603624.54549  -2786760.04945  24505580.570    24505586.981
 03  6  4  3 26 30.0000000  0  8G27G13G20G 4G 2G16G 1G 3
  23322304.395   -14837476.45249 -11532520.94946  23322304.125    23322310.458
  21529702.244   -21068506.46549 -15742003.83247  21529702.427    21529706.696
  21416280.955   -19485894.31849 -14039752.94447  21416280.318    21416285.309
  24724725.253    -6327434.92849  -4900335.61745  24724725.349    24724732.256
  21360317.148    -4304430.00049  -3326378.41348  21360316.531    21360322.051
  21892976.342   -19842809.43949 -15428801.26147  21892976.008    21892980.390
  20519995.800   -29348298.60649 -22846971.56948  20519995.403    20520000.561
  24491342.335    -3678447.70949  -2845063.74545  24491342.137    24491348.652
 03  6  4  3 27  0.0000000  0  8G27G13G20G 4G 2G16G 1G 3
  23310346.874   -14900313.29649 -11581484.66146  23310346.603    23310352.927
  21518114.931   -21129398.09049 -15789451.81747  21518115.119    21518119.367
  21431159.296   -19407708.11849 -13978828.65347  21431158.678    21431163.695
  24731797.774    -6290268.67649  -4871374.93045  24731797.843    24731804.685
  21364291.496    -4283544.30749  -3310103.83848  21364290.889    21364296.447
  21903037.756   -19789936.13549 -15387601.28247  21903037.403    21903041.843
  20517621.914   -29360773.17249 -22856691.99548  20517621.526    20517626.719
  24477117.087    -3753201.37749  -2903313.32445  24477116.915    24477123.462
 03  6  4  3 27 30.0000000  0  8G27G13G20G 4G 2G16G 1G 3
  23298419.453   -14962991.84949 -11630325.03946  23298419.250    23298425.535
  21506558.903   -21190125.31049 -15836771.69647  21506559.089    21506563.317
  21446117.966   -19329099.77749 -13917575.42447  21446117.352    21446122.344
  24738941.747    -6252726.85949  -4842121.57045  24738941.677    24738948.911
  21368353.654    -4262197.50349  -3293469.95748  21368353.057    21368358.626
  21913192.844   -19736570.48149 -15346017.66947  21913192.503    21913196.996
  20515299.303   -29372978.55349 -22866202.67348  20515298.914    20515304.113
  24462905.719    -3827882.19449  -2961506.14945  24462905.593    24462912.126
 03  6  4  3 28  0.0000000  0  8G27G13G20G 4G 2G16G 1G 3
  23286522.012   -15025513.10849 -11679042.84146  23286521.787    23286528.102
  21495034.319   -21250687.41649 -15883962.90547  21495034.487    21495038.683
  21461156.477   -19250072.25549 -13855995.55247  21461155.851    21461160.792
  24746156.789    -6214812.21349  -4812577.72245  24746156.761    24746163.792
  21372503.239    -4240391.23049  -3276478.04348  21372502.614    21372508.170
  21923441.172   -19682715.10849 -15304052.44447  21923440.838    21923445.291
  20513028.018   -29384914.20749 -22875503.17048  20513027.617    20513032.849
  24448708.704    -3902487.72249  -3019640.28545  24448708.553    24448715.211
 03  6  4  3 28 30.0000000  0  8G27G13G20G 4G 2G16G 1G 3
  23274654.517   -15087876.76549 -11727637.84346  23274654.342    23274660.675
  21483541.335   -21311083.12849 -15931024.46447  21483541.504    21483545.698
  21476274.381   -19170627.40849 -13794090.50047  21476273.725    21476278.622
  24753442.330    -6176526.91249  -4782745.04745  24753442.468    24753449.289
  21376740.147    -4218126.21649  -3259128.66948  21376739.561    21376745.060
  21933782.477   -19628371.31549 -15261706.63347  21933782.168    21933786.521
  20510808.308   -29396578.69749 -22884592.36948  20510807.923    20510813.154
  24434526.578    -3977014.86749  -3077713.31445  24434526.350    24434533.117
 03  6  4  3 29  0.0000000  0  8G27G13G20G 4G 2G16G 1G 3
  23262817.140   -15150082.69549 -11776109.94246  23262816.907    23262823.275
  21472080.416   -21371310.45749 -15977954.81747  21472080.578    21472084.807
  21491471.206   -19090767.72949 -13731862.20447  21491470.564    21491475.427
  24760798.065    -6137872.84949  -4752625.01245  24760798.086    24760804.968
  21381064.173    -4195403.37249  -3241422.54648  21381063.548    21381069.085
  21944216.309   -19573541.30949 -15218981.96647  21944215.975    21944220.348
  20508640.483   -29407970.72949 -22893469.27048  20508640.084    20508645.291
  24420360.003    -4051460.38549  -3135722.74945  24420359.807    24420366.632
 03  6  4  3 29 30.0000000  0  8G27G13G20G 4G 2G16G 1G 3
  23251009.585   -15212131.74149 -11824459.78446  23251009.311    23251015.705
  21460651.760   -21431368.38049 -16024753.16647  21460651.920    21460656.149
  21506746.378   -19010496.16849 -13669312.95447  21506745.740    21506750.621
  24768223.332    -6098852.68349  -4722219.70645  24768223.466    24768230.248
  21385474.943    -4172224.29849  -3223360.91548  21385474.334    21385479.889
  21954742.146   -19518227.48249 -15175880.28647  21954741.799    21954746.227
  20506524.591   -29419089.72249 -22902133.41148  20506524.199    20506529.414
  24406209.426    -4125821.99849  -3193666.81345  24406209.323    24406216.068
 03  6  4  3 30  0.0000000  0  8G27G13G20G 4G 2G16G 1G 3
  23239231.993   -15274023.19749 -11872686.82046  23239231.725    23239238.121
  21449255.685   -21491255.04949 -16071418.07147  21449255.849    21449260.116
  21522099.618   -18929814.33349 -13606444.00447  21522098.971    21522103.869
  24775717.760    -6059468.03949  -4691530.38045  24775718.017    24775724.874
  21389972.517    -4148589.20349  -3204943.94548  21389971.911    21389977.497
  21965359.813   -19462431.17049 -15132402.64547  21965359.488    21965363.931
  20504461.068   -29429933.63949 -22910583.20648  20504460.687    20504465.868
  24392075.552    -4200095.95249  -3251542.56245  24392075.328    24392082.125
 03  6  4  3 30 30.0000000  0  8G27G13G20G 4G 2G16G 1G 3
  23227484.317   -15335757.30749 -11920791.27546  23227484.068    23227490.414
  21437892.484   -21550969.14149 -16117948.51147  21437892.636    21437896.877
  21537530.413   -18848724.90249 -13543257.44747  21537529.798    21537534.698
  24783281.361    -6019721.33649  -4660558.93745  24783281.701    24783288.506
  21394556.636    -4124499.43849  -3186172.69348  21394556.047    21394561.627
  21976068.946   -19406154.37049 -15088550.60447  21976068.624    21976073.048
  20502450.101   -29440501.46649 -22918817.86448  20502449.709    20502454.857
  24377958.897    -4274279.33449  -3309347.74445  24377958.760    24377965.443
 03  6  4  3 31  0.0000000  0  8G27G13G20G 4G 2G16G 1G 3
  23215766.281   -15397335.85949 -11968774.49346  23215766.050    23215772.354
  21426562.065   -21610510.55849 -16164344.38747  21426562.250    21426566.459
  21553038.045   -18767231.71949 -13479756.28147  21553037.433    21553042.348
  24790913.121    -5979616.25849  -4629308.24645  24790913.468    24790920.320
  21399226.797    -4099957.52849  -3167049.11748  21399226.214    21399231.776
  21986868.800   -19349400.66249 -15044326.95247  21986868.478    21986872.896
  20500491.573   -29450793.46849 -22926837.59748  20500491.185    20500496.340
  24363859.739    -4348370.35449  -3367080.96745  24363859.651    24363866.347
 03  6  4  3 31 30.0000000  0  8G27G13G20G 4G 2G16G 1G 3
  23204078.151   -15458757.25249 -12016635.27146  23204077.911    23204084.151
  21415265.165   -21669876.19149 -16210603.29647  21415265.340    21415269.513
  21568622.466   -18685335.30949 -13415940.91847  21568621.844    21568626.764
  24798613.090    -5939153.54649  -4597778.88445  24798613.277    24798620.065
  21403983.144    -4074962.98849  -3147572.84448  21403982.541    21403988.078
  21997759.422   -19292170.42449 -14999731.96647  21997759.108    21997763.465
  20498586.119   -29460806.69249 -22934640.09748  20498585.724    20498590.877
  24349779.132    -4422364.46149  -3424738.64945  24349779.020    24349785.661
 03  6  4  3 32  0.0000000  0  8G27G13G20G 4G 2G16G 1G 3
  23192419.842   -15520022.25749 -12064374.16946  23192419.532    23192425.824
  21404001.859   -21729065.12949 -16256724.51547  21404002.018    21404006.170
  21584282.939   -18603039.03449 -13351813.96847  21584282.292    21584287.234
  24806380.483    -5898335.99149  -4565973.01245  24806380.590    24806387.498
  21408825.254    -4049517.46649  -3127745.15348  21408824.649    21408830.204
  22008740.165   -19234466.37449 -14954767.77447  22008739.826    22008744.196
  20496733.816   -29470540.65449 -22942224.99348  20496733.427    20496738.556
  24335717.326    -4496259.39449  -3482319.06245  24335717.203    24335723.875
 03  6  4  3 32 30.0000000  0  8G27G13G20G 4G 2G16G 1G 3
  23180791.190   -15581130.53349 -12111990.94346  23180790.932    23180797.214
  21392772.507   -21788075.59549 -16302706.67047  21392772.702    21392776.814
  21600019.147   -18520344.79049 -13287376.90747  21600018.528    21600023.460
  24814214.962    -5857165.58949  -4533892.20245  24814214.937    24814221.964
  21413753.065    -4023621.57549  -3107566.53248  21413752.448    21413758.048
  22019810.690   -19176290.02049 -14909435.55847  22019810.363    22019814.831
  20494934.940   -29479993.64349 -22949590.94948  20494934.542    20494939.658
  24321675.166    -4570051.62549  -3539819.46545  24321675.124    24321681.685
 03  6  4  3 33  0.0000000  0  8G27G13G20G 4G 2G16G 1G 3
  23169192.403   -15642082.30849 -12159485.77546  23169192.132    23169198.433
  21381577.480   -21846905.93549 -16348548.46247  21381577.662    21381581.775
  21615830.615   -18437255.14849 -13222631.76247  21615830.002    21615834.918
  24822115.953    -5815644.88049  -4501538.41345  24822115.957    24822123.145
  21418766.268    -3997276.85049  -3087038.16847  21418765.657    21418771.256
  22030970.674   -19117643.76649 -14863737.19747  22030970.366    22030974.874
  20493189.743   -29489164.66049 -22956737.18748  20493189.350    20493194.451
  24307653.164    -4643738.22049  -3597237.55045  24307653.071    24307659.504
 03  6  4  3 33 30.0000000  0  8G27G13G20G 4G 2G16G 1G 3
  23157623.379   -15702877.85349 -12206858.86246  23157623.071    23157629.375
  21370416.894   -21905555.00449 -16394249.01047  21370417.068    21370421.195
  21631716.772   -18353772.97749 -13157580.74047  21631716.135    21631721.072
  24830083.234    -5773776.13249  -4468913.43745  24830083.361    24830090.409
  21423864.699    -3970484.42249  -3066160.94647  21423864.117    21423869.685
  22042219.776   -19058529.58449 -14817674.21047  22042219.479    22042223.935
  20491498.405   -29498052.65549 -22963662.88448  20491498.011    20491503.105
  24293651.631    -4717316.36849  -3654571.07045  24293651.545    24293658.018
 03  6  4  3 34  0.0000000  0  8G27G13G20G 4G 2G16G 1G 3
  23146083.977   -15763517.45149 -12254110.45246  23146083.680    23146089.992
  21359291.119   -21964021.26049 -16439807.10247  21359291.300    21359295.397
  21647677.209   -18269900.38249 -13092225.49047  21647676.585    21647681.488
  24838116.453    -5731561.65649  -4436019.05745  24838116.549    24838123.591
  21429048.094    -3943245.50149  -3044935.81247  21429047.499    21429053.064
  22053557.501   -18998949.64349 -14771248.30247  22053557.180    22053561.641
  20489861.142   -29506656.36049 -22970367.06148  20489860.755    20489865.869
  24279671.420    -4790782.95849  -3711817.71645  24279671.233    24279677.675
 03  6  4  3 34 30.0000000  0  8G27G13G20G 4G 2G16G 1G 3
  23134574.111   -15824001.65049 -12301240.93846  23134573.848    23134580.163
  21348200.305   -22022303.84549 -16485222.07147  21348200.448    21348204.553
  21663711.307   -18185640.57849 -13026568.51147  21663710.675    21663715.633
  24846214.907    -5689004.21049  -4402857.42645  24846215.083    24846221.986
  21434316.165    -3915561.66849  -3023363.98547  21434315.582    21434321.099
  22064983.334   -18938906.57649 -14724461.50347  22064983.010    22064987.438
  20488278.145   -29514975.14349 -22976849.21248  20488277.750    20488282.851
  24265712.954    -4864135.39249  -3768975.41545  24265712.647    24265719.090
 03  6  4  3 35  0.0000000  0  7G27G13G20G 2G16G 1G 3
  23123094.727   -15884326.12449 -12348246.97346  23123094.475    23123100.695
  21337145.669   -22080396.22549 -16530488.83347  21337145.831    21337149.912
  21679819.445   -18100991.58449 -12960608.28147  21679818.824    21679823.805
  21439669.578    -3887429.53049  -3001442.84147  21439668.966    21439674.449
  22076497.666   -18878398.10749 -14677312.06447  22076497.379    22076501.763
  20486750.449   -29523003.16749 -22983104.81048  20486750.068    20486755.164
  24251777.553    -4937365.92349  -3826038.07245  24251777.304    24251783.603
 03  6  4  3 35 30.0000000  0  7G27G13G20G 2G16G 1G 3
  23111645.226   -15944493.24649 -12395130.39946  23111645.011    23111651.164
  21326127.063   -22138299.40649 -16575608.16147  21326127.220    21326131.308
  21696000.819   -18015957.82549 -12894348.23347  21696000.202    21696005.248
  21445107.582    -3858852.72249  -2979175.19447  21445106.971    21445112.423
  22088099.831   -18817428.51149 -14629803.29847  22088099.527    22088103.925
  20485277.865   -29530741.60449 -22989134.75048  20485277.497    20485282.564
  24237865.499    -5010473.88549  -3883005.22745  24237865.285    24237871.552
 03  6  4  3 36  0.0000000  0  7G27G13G20G 2G16G 1G 3
  23100224.756   -16004508.07549 -12441895.14046  23100224.497    23100230.668
  21315143.766   -22196016.85249 -16620582.77047  21315143.903    21315147.996
  21712253.978   -17930546.96649 -12827794.34647  21712253.370    21712258.434
  21450628.977    -3829837.32249  -2956565.78847  21450628.379    21450633.859
  22099788.436   -18756004.77949 -14581940.66547  22099788.115    22099792.508
  20483859.691   -29538194.17949 -22994941.94648  20483859.319    20483864.369
  24223976.578    -5083461.03649  -3939878.28945  24223976.291    24223982.615
 03  6  4  3 36 30.0000000  0  7G27G13G20G 2G16G 1G 3
  23088833.461   -16064369.46649 -12488540.33246  23088833.203    23088839.360
  21304196.345   -22253545.70949 -16665410.42547  21304196.492    21304200.649
  21728578.617   -17844760.38249 -12760947.68047  21728577.998    21728583.074
  21456233.901    -3800383.21149  -2933614.53147  21456233.329    21456238.819
  22111563.242   -18694127.71649 -14533724.78847  22111562.933    22111567.302
  20482496.392   -29545358.27149 -23000524.34548  20482496.003    20482501.090
  24210111.262    -5156323.35349  -3996654.01145  24210110.949    24210117.240
 03  6  4  3 37  0.0000000  0  7G27G13G20G 2G16G 1G 3
  23077471.484   -16124076.79149 -12535065.47146  23077471.259    23077477.387
  21293285.303   -22310883.54249 -16710089.23647  21293285.445    21293289.577
  21744974.467   -17758599.60649 -12693809.43847  21744973.878    21744978.966
  21461922.249    -3770490.71649  -2910321.66947  21461921.651    21461927.135
  22123424.057   -18631798.81649 -14485156.82246  22123423.733    22123428.041
  20481188.388   -29552231.88049 -23005880.39348  20481188.009    20481193.089
  24196270.371    -5229056.69749  -4053329.22245  24196270.231    24196276.302
 03  6  4  3 37 30.0000000  0  7G27G13G20G 2G16G 1G 3
  23066138.891   -16183629.79149 -12581470.35446  23066138.655    23066144.744
  21282411.026   -22368028.31049 -16754617.61147  21282411.183    21282415.282
  21761441.140   -17672066.84349 -12626381.33647  21761440.528    21761445.604
  21467693.801    -3740160.97649  -2886688.10347  21467693.205    21467698.685
  22135370.468   -18569019.88849 -14436238.19546  22135370.122    22135374.425
  20479935.946   -29558813.36949 -23011008.81748  20479935.546    20479940.666
  24182454.886    -5301657.50049  -4109901.25545  24182454.785    24182460.665
 03  6  4  3 38  0.0000000  0  7G27G13G20G 2G16G 1G 3
  23054835.643   -16243028.76849 -12627755.21446  23054835.370    23054841.488
  21271573.723   -22424978.58949 -16798994.42247  21271573.886    21271578.019
  21777978.135   -17585164.82149 -12558665.48947  21777977.480    21777982.563
  21473548.332    -3709395.16349  -2862714.73547  21473547.732    21473553.174
  22147402.113   -18505793.19849 -14386970.66047  22147401.792    22147406.136
  20478739.294   -29565101.66049 -23015908.77648  20478738.914    20478744.034
  24168664.989    -5374123.12249  -4166367.86545  24168664.832    24168670.838
 03  6  4  3 38 30.0000000  0  7G27G13G20G 2G16G 1G 3
  23043561.647   -16302273.62149 -12673919.99146  23043561.424    23043567.491
  21260773.773   -22481732.69749 -16843218.37447  21260773.922    21260778.050
  21794584.837   -17497895.83149 -12490663.69547  21794584.194    21794589.301
  21479485.657    -3678194.30949  -2838402.37647  21479485.062    21479490.496
  22159518.673   -18442120.57949 -14337355.64847  22159518.335    22159522.705
  20477598.719   -29571095.33749 -23020579.16448  20477598.324    20477603.442
  24154901.460    -5446450.09849  -4222726.43245  24154901.370    24154907.545
 03  6  4  3 39  0.0000000  0  7G27G13G20G 2G16G 1G 3
  23032316.959   -16361364.72649 -12719964.96946  23032316.739    23032322.778
  21250011.353   -22538289.28649 -16887288.42947  21250011.533    21250015.646
  21811260.892   -17410262.44349 -12422377.96247  21811260.259    21811265.391
  21485505.448    -3646559.90049  -2813752.18847  21485504.855    21485510.306
  22171719.588   -18378004.48449 -14287395.07047  22171719.268    22171723.648
  20476514.432   -29576793.29049 -23025019.12348  20476514.034    20476519.176
  24141164.947    -5518635.37649  -4278974.74445  24141164.810    24141170.873
 03  6  4  3 39 30.0000000  0  7G27G13G20G 2G16G 1G 3
  23021101.593   -16420302.11249 -12765890.15746  23021101.313    23021107.364
  21239286.960   -22594646.30249 -16931202.96047  21239287.147    21239291.230
  21828005.772   -17322267.32749 -12353810.36147  21828005.156    21828010.314
  21491607.514    -3614493.32649  -2788765.24447  21491606.930    21491612.378
  22184004.454   -18313446.99949 -14237090.55647  22184004.114    22184008.546
  20475486.620   -29582194.43849 -23029227.80348  20475486.226    20475491.343
  24127455.900    -5590676.26549  -4335110.42545  24127455.820    24127461.912
 03  6  4  3 40  0.0000000  0  7G27G13G20G 2G16G 1G 3
  23009915.344   -16479085.99349 -12811695.73246  23009915.087    23009921.093
  21228600.899   -22650801.95449 -16974960.58747  21228601.065    21228605.124
  21844819.094   -17233912.81849 -12284962.71547  21844818.467    21844823.598
  21497791.613    -3581995.70549  -2763442.41647  21497791.029    21497796.497
  22196372.953   -18248450.16249 -14186443.68246  22196372.621    22196377.021
  20474515.589   -29587297.34749 -23033204.08748  20474515.178    20474520.295
  24113775.075    -5662569.20049  -4391130.79345  24113775.041    24113781.322
 03  6  4  3 40 30.0000000  0  7G27G13G20G 2G16G 1G 3
  22998758.196   -16537716.83049 -12857382.06646  22998757.942    22998763.972
  21217953.309   -22706755.34949 -17018560.61247  21217953.476    21217957.476
  21861700.220   -17145202.09549 -12215837.49147  21861699.580    21861704.704
  21504057.398    -3549068.83849  -2737785.11447  21504056.811    21504062.283
  22208824.521   -18183016.89649 -14135456.72347  22208824.211    22208828.584
  20473601.394   -29592101.27049 -23036947.39948  20473601.011    20473606.119
  24100122.995    -5734311.68949  -4447034.02845  24100122.862    24100128.925
 03  6  4  3 41  0.0000000  0  7G27G13G20G 2G16G 1G 3
  22987630.198   -16596194.18349 -12902948.79546  22987630.025    22987636.007
  21207344.576   -22762504.39349 -17062001.40347  21207344.731    21207348.745
  21878648.752   -17056137.13749 -12146436.24547  21878648.107    21878653.239
  21510404.802    -3515713.21149  -2711793.71047  21510404.197    21510409.682
  22221358.849   -18117148.71049 -14084130.88547  22221358.544    22221362.877
  20472744.478   -29596604.32049 -23040456.25648  20472744.094    20472749.204
  24086499.876    -5805900.01249  -4502817.09345  24086499.743    24086506.064
 03  6  4  3 41 30.0000000  0  7G27G13G20G 2G16G 1G 3
  22976531.345   -16654518.68049 -12948396.41246  22976531.189    22976537.184
  21196774.998   -22818047.69049 -17105281.87647  21196775.168    21196779.183
  21895664.148   -16966720.88949 -12076761.26247  21895663.508    21895668.638
  21516833.384    -3481930.82349  -2685469.77247  21516832.767    21516838.262
  22233975.427   -18050848.21049 -14032468.16746  22233975.059    22233979.392
  20471944.914   -29600805.83449 -23043730.15648  20471944.538    20471949.680
  24072907.089    -5877331.19249  -4558477.70345  24072906.903    24072913.351
 03  6  4  3 42  0.0000000  0  7G27G13G20G 2G16G 1G 3
  22965461.532   -16712691.10449 -12993725.53546  22965461.332    22965467.335
  21186244.845   -22873384.03049 -17148401.08547  21186244.988    21186249.027
  21912745.754   -16876956.64449 -12006815.11847  21912745.092    21912750.233
  21523342.792    -3447723.44449  -2658814.66947  21523342.200    21523347.710
  22246673.776   -17984117.95049 -13980470.57046  22246673.428    22246677.717
  20471202.870   -29604705.14349 -23046768.57248  20471202.521    20471207.618
  24059344.411    -5948603.04749  -4614014.17645  24059344.253    24059350.671
 03  6  4  3 42 30.0000000  0  7G27G13G20G 2G16G 1G 3
  22954420.675   -16770711.25249 -13038935.99446  22954420.495    22954426.459
  21175754.269   -22928512.02249 -17191357.93747  21175754.430    21175758.496
  21929893.055   -16786846.76049 -11936599.63847  21929892.441    21929897.595
  21529932.873    -3413092.27649  -2631829.33547  21529932.288    21529937.763
  22259453.465   -17916960.26749 -13928139.90546  22259453.111    22259457.369
  20470518.674   -29608300.77249 -23049570.34348  20470518.305    20470523.409
  24045812.832    -6019712.27249  -4669423.97145  24045812.730    24045819.059
 03  6  4  3 43  0.0000000  0  7G27G13G20G 2G16G 1G 3
  22943408.804   -16828578.96749 -13084027.68246  22943408.559    22943414.571
  21165303.855   -22983429.24949 -17234150.55847  21165304.015    21165308.078
  21947105.831   -16696393.20549 -11866116.36947  21947105.215    21947110.368
  21536603.476    -3378038.14349  -2604514.42847  21536602.890    21536608.300
  22272314.171   -17849376.91349 -13875477.56946  22272313.808    22272318.051
  20469892.556   -29611591.04749 -23052134.18548  20469892.188    20469897.298
  24032312.901    -6090655.26549  -4724704.16645  24032312.767    24032319.103
 03  6  4  3 43 30.0000000  0  7G27G13G20G 2G16G 1G 3
  22932425.534   -16886296.11249 -13129002.05246  22932425.302    22932431.318
  21154893.545   -23038135.74449 -17276778.97147  21154893.692    21154897.743
  21964383.116   -16605600.56949 -11795368.88447  21964382.504    21964387.593
  21543353.929    -3342564.17149  -2576872.37447  21543353.337    21543358.739
  22285255.108   -17781371.97749 -13822486.71346  22285254.759    22285258.992
  20469324.476   -29614576.47549 -23054460.48148  20469324.102    20469329.183
  24018844.810    -6161430.33049  -4779853.52745  24018844.681    24018850.922
 03  6  4  3 44  0.0000000  0  7G27G13G20G 2G16G 1G 3
  22921471.229   -16943861.25649 -13173857.97246  22921470.986    22921476.988
  21144523.981   -23092628.21249 -17319240.60847  21144524.121    21144528.163
  21981724.741   -16514469.86249 -11724357.96347  21981724.109    21981729.203
  21550184.385    -3306670.20149  -2548903.04447  21550183.778    21550189.174
  22298276.144   -17712946.05549 -13769167.81746  22298275.805    22298280.052
  20468814.871   -29617254.41049 -23056547.17348  20468814.485    20468819.574
  24005409.643    -6232033.08249  -4834868.67245  24005409.402    24005415.613
 03  6  4  3 44 30.0000000  0  7G27G13G20G 2G16G 1G 3
  22910545.880   -17001274.49849 -13218595.52546  22910545.629    22910551.507
  21134195.394   -23146905.09449 -17361534.25547  21134195.531    21134199.563
  21999130.219   -16423003.60649 -11653085.58347  21999129.599    21999134.647
  21557094.483    -3270357.43849  -2520607.37847  21557093.875    21557099.262
  22311376.790   -17644101.33649 -13715522.59246  22311376.456    22311380.750
  20468364.057   -29619623.33549 -23058393.07748  20468363.677    20468368.759
  23992007.635    -6302460.49749  -4889747.05045  23992007.398    23992013.732
 03  6  4  3 45  0.0000000  0  7G27G13G20G 2G16G 1G 3
  22899649.244   -17058536.33949 -13263215.11046  22899649.023    22899654.923
  21123908.123   -23200964.98849 -17403658.83147  21123908.293    21123912.319
  22016598.966   -16331204.87249 -11581554.12347  22016598.346    22016603.376
  21564083.876    -3233627.87049  -2491986.93547  21564083.246    21564088.670
  22324556.706   -17574840.39949 -13661553.04446  22324556.341    22324560.743
  20467972.215   -29621682.50549 -23059997.61848  20467971.838    20467976.900
  23978639.831    -6372709.56649  -4944486.62145  23978639.603    23978645.600
 03  6  4  3 45 30.0000000  0  7G27G13G20G 2G16G 1G 3
  22888781.352   -17115647.22449 -13307717.05746  22888781.117    22888787.050
  21113662.456   -23254806.40149 -17445613.15347  21113662.596    21113666.645
  22034130.489   -16239076.43949 -11509765.75247  22034129.859    22034134.874
  21571152.290    -3196483.03249  -2463042.90147  21571151.673    21571157.108
  22337815.342   -17505165.72049 -13607261.09446  22337815.022    22337819.438
  20467639.503   -29623430.91049 -23061360.00148  20467639.108    20467644.192
  23965306.148    -6442777.50849  -4999084.90445  23965305.794    23965312.014
 03  6  4  3 46  0.0000000  0  7G27G13G20G 2G16G 1G 3
  22877942.195   -17172607.31649 -13352101.50546  22877941.951    22877947.866
  21103458.604   -23308427.75249 -17487395.99547  21103458.750    21103462.802
  22051724.198   -16146621.07049 -11437722.62847  22051723.559    22051728.560
  21578299.432    -3158924.42449  -2433776.44847  21578298.825    21578304.277
  22351152.328   -17435079.77149 -13552648.67346  22351151.979    22351156.385
  20467366.076   -29624867.47249 -23062479.39048  20467365.698    20467370.785
  23952007.853    -6512661.15349  -5053539.68145  23952007.710    23952013.753
 03  6  4  3 46 30.0000000  0  7G27G13G20G 2G16G 1G 3
  22867131.576   -17229417.46249 -13396369.12746  22867131.335    22867137.194
  21093296.864   -23361827.81949 -17529006.41147  21093297.054    21093301.071
  22069379.499   -16053841.82149 -11365427.13447  22069378.837    22069383.864
  21585524.979    -3120953.81049  -2404188.95047  21585524.373    21585529.877
  22364567.015   -17364585.29849 -13497717.91846  22364566.662    22364571.057
  20467152.207   -29625991.49549 -23063355.23948  20467151.826    20467156.886
  23938744.906    -6582358.08749  -5107848.94945  23938744.562    23938750.684
 03  6  4  3 47  0.0000000  0  7G27G13G20G 2G16G 1G 3
  22856349.540   -17286077.37549 -13440519.67246  22856349.259    22856355.146
  21083177.769   -23415004.35149 -17570442.63947  21083177.900    21083181.865
  22087095.997   -15960741.09749 -11292881.14147  22087095.342    22087100.368
  21592828.688    -3082572.42149  -2374281.36947  21592828.096    21592833.584
  22378059.017   -17293684.40049 -13442470.48246  22378058.652    22378063.110
  20466998.089   -29626801.43849 -23063986.35148  20466997.702    20467002.753
  23925518.255    -6651864.69949  -5162009.93845  23925518.028    23925524.053
 03  6  4  3 47 30.0000000  0  7G27G13G20G 2G16G 1G 3
  22845596.066   -17342587.23749 -13484553.30346  22845595.813    22845601.681
  21073101.431   -23467955.76649 -17611703.45847  21073101.575    21073105.532
  22104873.191   -15867321.34349 -11220086.55647  22104872.545    22104877.535
  21600210.304    -3043781.70349  -2344054.83047  21600209.676    21600215.174
  22391627.869   -17222379.37149 -13386908.14246  22391627.529    22391632.027
  20466903.950   -29627295.94749 -23064371.66748  20466903.568    20466908.650
  23912328.207    -6721177.99449  -5216020.20645  23912327.979    23912334.177
 03  6  4  3 48  0.0000000  0  8G27G13G20G 2G16G 1G 8G 3
  22834870.720   -17398949.40549 -13528471.85346  22834870.429    22834876.297
  21063067.753   -23520682.84249 -17652789.46147  21063067.902    21063071.906
  22122710.081   -15773587.83549 -11147047.49447  22122709.447    22122714.425
  21607669.110    -3004585.34949  -2313512.21247  21607668.482    21607673.951
  22405272.872   -17150674.71049 -13331034.40146  22405272.522    22405276.947
  20466869.642   -29627476.10449 -23064512.04148  20466869.291    20466874.386
  24740923.021    -8557009.81349  -6630206.32645  24740922.446    24740929.872
  23899175.295    -6790297.04549  -5269879.22645  23899175.096    23899181.150
 03  6  4  3 48 30.0000000  0  8G27G13G20G 2G16G 1G 8G 3
  22824172.667   -17455167.87049 -13572278.41146  22824172.355    22824178.247
  21053076.421   -23573187.30349 -17693702.00247  21053076.588    21053080.609
  22140605.472   -15679546.77949 -11073768.77147  22140604.858    22140609.850
  21615204.103    -2964988.59449  -2282657.59247  21615203.486    21615208.958
  22418992.701   -17078576.62849 -13274854.08546  22418992.325    22418996.762
  20466894.711   -29627344.37949 -23064409.38948  20466894.344    20466899.452
  24724794.353    -8641766.65949  -6696250.57545  24724793.691    24724801.315
  23886059.090    -6859222.60149  -5323587.38845  23886058.786    23886065.067
 03  6  4  3 49  0.0000000  0  8G27G13G20G 2G16G 1G 8G 3
  22813503.692   -17511233.23949 -13615965.68246  22813503.410    22813509.317
  21043129.573   -23625458.12949 -17734432.48947  21043129.745    21043133.769
  22158560.697   -15585191.52649 -11000245.21746  22158560.078    22158565.080
  21622816.812    -2924983.56149  -2251484.83247  21622816.196    21622821.685
  22432788.744   -17006077.97649 -13218361.63946  22432788.384    22432792.760
  20466981.100   -29626890.28349 -23064055.53448  20466980.724    20466985.863
  24708686.049    -8726416.40049  -6762211.33245  24708685.413    24708692.951
  23872982.126    -6927942.00149  -5377134.95245  23872981.898    23872988.170
 03  6  4  3 49 30.0000000  0  8G27G13G20G 2G16G 1G 8G 3
  22802863.477   -17567147.80649 -13659535.44546  22802863.176    22802869.100
  21033227.185   -23677495.59549 -17774981.13847  21033227.320    21033231.336
  22176574.830   -15490526.56249 -10926480.34046  22176574.207    22176579.236
  21630506.571    -2884573.53049  -2219996.49247  21630505.962    21630511.446
  22446660.228   -16933182.90049 -13161560.29446  22446659.880    22446664.217
  20467128.722   -29626114.56449 -23063451.07148  20467128.332    20467133.480
  24692597.696    -8810960.88549  -6828090.10045  24692597.091    24692604.462
  23859944.788    -6996453.98549  -5430520.83445  23859944.584    23859950.547
 03  6  4  3 50  0.0000000  0  8G27G13G20G 2G16G 1G 8G 3
  22792251.744   -17622912.81849 -13702988.67846  22792251.443    22792257.344
  21023369.374   -23729298.58849 -17815347.08347  21023369.524    21023373.539
  22194647.182   -15395555.74849 -10852477.13646  22194646.566    22194651.592
  21638272.906    -2843761.20849  -2188194.68047  21638272.286    21638277.789
  22460606.538   -16859894.82349 -13104452.72246  22460606.166    22460610.488
  20467337.518   -29625017.15749 -23062595.94348  20467337.147    20467342.273
  24676529.272    -8895400.58449  -6893887.19745  24676528.635    24676536.095
  23846947.169    -7064756.60749  -5483743.63145  23846946.912    23846953.047
 03  6  4  3 50 30.0000000  0  8G27G13G20G 2G16G 1G 8G 3
  22781668.281   -17678529.00149 -13746325.94446  22781668.000    22781673.896
  21013556.322   -23780866.30949 -17855529.69947  21013556.488    21013560.462
  22212777.074   -15300282.65149 -10778238.38146  22212776.485    22212781.483
  21646115.341    -2802548.66749  -2156081.00647  21646114.747    21646120.270
  22474626.984   -16786216.88649 -13047041.34746  22474626.630    22474630.940
  20467607.639   -29623597.55749 -23061489.75048  20467607.250    20467612.387
  24660480.655    -8979735.89149  -6959603.06145  24660480.155    24660487.398
  23833989.980    -7132847.33549  -5536801.35145  23833989.821    23833995.666
 03  6  4  3 51  0.0000000  0  9G27G13G20G 2G31G16G 1G 8G 3
  22771113.033   -17733997.60949 -13789548.21046  22771112.707    22771118.573
  21003788.149   -23832198.28349 -17895528.62147  21003788.300    21003792.285
  22230963.832   -15204710.72149 -10703766.77646  22230963.205    22230968.240
  21654033.506    -2760938.64449  -2123657.60447  21654032.895    21654038.415
  24563242.129    -4653809.81749  -3600689.96945  24563241.772    24563247.772
  22488720.994   -16712152.41649 -12989328.78046  22488720.643    22488725.003
  20467939.111   -29621855.73549 -23060132.47848  20467938.741    20467943.840
  24644451.898    -9063967.22049  -7025237.76745  24644451.212    24644458.665
  23821073.473    -7200724.31249  -5589692.45245  23821073.264    23821079.240
 03  6  4  3 51 30.0000000  0  9G27G13G20G 2G31G16G 1G 8G 3
  22760585.882   -17789318.13049 -13832655.08146  22760585.525    22760591.373
  20994065.357   -23883291.64249 -17935341.60847  20994065.521    20994069.477
  22249207.074   -15108841.90749 -10629063.83346  22249206.475    22249211.512
  21662027.117    -2718931.88249  -2090925.05447  21662026.531    21662032.023
  24546050.877    -4744149.46649  -3671084.40045  24546050.533    24546056.662
  22502888.144   -16637703.07049 -12931316.32646  22502887.805    22502892.285
  20468332.325   -29619789.52749 -23058522.43248  20468331.919    20468337.036
  24628443.126    -9148093.53349  -7090790.66845  24628442.374    24628449.925
  23808198.290    -7268383.52349  -5642413.89845  23808198.087    23808204.071
 03  6  4  3 52  0.0000000  0  9G27G13G20G 2G31G16G 1G 8G 3
  22750086.951   -17844490.21349 -13875646.28746  22750086.633    22750092.437
  20984388.425   -23934144.43049 -17974967.13947  20984388.580    20984392.511
  22267506.324   -15012678.72149 -10554131.51646  22267505.706    22267510.825
  21670096.075    -2676529.42449  -2057884.17847  21670095.475    21670100.929
  24528851.270    -4834533.68449  -3741513.61345  24528850.921    24528856.929
  22517128.227   -16562870.79749 -12873005.48846  22517127.907    22517132.382
  20468787.466   -29617397.38249 -23056658.42148  20468787.064    20468792.204
  24612454.480    -9232114.12849  -7156261.20445  24612454.013    24612461.344
  23795365.278    -7335821.47649  -5694962.94345  23795365.072    23795371.045
 03  6  4  3 52 30.0000000  0  9G27G13G20G 2G31G16G 1G 8G 3
  22739615.978   -17899515.19549 -13918522.87046  22739615.682    22739621.517
  20974757.357   -23984755.85049 -18014404.59047  20974757.508    20974761.418
  22285860.876   -14916224.90249 -10478972.72046  22285860.250    22285865.384
  21678239.752    -2633733.98449  -2024537.07847  21678239.147    21678244.594
  24511643.561    -4924960.70849  -3811976.21045  24511643.212    24511649.177
  22531440.535   -16487659.13249 -12814399.00346  22531440.198    22531444.645
  20469304.693   -29614679.18049 -23054540.33348  20469304.325    20469309.448
  24596485.825    -9316029.53749  -7221649.77945  24596485.357    24596492.682
  23782574.695    -7403036.13449  -5747337.97145  23782574.566    23782580.486
 03  6  4  3 53  0.0000000  0  9G27G13G20G 2G31G16G 1G 8G 3
  22729173.019   -17954393.07849 -13961284.83846  22729172.731    22729178.566
  20965172.628   -24035123.98949 -18053652.47247  20965172.793    20965176.674
  22304270.345   -14819482.60949 -10403589.14346  22304269.705    22304274.914
  21686457.919    -2590546.88349  -1990884.79247  21686457.318    21686462.768
  24494428.228    -5015427.24149  -3882469.52745  24494427.921    24494433.961
  22545824.732   -16412069.98449 -12755498.38346  22545824.360    22545828.760
  20469884.322   -29611633.46749 -23052167.04848  20469883.954    20469889.050
  24580537.378    -9399839.28249  -7286956.01245  24580536.839    24580544.186
  23769827.282    -7470024.20249  -5799536.44445  23769827.241    23769832.970
 03  6  4  3 53 30.0000000  0  9G27G13G20G 2G31G16G 1G 8G 3
  22718757.992   -18009124.07249 -14003932.33946  22718757.751    22718763.571
  20955634.502   -24085247.18149 -18092709.48147  20955634.656    20955638.528
  22322734.118   -14722455.05849 -10327983.28346  22322733.463    22322738.683
  21694750.382    -2546969.70649  -1956928.54147  21694749.797    21694755.200
  24477206.104    -5105930.29749  -3952991.38245  24477205.703    24477211.693
  22560280.207   -16336105.96949 -12696305.66146  22560279.834    22560284.268
  20470526.424   -29608259.18449 -23049537.72448  20470526.040    20470531.155
  24564609.065    -9483543.12549  -7352179.72645  24564608.545    24564615.871
  23757123.532    -7536782.88849  -5851556.16545  23757123.496    23757129.258
 03  6  4  3 54  0.0000000  0  9G27G13G20G 2G31G16G 1G 8G 3
  22708370.851   -18063708.44849 -14046465.59446  22708370.622    22708376.486
  20946143.315   -24135123.48449 -18131574.10347  20946143.467    20946147.365
  22341251.655   -14625145.01949 -10252157.30446  22341250.964    22341256.237
  21703116.784    -2503004.11649  -1922669.63647  21703116.185    21703121.568
  24459977.507    -5196467.02349  -4023539.46145  24459977.070    24459982.992
  22574806.436   -16259769.54249 -12636822.76146  22574806.117    22574810.627
  20471231.202   -29604555.46649 -23046651.70148  20471230.812    20471235.945
  24548700.976    -9567140.65449  -7417320.59445  24548700.568    24548707.768
  23744464.011    -7603308.87049  -5903394.57045  23744464.040    23744469.802
 03  6  4  3 54 30.0000000  0  9G27G13G20G 2G31G16G 1G 8G 3
  22698011.555   -18118146.64549 -14088884.95046  22698011.324    22698017.236
  20936699.411   -24184751.42749 -18170245.20747  20936699.574    20936703.459
  22359822.339   -14527555.47549 -10176113.52846  22359821.657    22359826.937
  21711556.720    -2458652.03149  -1888109.57147  21711556.093    21711561.480
  24442743.139    -5287034.39649  -4094111.41845  24442742.662    24442748.676
  22589403.180   -16183063.43549 -12577051.78546  22589402.861    22589407.412
  20471998.862   -29600521.23749 -23043508.14448  20471998.490    20472003.652
  24532813.004    -9650631.77449  -7482378.51445  24532812.607    24532819.932
  23731849.378    -7669599.22449  -5955049.38645  23731849.432    23731855.092
 03  6  4  3 55  0.0000000  0  9G27G13G20G 2G31G16G 1G 8G 3
  22687680.065   -18172439.18149 -14131190.80346  22687679.846    22687685.695
  20927303.023   -24234129.68149 -18208721.74347  20927303.219    20927307.041
  22378445.664   -14429689.32049 -10099854.19946  22378445.035    22378450.271
  21720069.829    -2413915.26149  -1853249.74547  21720069.199    21720074.598
  24425503.358    -5377629.92449  -4164705.31945  24425502.936    24425508.900
  22604069.688   -16105990.51549 -12516994.97946  22604069.348    22604073.986
  20472829.576   -29596155.82549 -23040106.51648  20472829.205    20472834.366
  24516945.378    -9734016.33049  -7547353.43445  24516945.062    24516952.254
  23719279.939    -7735651.54349  -6006518.69345  23719280.014    23719285.813
 03  6  4  3 55 30.0000000  0  9G27G13G20G 2G31G16G 1G 8G 3
  22677376.114   -18226586.83149 -14173383.75246  22677375.879    22677381.687
  20917954.460   -24283257.03949 -18247002.78147  20917954.621    20917958.392
  22397121.003   -14331550.11549 -10023382.12146  22397120.316    22397125.537
  21728655.738    -2368795.93349  -1818091.82647  21728655.135    21728660.504
  24408258.656    -5468251.18349  -4235319.24045  24408258.215    24408264.091
  22618805.408   -16028553.62649 -12456654.56846  22618805.067    22618809.759
  20473723.401   -29591458.58549 -23036446.32748  20473723.036    20473728.173
  24501098.024    -9817294.67349  -7612245.56745  24501097.613    24501104.777
  23706756.343    -7801463.10949  -6057800.40145  23706756.433    23706762.143
 03  6  4  3 56  0.0000000  0  9G27G13G20G 2G31G16G 1G 8G 3
  22667099.884   -18280588.81749 -14215463.18846  22667099.653    22667105.440
  20908654.100   -24332130.67349 -18285086.10647  20908654.250    20908658.005
  22415847.989   -14233139.43749  -9946698.50546  22415847.302    22415852.494
  21737314.349    -2323294.62149  -1782636.25347  21737313.731    21737319.110
  24391009.845    -5558893.90249  -4305949.90045  24391009.485    24391015.259
  22633610.136   -15950754.10149 -12396031.58446  22633609.818    22633614.486
  20474680.838   -29586427.33349 -23032525.86348  20474680.474    20474685.583
  24485271.082    -9900465.58949  -7677054.00745  24485270.679    24485277.873
  23694279.390    -7867029.93249  -6108891.43645  23694279.422    23694285.061
 03  6  4  3 56 30.0000000  0  9G27G13G20G 2G31G16G 1G 8G 3
  22656851.301   -18334445.45149 -14257429.36946  22656851.038    22656856.844
  20899402.280   -24380748.86949 -18322970.39347  20899402.455    20899406.231
  22434626.073   -14134460.08649  -9869805.52946  22434625.402    22434630.588
  21746045.307    -2277413.00249  -1746884.34247  21746044.687    21746050.089
  24373757.567    -5649555.08349  -4376594.94545  24373757.059    24373762.871
  22648483.485   -15872594.35549 -12335127.89646  22648483.161    22648487.826
  20475702.014   -29581060.97349 -23028344.27748  20475701.647    20475706.714
  24469464.653    -9983528.61849  -7741778.36645  24469464.183    24469471.396
  23681849.515    -7932349.07849  -6159789.40645  23681849.447    23681855.261
 03  6  4  3 57  0.0000000  0  9G27G13G20G 2G31G16G 1G 8G 3
  22646630.289   -18388157.27549 -14299282.71046  22646630.024    22646635.772
  20890199.417   -24429110.33349 -18360654.62147  20890199.566    20890203.333
  22453454.571   -14035515.49849  -9792705.88946  22453453.907    22453459.115
  21754848.195    -2231153.47549  -1710837.95947  21754847.602    21754853.053
  24356502.232    -5740232.34949  -4447252.49545  24356501.855    24356507.572
  22663424.720   -15794077.57549 -12273946.01346  22663424.398    22663429.029
  20476787.035   -29575359.03849 -23023901.20648  20476786.676    20476791.729
  24453678.662   -10066484.05549  -7806418.91245  24453678.242    24453685.436
  23669467.327    -7997418.04249  -6210492.46045  23669467.149    23669473.008
 03  6  4  3 57 30.0000000  0  9G27G13G20G 2G31G16G 1G 8G 3
  22636436.782   -18441724.54549 -14341023.41046  22636436.471    22636442.208
  20881045.680   -24477213.42649 -18398137.51747  20881045.833    20881049.602
  22472333.032   -13936308.31949  -9715401.62746  22472332.398    22472337.609
  21763722.730    -2184517.58149  -1674498.30047  21763722.129    21763727.530
  24339244.382    -5830922.50449  -4517920.06945  24339244.102    24339249.742
  22678433.512   -15715206.06949 -12212487.72246  22678433.187    22678437.732
  20477936.140   -29569320.43249 -23019195.79048  20477935.760    20477940.823
  24437913.333   -10149331.39849  -7870975.20945  24437912.775    24437920.003
  23657133.304    -8062233.74349  -6260998.18245  23657133.108    23657139.005
 03  6  4  3 58  0.0000000  0  9G27G13G20G 2G31G16G 1G 8G 3
  22626270.624   -18495147.79949 -14382651.89646  22626270.339    22626276.069
  20871941.425   -24525056.39849 -18435417.71647  20871941.576    20871945.377
  22491260.882   -13836841.56849  -9637895.09246  22491260.265    22491265.573
  21772668.521    -2137507.12149  -1637866.77047  21772667.926    21772673.347
  24321984.726    -5921622.69549  -4588595.53545  24321984.381    24321990.023
  22693509.302   -15635982.43349 -12150755.03846  22693508.941    22693513.508
  20479149.500   -29562944.10649 -23014227.21448  20479149.120    20479154.211
  24422168.528   -10232070.60449  -7935447.25245  24422167.945    24422175.257
  23644848.017    -8126792.98649  -6311304.07045  23644847.892    23644853.618
 03  6  4  3 58 30.0000000  0  9G27G13G20G 2G31G16G 1G 8G 3
  22616131.847   -18548427.37549 -14424168.42046  22616131.538    22616137.244
  20862886.928   -24572637.70649 -18472494.03547  20862887.094    20862890.948
  22510237.615   -13737118.20549  -9560188.61246  22510236.997    22510242.338
  21781685.272    -2090123.83849  -1600944.73447  21781684.693    21781690.100
  24304723.601    -6012329.90349  -4659276.40045  24304723.241    24304729.103
  22708651.622   -15556409.30049 -12088750.02246  22708651.228    22708655.730
  20480427.302   -29556229.07449 -23008994.71848  20480426.935    20480432.032
  24406444.391   -10314701.52749  -7999834.93745  24406443.821    24406451.067
  23632612.189    -8191092.90249  -6361407.85945  23632611.983    23632617.952
 03  6  4  3 59  0.0000000  0  9G27G13G20G 2G31G16G 1G 8G 3
  22606020.414   -18601563.17949 -14465572.91346  22606020.138    22606025.839
  20853882.715   -24619955.18849 -18509364.76947  20853882.877    20853886.737
  22529262.740   -13637140.75449  -9482284.13946  22529262.086    22529267.436
  21790772.688    -2042369.19049  -1563733.32147  21790772.092    21790777.485
  24287461.782    -6103040.77949  -4729960.16845  24287461.590    24287467.481
  22723859.936   -15476488.95249 -12026474.44846  22723859.569    22723864.089
  20481769.853   -29549174.07549 -23003497.31148  20481769.486    20481774.580
  24390741.014   -10397223.38049  -8064137.60945  24390740.322    24390747.635
  23620426.243    -8255130.23549  -6411307.06145  23620426.079    23620431.990
 03  6  4  3 59 30.0000000  0  9G27G13G20G 2G31G16G 1G 8G 3
  22595936.277   -18654555.49949 -14506865.59646  22595935.999    22595941.715
  20844929.019   -24667007.14449 -18546028.60847  20844929.176    20844933.003
  22548335.703   -13536912.02649  -9404183.87046  22548335.042    22548340.364
  21799930.375    -1994245.02949  -1526233.97447  21799929.803    21799935.220
  24270199.878    -6193752.48049  -4800644.56145  24270199.571    24270205.551
  22739133.857   -15396223.88149 -11963930.26146  22739133.515    22739138.126
  20483177.252   -29541778.15549 -22997734.24848  20483176.862    20483181.983
  24375058.340   -10479636.12049  -8128355.25245  24375057.699    24375064.965
  23608290.818    -8318902.47549  -6460999.70245  23608290.631    23608296.477
 03  6  4  4  0  0.0000000  0  9G27G13G20G 2G31G16G 1G 8G 3
  22585879.321   -18707404.81649 -14548046.85946  22585879.071    22585884.770
  20836026.120   -24713792.16949 -18582484.44247  20836026.279    20836030.057
  22567455.830   -13436435.19449  -9325890.25746  22567455.166    22567460.498
  21809158.065    -1945753.24449  -1488448.16747  21809157.474    21809162.893
  24252938.316    -6284461.94549  -4871327.20545  24252938.010    24252944.137
  22754472.842   -15315616.79049 -11901119.57146  22754472.536    22754477.233
  20484649.726   -29534040.33849 -22991704.77448  20484649.332    20484654.472
  24359396.403   -10561939.68849  -8192487.85645  24359395.801    24359403.046
  23596206.298    -8382406.59849  -6510483.42245  23596206.106    23596212.100
 03  6  4  4  0 30.0000000  0  9G27G13G20G 2G31G16G 1G 8G 3
  22575849.590   -18760111.42149 -14589116.91746  22575849.305    22575855.013
  20827174.348   -24760308.41549 -18618730.83947  20827174.507    20827178.249
  22586622.623   -13335713.03449  -9247405.48446  22586621.987    22586627.323
  21818455.388    -1896895.62749  -1450377.29947  21818454.798    21818460.221
  24235677.877    -6375166.22249  -4942005.80945  24235677.589    24235683.673
  22769876.441   -15234670.18649 -11838044.32946  22769876.143    22769880.935
  20486187.404   -29525959.67449 -22985408.14748  20486187.008    20486192.154
  24343755.315   -10644133.68549  -8256535.05345  24343754.769    24343761.917
  23584173.536    -8445639.71349  -6559755.95945  23584173.297    23584179.132
 03  6  4  4  1  0.0000000  0  9G27G13G20G 2G31G16G 1G 8G 3
  22565846.800   -18812676.37049 -14630076.59346  22565846.539    22565852.220
  20818373.918   -24806554.78549 -18654766.94447  20818374.080    20818377.813
  22605835.440   -13234749.01349  -9168732.25146  22605834.816    22605840.138
  21827821.837    -1847674.59549  -1412023.25347  21827821.234    21827826.666
  24218418.902    -6465862.95449  -5012678.56945  24218418.628    24218424.650
  22785344.125   -15153387.19649 -11774706.96646  22785343.845    22785348.636
  20487790.339   -29517535.94049 -22978844.18748  20487789.958    20487795.087
  24328134.948   -10726218.77049  -8320497.39345  24328134.483    24328141.586
  23572192.696    -8508599.29549  -6608815.33945  23572192.581    23572198.381
 03  6  4  4  1 30.0000000  0  9G27G13G20G 2G31G16G 1G 8G 3
  22555871.058   -18865099.15549 -14670925.49146  22555870.796    22555876.442
  20809625.318   -24852528.85349 -18690590.86447  20809625.476    20809629.221
  22625093.852   -13133545.47549  -9089872.37546  22625093.224    22625098.519
  21837257.258    -1798091.21449  -1373386.85047  21837256.672    21837262.076
  24201162.044    -6556548.34849  -5083342.42845  24201161.874    24201167.976
  22800875.463   -15071769.93449 -11711109.10746  22800875.183    22800879.918
  20489458.928   -29508767.42249 -22972011.56548  20489458.543    20489463.657
  24312535.557   -10808193.92849  -8384374.07545  24312535.072    24312542.047
  23560264.499    -8571281.95449  -6657658.90345  23560264.298    23560270.241
